[[{"header":{"parameterUnit":"m.s-1","parameterCategory":1,"la1":30.6,"la2":29.2853,"lo1":-89.7004,"lo2":-87.6739,"dx":0.0162,"dy":0.0183,"nx":112,"ny":82,"refTime":"2023-02-13T06:00:00:Z","depth":0,"parameterNumber":2,"parameterNumberName":"U-component_of_WINDS"},"data":[0.0,0.0,0.0,0.0,0.0,0.0,0.0,0.0,0.0,0.0,0.0,0.0,0.0,0.0,0.0,0.0,0.0,0.0,0.0,0.0,0.0,0.0,0.0,0.0,0.0,0.0,0.0,0.0,0.0,0.0,0.0,0.0,0.0,0.0,0.0,0.0,0.0,0.0,0.0,0.0,0.0,0.0,0.0,0.0,0.0,0.0,0.0,0.0,0.0,0.0,0.0,0.0,0.0,0.0,0.0,0.0,0.0,0.0,0.0,0.0,0.0,0.0,0.0,0.0,0.0,0.0,0.0,0.0,0.0,0.0,0.0,0.0,0.0,0.0,0.0,0.0,0.0,0.0,0.0,0.0,0.0,0.0,0.0,0.0,0.0,0.0,0.0,0.0,0.0,0.0,0.0,5.3142,5.3353,5.3288,5.2866,5.2896,5.2754,5.2354,0.0,0.0,0.0,0.0,0.0,0.0,0.0,0.0,0.0,0.0,0.0,0.0,0.0,0.0,0.0,0.0,0.0,0.0,0.0,0.0,0.0,0.0,0.0,0.0,0.0,0.0,0.0,0.0,0.0,0.0,0.0,0.0,0.0,0.0,0.0,0.0,0.0,0.0,0.0,0.0,0.0,0.0,0.0,0.0,0.0,0.0,0.0,0.0,0.0,0.0,0.0,0.0,0.0,0.0,0.0,0.0,0.0,0.0,0.0,0.0,0.0,0.0,0.0,0.0,0.0,0.0,0.0,0.0,0.0,0.0,0.0,0.0,0.0,0.0,0.0,0.0,0.0,0.0,0.0,0.0,0.0,0.0,0.0,0.0,0.0,0.0,0.0,0.0,0.0,0.0,0.0,0.0,0.0,0.0,0.0,0.0,0.0,0.0,0.0,0.0,0.0,0.0,0.0,0.0,5.3125,5.311,5.3995,5.4356,5.3925,5.423,5.4251,5.3819,0.0,0.0,0.0,0.0,0.0,0.0,0.0,0.0,0.0,0.0,0.0,0.0,0.0,0.0,0.0,0.0,0.0,0.0,0.0,0.0,0.0,0.0,0.0,0.0,0.0,0.0,0.0,0.0,0.0,0.0,0.0,0.0,0.0,0.0,0.0,0.0,0.0,0.0,0.0,0.0,0.0,0.0,0.0,0.0,0.0,0.0,0.0,0.0,0.0,0.0,0.0,0.0,0.0,0.0,0.0,0.0,0.0,0.0,0.0,0.0,0.0,0.0,0.0,0.0,0.0,0.0,0.0,0.0,0.0,0.0,0.0,0.0,0.0,0.0,0.0,0.0,0.0,0.0,0.0,0.0,0.0,0.0,0.0,0.0,0.0,0.0,0.0,0.0,0.0,0.0,0.0,0.0,0.0,0.0,0.0,0.0,0.0,0.0,0.0,0.0,0.0,0.0,0.0,5.391,5.3989,5.3671,5.4105,5.4338,5.4124,5.4306,5.4338,5.4114,5.3502,0.0,0.0,0.0,0.0,0.0,0.0,0.0,0.0,0.0,0.0,0.0,0.0,0.0,0.0,0.0,0.0,0.0,0.0,0.0,0.0,0.0,0.0,0.0,0.0,0.0,0.0,0.0,0.0,0.0,0.0,0.0,0.0,0.0,0.0,0.0,0.0,0.0,0.0,0.0,0.0,0.0,0.0,0.0,0.0,0.0,0.0,0.0,0.0,0.0,0.0,0.0,0.0,0.0,0.0,0.0,0.0,0.0,0.0,0.0,0.0,0.0,0.0,0.0,0.0,0.0,0.0,0.0,0.0,0.0,0.0,0.0,0.0,0.0,0.0,0.0,0.0,0.0,0.0,0.0,0.0,0.0,0.0,0.0,0.0,0.0,0.0,0.0,0.0,0.0,0.0,0.0,0.0,0.0,0.0,0.0,0.0,0.0,0.0,0.0,0.0,0.0,0.0,5.4231,5.4507,5.4146,5.4103,5.4103,5.4103,5.4103,5.4103,5.4103,5.4103,0.0,0.0,0.0,0.0,0.0,0.0,0.0,0.0,0.0,0.0,0.0,0.0,0.0,0.0,0.0,0.0,0.0,0.0,0.0,0.0,0.0,0.0,0.0,0.0,0.0,0.0,0.0,0.0,0.0,0.0,0.0,0.0,0.0,0.0,0.0,0.0,0.0,0.0,0.0,0.0,0.0,0.0,0.0,0.0,0.0,0.0,0.0,0.0,0.0,0.0,0.0,0.0,0.0,0.0,0.0,0.0,0.0,0.0,0.0,0.0,0.0,0.0,0.0,0.0,0.0,0.0,0.0,0.0,0.0,0.0,0.0,0.0,0.0,0.0,0.0,0.0,0.0,0.0,0.0,0.0,0.0,0.0,0.0,0.0,0.0,0.0,0.0,0.0,0.0,0.0,0.0,0.0,0.0,0.0,0.0,0.0,0.0,0.0,0.0,0.0,0.0,0.0,5.458,5.4146,5.4114,5.4103,5.4103,5.4103,5.4103,5.4103,5.4103,5.4103,0.0,0.0,0.0,0.0,0.0,0.0,0.0,0.0,0.0,0.0,0.0,0.0,0.0,0.0,0.0,0.0,0.0,0.0,0.0,0.0,0.0,0.0,0.0,0.0,0.0,0.0,0.0,0.0,0.0,0.0,0.0,0.0,0.0,0.0,0.0,0.0,0.0,0.0,0.0,0.0,0.0,0.0,0.0,0.0,0.0,0.0,0.0,0.0,0.0,0.0,0.0,0.0,0.0,0.0,0.0,0.0,0.0,0.0,0.0,0.0,0.0,0.0,0.0,0.0,0.0,0.0,0.0,0.0,0.0,0.0,0.0,0.0,0.0,0.0,0.0,0.0,0.0,0.0,0.0,0.0,0.0,0.0,0.0,0.0,0.0,0.0,0.0,0.0,0.0,0.0,0.0,0.0,0.0,0.0,0.0,0.0,0.0,0.0,0.0,0.0,0.0,0.0,5.4571,5.4433,0.0,5.4103,5.4103,5.4103,5.4103,5.4103,5.4103,0.0,0.0,0.0,0.0,0.0,0.0,0.0,0.0,0.0,0.0,0.0,0.0,0.0,0.0,0.0,0.0,0.0,0.0,0.0,0.0,0.0,0.0,0.0,0.0,0.0,0.0,0.0,0.0,0.0,0.0,0.0,0.0,0.0,0.0,0.0,0.0,0.0,0.0,0.0,0.0,0.0,0.0,0.0,0.0,0.0,0.0,0.0,0.0,0.0,0.0,0.0,0.0,0.0,0.0,0.0,0.0,0.0,0.0,0.0,0.0,0.0,0.0,0.0,0.0,0.0,0.0,0.0,0.0,0.0,0.0,0.0,0.0,0.0,0.0,0.0,0.0,0.0,0.0,0.0,0.0,0.0,0.0,0.0,0.0,0.0,0.0,0.0,0.0,0.0,0.0,0.0,0.0,0.0,0.0,0.0,0.0,0.0,0.0,0.0,0.0,0.0,0.0,5.4359,5.4486,5.4465,0.0,5.4103,5.4103,5.4103,5.4103,5.4103,5.4103,0.0,0.0,0.0,0.0,0.0,0.0,0.0,0.0,0.0,0.0,0.0,0.0,0.0,0.0,0.0,0.0,0.0,0.0,0.0,0.0,0.0,0.0,0.0,0.0,0.0,0.0,0.0,0.0,0.0,0.0,0.0,0.0,0.0,0.0,0.0,0.0,0.0,0.0,0.0,0.0,0.0,0.0,0.0,0.0,0.0,0.0,0.0,0.0,0.0,0.0,0.0,0.0,0.0,0.0,0.0,0.0,0.0,0.0,0.0,0.0,0.0,0.0,0.0,0.0,0.0,0.0,0.0,0.0,0.0,0.0,0.0,0.0,0.0,0.0,0.0,0.0,0.0,0.0,0.0,0.0,0.0,0.0,0.0,0.0,0.0,0.0,0.0,0.0,0.0,0.0,0.0,0.0,0.0,0.0,0.0,0.0,0.0,0.0,0.0,0.0,0.0,0.0,5.4749,5.4401,5.4103,5.4103,5.4103,5.4103,5.4134,5.4103,5.4103,0.0,0.0,0.0,0.0,0.0,0.0,0.0,0.0,0.0,0.0,0.0,0.0,0.0,0.0,0.0,0.0,0.0,0.0,0.0,0.0,0.0,0.0,0.0,0.0,0.0,0.0,0.0,0.0,0.0,0.0,0.0,0.0,0.0,0.0,0.0,0.0,0.0,0.0,0.0,0.0,0.0,0.0,0.0,0.0,0.0,0.0,0.0,0.0,0.0,0.0,0.0,0.0,0.0,0.0,0.0,0.0,0.0,0.0,0.0,0.0,0.0,0.0,0.0,0.0,0.0,0.0,0.0,0.0,0.0,0.0,0.0,0.0,0.0,0.0,0.0,0.0,0.0,0.0,0.0,0.0,0.0,0.0,0.0,0.0,0.0,0.0,0.0,0.0,0.0,0.0,0.0,0.0,0.0,0.0,0.0,0.0,0.0,0.0,0.0,0.0,0.0,0.0,0.0,0.0,5.4189,5.4292,5.4745,5.4808,5.5008,5.5536,5.5103,5.504,5.5536,0.0,0.0,0.0,0.0,0.0,0.0,0.0,0.0,0.0,0.0,0.0,0.0,0.0,0.0,0.0,0.0,0.0,0.0,0.0,0.0,0.0,0.0,0.0,0.0,0.0,0.0,0.0,0.0,0.0,0.0,0.0,0.0,0.0,0.0,0.0,0.0,0.0,0.0,0.0,0.0,0.0,0.0,0.0,0.0,0.0,0.0,0.0,0.0,0.0,0.0,0.0,0.0,0.0,0.0,0.0,0.0,0.0,0.0,0.0,0.0,0.0,0.0,0.0,0.0,0.0,0.0,0.0,0.0,0.0,0.0,0.0,0.0,0.0,0.0,0.0,0.0,0.0,0.0,0.0,0.0,0.0,0.0,0.0,0.0,0.0,0.0,0.0,0.0,0.0,0.0,0.0,0.0,0.0,0.0,0.0,0.0,0.0,0.0,0.0,0.0,0.0,0.0,5.4935,5.4935,5.5083,5.5482,5.5546,5.5715,5.6168,5.5778,5.5746,5.6168,0.0,0.0,0.0,0.0,0.0,0.0,0.0,0.0,0.0,0.0,0.0,0.0,0.0,0.0,0.0,0.0,0.0,0.0,0.0,0.0,0.0,0.0,0.0,0.0,0.0,0.0,0.0,0.0,0.0,0.0,0.0,0.0,0.0,0.0,0.0,0.0,0.0,0.0,0.0,0.0,0.0,0.0,0.0,0.0,0.0,0.0,0.0,0.0,0.0,0.0,0.0,0.0,0.0,0.0,0.0,0.0,0.0,0.0,0.0,0.0,0.0,0.0,0.0,0.0,0.0,0.0,0.0,0.0,0.0,0.0,0.0,0.0,0.0,0.0,0.0,0.0,0.0,0.0,0.0,0.0,0.0,0.0,0.0,0.0,0.0,0.0,0.0,0.0,0.0,0.0,0.0,0.0,0.0,0.0,0.0,0.0,0.0,0.0,0.0,0.0,0.0,0.0,5.62,5.62,5.6231,5.6295,5.6295,5.6326,5.6389,5.6326,5.6326,5.6389,0.0,0.0,0.0,0.0,0.0,0.0,0.0,0.0,0.0,0.0,0.0,0.0,0.0,0.0,0.0,0.0,0.0,0.0,0.0,0.0,0.0,0.0,0.0,0.0,0.0,0.0,0.0,0.0,0.0,0.0,0.0,0.0,0.0,0.0,0.0,0.0,0.0,0.0,0.0,0.0,0.0,0.0,0.0,0.0,0.0,0.0,0.0,0.0,0.0,0.0,0.0,0.0,0.0,0.0,0.0,0.0,0.0,0.0,0.0,0.0,5.2481,0.0,0.0,0.0,0.0,0.0,0.0,0.0,0.0,0.0,0.0,0.0,0.0,0.0,0.0,0.0,0.0,0.0,0.0,0.0,0.0,0.0,0.0,0.0,0.0,0.0,0.0,0.0,0.0,0.0,0.0,0.0,0.0,0.0,0.0,0.0,0.0,0.0,0.0,0.0,0.0,0.0,5.62,5.62,5.6389,5.6936,5.6999,5.7231,5.7792,5.7326,5.7231,5.7823,0.0,0.0,0.0,0.0,0.0,0.0,0.0,0.0,0.0,0.0,0.0,0.0,0.0,0.0,0.0,0.0,0.0,0.0,0.0,0.0,0.0,0.0,0.0,0.0,0.0,0.0,0.0,0.0,0.0,0.0,0.0,0.0,0.0,0.0,0.0,0.0,0.0,0.0,0.0,0.0,0.0,0.0,0.0,0.0,0.0,0.0,0.0,0.0,0.0,0.0,0.0,0.0,0.0,0.0,0.0,0.0,0.0,0.0,0.0,0.0,0.0,5.3028,0.0,0.0,0.0,0.0,0.0,0.0,0.0,0.0,0.0,0.0,0.0,0.0,0.0,0.0,0.0,0.0,0.0,0.0,0.0,0.0,0.0,0.0,0.0,0.0,0.0,0.0,0.0,0.0,0.0,0.0,0.0,0.0,0.0,0.0,0.0,0.0,0.0,0.0,0.0,0.0,5.7223,5.7496,5.7832,5.8168,5.8484,5.8843,5.9234,5.8566,5.8307,5.8768,5.7695,0.0,0.0,0.0,0.0,0.0,0.0,0.0,0.0,0.0,0.0,0.0,0.0,0.0,0.0,0.0,0.0,0.0,0.0,0.0,0.0,0.0,0.0,0.0,0.0,0.0,0.0,0.0,0.0,0.0,0.0,0.0,0.0,0.0,0.0,0.0,0.0,0.0,0.0,0.0,0.0,0.0,0.0,0.0,0.0,0.0,0.0,0.0,0.0,0.0,0.0,0.0,0.0,0.0,0.0,0.0,5.1892,5.1892,5.1953,5.2131,5.3357,5.383,5.3716,0.0,0.0,0.0,0.0,0.0,0.0,0.0,0.0,0.0,0.0,0.0,0.0,0.0,0.0,0.0,0.0,0.0,0.0,0.0,0.0,0.0,0.0,0.0,0.0,0.0,5.5976,5.6007,0.0,0.0,0.0,0.0,0.0,0.0,0.0,0.0,0.0,0.0,0.0,0.0,5.8248,5.8715,5.9048,5.9048,5.9531,5.9845,5.9845,5.9278,5.8919,5.9044,5.8512,5.8275,0.0,0.0,0.0,0.0,0.0,0.0,0.0,0.0,0.0,0.0,0.0,0.0,0.0,0.0,0.0,0.0,0.0,0.0,0.0,0.0,0.0,0.0,0.0,0.0,0.0,0.0,0.0,0.0,0.0,0.0,0.0,0.0,4.8859,4.9476,0.0,0.0,0.0,0.0,0.0,0.0,0.0,0.0,0.0,0.0,0.0,0.0,0.0,0.0,5.177,5.1203,5.1274,5.188,5.1251,5.1286,5.1892,5.1892,5.2214,5.2779,5.2966,0.0,5.2188,5.2188,0.0,0.0,0.0,0.0,0.0,0.0,0.0,0.0,0.0,0.0,0.0,0.0,0.0,0.0,0.0,0.0,0.0,0.0,0.0,0.0,0.0,0.0,5.428,5.4907,5.5084,5.5237,0.0,5.5523,5.4946,5.4246,0.0,0.0,0.0,0.0,0.0,0.0,0.0,0.0,5.7947,5.7938,5.7999,5.7999,5.8072,5.8133,5.8133,5.8032,5.7988,5.7999,5.8602,5.8968,5.8973,5.956,0.0,0.0,0.0,0.0,0.0,0.0,0.0,0.0,0.0,0.0,0.0,0.0,0.0,0.0,0.0,0.0,0.0,0.0,0.0,0.0,0.0,0.0,0.0,0.0,0.0,0.0,0.0,0.0,0.0,4.9847,4.9996,4.9858,5.0116,5.0444,0.0,0.0,0.0,0.0,0.0,0.0,0.0,0.0,0.0,5.1298,5.1286,5.1266,5.1225,5.1246,5.1599,5.2297,5.2309,5.2305,5.2297,5.2297,5.2255,5.2154,5.2154,5.2006,5.1783,5.2634,5.3376,5.4023,0.0,0.0,0.0,0.0,0.0,0.0,0.0,0.0,0.0,0.0,0.0,0.0,0.0,0.0,0.0,0.0,0.0,0.0,0.0,0.0,0.0,5.5487,5.5754,5.5994,5.5831,5.5862,5.5732,0.0,5.589,5.6629,5.6513,0.0,0.0,0.0,0.0,0.0,5.784,5.8118,5.8373,5.8373,5.872,5.8975,5.8975,5.8516,5.8286,5.8377,5.8282,5.8286,5.8367,5.8713,5.8999,0.0,0.0,0.0,0.0,0.0,0.0,0.0,0.0,0.0,0.0,0.0,0.0,0.0,0.0,0.0,0.0,0.0,0.0,0.0,0.0,0.0,0.0,0.0,0.0,0.0,0.0,0.0,0.0,5.05,5.023,4.99,4.9956,5.0268,0.0,0.0,0.0,0.0,0.0,0.0,5.1865,5.2009,5.1822,5.1276,5.1263,5.1231,5.1187,5.1468,5.1833,5.2352,5.2804,5.2775,5.2352,5.2352,5.2178,5.1875,5.1875,5.1949,5.2155,5.2914,5.3651,5.4255,5.4255,0.0,0.0,0.0,5.523,5.5328,5.5972,5.6281,0.0,5.6447,0.0,0.0,5.5571,0.0,0.0,0.0,0.0,5.5956,5.606,0.0,5.6503,5.5902,5.6153,5.6346,5.5752,5.6147,5.6439,0.0,5.661,5.722,0.0,0.0,0.0,0.0,0.0,5.7987,5.7944,5.8364,5.8738,5.8917,5.9411,5.9738,5.9738,5.9153,5.8805,5.8937,5.8408,5.8164,5.825,5.8524,5.8777,0.0,0.0,0.0,0.0,0.0,0.0,0.0,0.0,0.0,0.0,0.0,0.0,0.0,0.0,0.0,0.0,0.0,0.0,0.0,0.0,0.0,0.0,0.0,0.0,0.0,0.0,0.0,0.0,0.0,0.0,4.9628,5.0324,0.0,0.0,0.0,0.0,5.1892,5.1839,5.1809,5.1809,5.2289,5.2555,5.2516,5.2516,5.2491,5.2481,5.1904,5.163,5.1659,5.1688,5.1688,5.1659,5.1659,5.1991,5.2539,5.2539,5.2875,5.3326,5.2171,5.2126,5.2795,5.2795,5.3253,5.3886,5.3886,5.3886,5.3886,5.3946,5.4418,5.5013,5.5013,5.593,5.7053,5.7017,5.6962,0.0,0.0,5.6281,5.5857,5.6495,5.6078,5.5476,5.5422,5.5451,5.5467,5.5426,5.6046,5.6363,0.0,5.5479,0.0,0.0,0.0,0.0,5.7621,0.0,5.8479,5.8286,5.8303,5.8564,5.9204,5.9321,5.9321,5.9321,5.9277,5.9277,5.9277,5.9419,5.951,5.9521,6.0495,6.0345,5.8841,6.0441,0.0,0.0,0.0,0.0,0.0,0.0,0.0,0.0,0.0,0.0,0.0,0.0,0.0,0.0,0.0,0.0,0.0,0.0,0.0,0.0,0.0,0.0,0.0,0.0,0.0,0.0,0.0,0.0,5.0388,5.0226,0.0,0.0,5.0964,5.1475,5.2289,5.2322,5.2306,5.2306,5.249,5.2394,5.1962,5.1962,5.2178,5.2597,5.2746,5.3052,5.3487,5.43,5.4445,5.4068,5.4503,5.4561,5.44,5.44,5.4517,5.4677,5.4242,5.3965,5.3847,5.3847,5.4251,5.4825,5.4825,5.509,5.5552,5.6109,5.6752,5.7231,5.6838,5.6668,5.6565,5.6132,5.6013,5.5991,5.5939,5.6091,5.6203,5.595,5.6035,5.6033,5.551,5.5722,5.6142,5.6549,5.7192,5.7755,5.7883,5.7313,5.688,5.7016,5.7633,5.8218,5.8629,5.8892,5.9026,5.8958,5.8958,5.9045,5.9277,5.9306,5.9306,5.9306,5.9306,5.9306,5.9306,5.9378,5.9418,5.9418,5.9764,5.9765,5.9308,6.0433,6.0602,0.0,0.0,0.0,0.0,0.0,0.0,0.0,0.0,0.0,0.0,0.0,0.0,0.0,0.0,0.0,0.0,0.0,0.0,0.0,0.0,0.0,0.0,0.0,0.0,0.0,0.0,5.0766,5.0766,5.0698,5.0855,5.129,5.1349,5.1697,5.2552,5.2597,5.2597,5.2597,5.3004,5.3123,5.2878,5.2878,5.3197,5.3862,5.4052,5.4358,5.4822,5.5664,5.5838,5.5416,5.5881,5.5809,5.5403,5.5403,5.5403,5.5403,5.5403,5.5171,5.4793,5.4793,5.5055,5.5403,5.5403,5.5664,5.6138,5.6709,5.7206,5.7499,5.7366,5.6938,5.6392,5.5953,5.5807,5.5753,5.5498,5.5955,5.6471,5.6134,5.6612,5.7104,5.679,5.7071,5.7507,5.7884,5.8319,5.8784,5.9219,5.8688,5.8136,5.8012,5.8348,5.8871,5.951,5.9422,5.9451,5.9887,5.9742,5.9684,5.9916,5.9945,5.9945,5.9945,5.9945,5.9945,5.9945,5.9742,5.9597,5.9597,5.9684,5.9636,5.9508,6.0287,6.0681,6.0654,0.0,0.0,0.0,0.0,0.0,0.0,0.0,0.0,0.0,0.0,0.0,0.0,0.0,0.0,0.0,0.0,0.0,0.0,0.0,0.0,0.0,0.0,0.0,4.9838,5.0332,5.0768,5.0768,5.1842,5.2597,5.2626,5.2597,5.2626,5.2668,5.2685,5.2685,5.2685,5.3878,5.4822,5.5374,5.5403,5.5693,5.6361,5.5722,5.5403,5.5403,5.5432,5.5474,5.5474,5.549,5.5519,5.5519,5.5519,5.5519,5.5519,5.5519,5.5519,5.5519,5.5432,5.5403,5.5403,5.5403,5.5403,5.5432,5.5461,5.5474,5.5597,5.6402,5.6667,5.6667,5.6697,5.6684,5.6524,5.5721,5.5983,5.6636,5.7216,5.7855,5.8479,5.9161,5.9306,5.9306,5.9364,5.9364,5.9364,5.9422,5.9422,5.9393,5.9335,5.9364,5.9568,6.0177,5.9771,0.0,6.1106,6.07,6.0526,6.1193,6.1251,6.1251,6.1251,6.1251,6.1251,6.1251,6.0642,6.0264,6.0264,6.0453,6.0171,5.9394,6.0098,6.0944,6.1786,0.0,0.0,0.0,0.0,0.0,0.0,0.0,0.0,0.0,0.0,0.0,0.0,0.0,0.0,0.0,0.0,0.0,0.0,0.0,0.0,0.0,0.0,5.183,5.1178,5.1655,5.2075,5.2075,5.2394,5.2772,5.321,5.2846,5.2975,5.3907,5.4371,5.4633,5.4633,5.5416,5.5722,5.5403,5.5403,5.549,5.5664,5.549,5.5403,5.5403,5.6345,5.6781,5.681,5.7783,5.8232,5.8232,5.8232,5.8232,5.8232,5.8232,5.8232,5.8058,5.6142,5.5403,5.5403,5.5403,5.5693,5.6186,5.6636,5.6781,5.6896,5.7599,5.7829,5.7917,5.8413,5.8545,5.8502,5.8289,5.8377,5.8552,5.8726,5.89,5.9074,5.9248,5.9306,5.9568,6.0467,6.0671,6.0961,6.1876,6.2064,6.16,6.0206,6.0351,6.0874,6.1499,0.0,0.0,0.0,6.2412,6.2354,6.2573,6.2573,6.2573,6.2573,6.2573,0.0,0.0,6.2383,6.2064,6.16,6.1637,6.1409,6.0892,6.0618,6.0944,0.0,0.0,0.0,0.0,0.0,0.0,0.0,0.0,0.0,0.0,0.0,0.0,0.0,0.0,0.0,0.0,0.0,0.0,0.0,0.0,0.0,0.0,5.2991,5.2833,5.2443,5.2717,5.2875,5.2626,5.3078,5.3617,5.4242,5.3978,5.421,5.5229,5.5345,5.5403,5.5403,5.5751,5.5925,5.5809,5.6055,5.6345,5.6593,5.6883,5.7028,5.7042,5.7783,5.8145,5.8174,5.8958,5.9306,0.0,5.9306,5.9306,5.9306,5.9306,5.9306,0.0,0.0,0.0,0.0,0.0,0.0,5.7681,5.8029,5.8145,5.8203,5.8581,5.8726,5.8784,5.919,5.9306,5.9306,5.9306,5.948,5.9742,6.0032,6.0293,6.0526,6.0816,6.0874,6.1106,6.1832,6.2006,6.2209,6.2979,0.0,0.0,6.16,6.1745,6.2209,6.2803,6.3022,0.0,0.0,6.3254,6.308,6.308,6.308,6.308,6.308,0.0,0.0,0.0,0.0,6.2921,6.2544,0.0,0.0,0.0,0.0,6.1407,0.0,0.0,0.0,0.0,6.1396,6.1307,0.0,0.0,0.0,0.0,0.0,0.0,0.0,0.0,0.0,0.0,0.0,0.0,0.0,0.0,0.0,0.0,5.3603,5.3632,5.3691,5.372,5.353,5.2975,5.3907,5.4851,5.5461,5.5432,5.5649,5.6244,5.5809,5.5548,0.0,0.0,0.0,0.0,0.0,5.7826,5.8406,5.9016,5.9335,5.9393,5.948,5.9539,5.9626,5.9684,5.9742,5.9742,5.9742,5.9742,5.9742,5.9742,5.9742,5.9713,5.9422,5.9306,5.9306,5.9306,5.9306,0.0,0.0,0.0,0.0,5.9568,5.9626,5.9626,5.9713,5.9742,5.9742,5.9742,6.0119,6.0671,6.1251,6.1803,6.2354,6.2979,6.308,6.3109,6.3196,6.3196,6.3225,6.3283,6.3312,6.3312,6.3312,6.3254,6.3399,6.392,6.3616,0.0,6.4036,6.3661,6.3312,6.3312,0.0,0.0,6.3312,6.3312,6.3312,6.3312,6.3225,6.3196,6.3196,6.3138,6.308,6.308,6.2515,6.2209,6.2209,6.2454,6.1866,6.0541,6.1394,6.1684,0.0,0.0,0.0,0.0,0.0,0.0,0.0,0.0,0.0,0.0,0.0,0.0,0.0,0.0,0.0,5.4126,5.43,5.4474,5.4967,5.5026,5.4996,5.4865,5.5097,5.549,5.6128,5.5722,5.5461,5.5577,5.5954,5.6432,5.6926,5.7448,0.0,5.8726,5.8842,5.8987,5.9103,5.9248,5.9539,6.0032,0.0,0.0,6.1586,6.2122,6.237,6.237,6.237,6.237,6.237,6.237,6.237,6.2151,6.009,5.9306,5.9306,5.9306,5.9306,5.9364,5.9858,6.0032,6.0206,6.1222,6.1542,6.1658,6.218,6.237,0.0,6.237,6.2441,6.2573,0.0,6.2819,6.2935,6.3067,6.308,6.3225,6.3732,6.3832,6.3993,6.4532,6.4634,6.4634,6.4634,6.4167,6.3861,6.3978,6.4342,6.4664,6.4793,6.4722,6.4634,6.4634,6.4634,6.4634,6.4634,6.4634,6.4634,6.4634,6.4138,6.3832,6.3832,6.337,6.308,6.308,6.2964,6.2906,6.2906,6.2961,6.2829,6.253,6.1922,6.0971,0.0,0.0,0.0,0.0,0.0,0.0,0.0,0.0,0.0,0.0,0.0,5.2882,0.0,0.0,5.389,5.4811,5.4938,5.5055,5.5358,5.5403,5.5403,5.5403,5.5403,5.5664,5.6332,5.6361,5.6477,5.6839,5.7477,5.7986,5.8276,5.861,5.9103,5.9742,6.009,6.0409,6.07,6.1019,6.1338,6.1673,6.1977,6.2296,6.2616,6.295,6.308,6.308,6.308,6.308,6.308,6.308,6.308,6.2964,6.1687,6.1193,6.1193,6.1193,6.1193,6.1251,6.1542,6.1658,6.176,6.2383,6.2587,6.2645,6.2993,6.308,6.308,6.308,6.3312,6.3558,6.3558,6.3806,6.4054,6.4054,6.4054,6.4125,6.4429,6.4487,6.4619,6.4909,6.5012,6.5012,6.5012,6.4735,6.4487,6.4487,6.4793,6.5012,6.5012,6.5012,6.5012,6.5012,6.5012,6.5012,6.5012,6.5012,6.5012,6.5012,6.4706,6.4487,6.4487,6.4212,6.4054,6.4054,6.3703,6.3558,6.3558,6.3254,6.308,6.3096,6.258,6.1935,0.0,0.0,0.0,0.0,0.0,0.0,0.0,0.0,5.1893,5.2199,5.2646,5.3301,5.4306,5.4553,5.4717,5.5157,5.5239,5.5295,5.5563,5.5707,5.5823,5.5968,5.5852,5.6012,5.6709,5.7332,5.7913,5.8464,5.9103,5.9539,5.9655,5.9771,6.0119,6.0729,6.128,6.1803,6.2312,6.2819,6.3167,6.3283,6.3283,6.3341,6.3473,6.3473,6.3473,6.3473,6.3473,6.3473,6.3473,6.3473,6.3473,6.3473,6.3473,6.3473,6.3444,6.3183,6.308,6.3109,6.3225,6.3283,6.3283,6.3428,6.3473,6.3473,6.3473,6.3473,6.3473,6.3473,6.3819,6.4181,6.4181,6.4619,6.5012,6.5012,6.5012,6.5041,6.5141,6.517,6.5199,6.5331,6.536,6.536,6.536,6.536,6.5302,6.5041,6.5012,6.5012,6.5012,6.5012,6.5012,6.5012,6.5012,6.5012,6.5012,6.5012,6.5012,6.5012,6.5012,6.5012,6.5012,6.5012,6.5012,6.5012,6.4458,6.4181,6.4181,6.3719,6.3473,6.3473,6.3473,6.3357,5.0433,5.1382,5.1718,4.9694,5.0415,5.1466,0.0,0.0,5.2875,5.3963,5.4291,5.4392,5.4478,5.4494,5.4523,5.4593,5.4606,5.5001,5.6117,5.6752,5.7303,5.7899,5.7448,5.7361,5.8029,5.8697,5.9103,5.919,5.9742,6.0351,6.0961,6.1483,6.2108,6.2732,6.2863,6.2906,6.3008,6.3051,6.337,6.3891,6.3891,6.4225,6.478,6.478,6.478,6.478,6.478,6.478,6.478,6.478,6.478,6.478,6.478,6.478,6.4664,6.3531,6.308,6.3167,6.3703,6.3891,6.4007,6.459,6.478,6.478,6.478,6.478,6.478,6.478,6.4838,6.4896,6.4896,6.4938,6.5012,6.5012,6.5012,6.5141,6.5677,6.5805,6.5967,6.658,6.6696,6.6696,6.6696,6.6696,6.629,6.5157,6.5012,6.5012,6.5012,6.5012,6.5012,6.5012,6.5012,6.5012,6.5012,6.5012,6.5012,6.5012,6.5012,6.5012,6.5012,6.5012,6.5012,6.5012,6.4925,6.4896,6.4896,6.4838,6.478,6.478,6.478,6.4199,4.9808,5.0672,0.0,0.0,5.0434,5.1166,5.0946,5.1833,5.2855,5.3351,5.3471,5.3698,5.437,5.4217,5.4233,0.0,5.508,5.5634,5.7277,5.7426,5.7744,5.8769,5.9306,5.9393,5.8929,5.98,6.0409,6.0409,6.1338,6.2006,6.2296,6.2529,6.2964,6.3587,6.3616,6.3806,6.4199,6.4199,6.4328,6.4574,6.4574,6.4735,6.5012,6.5012,6.5012,6.5012,6.5012,6.5012,6.5012,6.5012,6.5012,6.5012,6.5012,6.5012,6.4954,6.4402,6.4199,6.4241,6.4502,6.4574,6.4648,6.4909,6.5012,6.5012,6.5012,6.5012,6.507,6.5431,6.5502,6.5619,6.5999,6.6115,6.6115,6.6115,6.6115,6.6173,6.6418,6.6476,6.6564,6.6841,6.6899,6.6899,6.6899,6.6899,6.6725,6.6173,6.6115,6.6115,6.6115,6.6115,6.6115,6.6115,6.6115,6.6115,6.6115,6.6115,6.5925,6.5531,6.5502,6.5373,6.5012,6.5012,6.5012,6.5012,6.5012,6.5012,6.5012,6.5012,6.5012,6.5012,6.5012,6.4722,4.9918,0.0,0.0,5.0432,5.0694,5.1182,5.1362,5.1929,5.2547,5.2869,5.2963,5.3223,5.4092,5.4021,0.0,5.5294,5.5637,5.6351,5.8061,5.8233,5.8578,5.9683,6.0787,6.1164,6.0409,6.1164,6.1716,6.1716,6.2732,6.3341,6.3341,6.3516,6.3835,6.4239,6.4284,6.4516,6.5012,6.5012,6.5012,6.5012,6.5012,6.5012,6.5012,6.517,6.5344,6.5535,6.5535,6.5535,6.5535,6.5535,6.5535,6.5535,6.5535,6.5535,6.5535,6.5535,6.5402,6.5257,6.5257,6.5373,6.5535,6.5535,6.5535,6.5535,6.5535,6.5535,6.5622,6.6054,6.617,6.6286,6.6783,6.6899,6.6899,6.6899,6.6899,6.6957,6.7132,6.719,6.7219,6.7393,6.7405,6.7405,6.7405,6.7405,6.7509,6.7654,6.7712,6.7509,6.6957,6.6899,6.6899,6.6899,6.6899,6.6899,6.6899,6.6899,6.6696,6.6199,6.617,6.5983,6.5535,6.5535,6.5535,6.5535,6.5535,6.5535,6.5535,6.5535,6.5535,6.5535,6.5535,6.5535,0.0,0.0,5.2427,5.1196,5.1321,5.1929,5.2519,5.2216,5.2164,5.333,5.3561,5.3585,5.3613,5.4097,5.4692,5.5313,5.5967,5.6803,5.812,5.9344,6.0366,6.1048,6.1687,6.2296,0.0,6.3022,6.3022,6.3022,6.3616,6.3978,6.3978,6.459,6.4954,6.4983,6.4983,6.4983,6.5012,6.5012,6.5012,6.5012,6.5012,6.5012,6.5012,6.5619,6.6228,6.6841,6.6841,6.6841,6.6841,6.6841,6.6841,6.6841,6.6841,6.6841,6.6841,6.6841,6.6418,6.5864,6.5864,6.6302,6.6841,6.6841,6.6841,6.6841,6.6841,6.6841,6.6841,6.687,6.687,6.687,6.6899,6.6899,6.6899,6.6899,6.6899,6.7074,6.7741,6.7857,6.8044,6.8637,6.8736,6.8736,6.8736,6.8736,6.8956,6.96,6.9716,6.9019,6.7132,6.6899,6.6899,6.6899,6.6899,6.6899,6.6899,6.6899,6.6899,6.687,6.687,6.687,6.6841,6.6841,6.6841,6.6841,6.6841,6.6841,6.6841,6.6841,6.6841,6.6841,6.6841,6.6841,0.0,0.0,5.1429,5.102,5.1049,5.1359,5.1982,5.2269,5.2619,5.3425,5.3903,5.4468,5.5292,5.5955,5.6415,5.6624,5.721,5.7794,5.8175,5.9375,6.0445,6.106,6.2454,0.0,0.0,0.0,0.0,6.3703,6.4299,6.4677,6.4677,6.4896,6.5012,6.5012,6.5012,6.5012,6.5012,6.5402,6.5589,6.5589,6.6041,6.6261,6.6261,6.6476,6.6696,6.6899,6.6899,6.6899,6.6899,6.6899,6.6899,6.6899,6.6899,6.6899,6.6899,6.6899,6.7044,6.7173,6.6709,6.6709,6.6899,6.6899,6.6899,6.6899,6.6899,6.6899,6.6986,6.7422,6.7567,6.7654,6.8073,6.8143,6.8276,6.8729,6.8816,6.899,6.9612,6.974,6.9827,7.003,7.0059,7.0059,7.0059,7.0059,7.0146,7.0349,7.0064,6.9542,6.8903,6.8421,6.8143,6.8143,6.8143,6.8143,6.8143,6.8143,6.7986,6.7596,6.7567,6.7364,6.6928,6.6899,6.6899,6.6899,6.6899,6.6899,6.6899,6.6899,6.6899,6.6899,6.6899,6.6899,0.0,5.0761,5.101,5.1427,5.1553,5.1682,5.2309,5.2736,5.3127,5.3516,5.4266,5.5102,5.5933,5.657,5.7134,5.7586,5.8192,5.8773,5.9167,6.0376,6.1466,6.2052,6.3234,0.0,0.0,0.0,0.0,6.4371,6.4764,6.5012,6.5012,6.5012,6.5099,6.5315,6.5315,6.5431,6.568,6.607,6.6257,6.6257,6.668,6.7015,6.7248,6.7248,6.7364,6.758,6.758,6.758,6.758,6.758,6.758,6.758,6.758,6.7741,6.7945,6.7945,6.8351,6.8741,6.7654,6.7393,6.758,6.758,6.758,6.758,6.758,6.7741,6.8032,6.8467,6.8729,6.9002,6.9391,6.9478,6.9595,7.0018,7.0105,7.0221,7.061,7.0697,7.0697,7.0697,7.0697,7.0697,7.0697,7.0901,7.1063,7.1063,7.0732,7.0384,7.0134,6.9757,6.9478,6.9478,6.9478,6.9478,6.9478,6.9478,6.9304,6.8915,6.87,6.838,6.7945,6.7696,6.758,6.758,6.758,6.758,6.758,6.758,6.758,6.758,6.758,6.758,5.144,5.1349,5.1239,5.2416,5.2701,5.2857,5.3461,5.3589,5.3619,5.3646,5.4655,5.5579,0.0,0.0,5.6978,5.8193,5.8904,5.9726,6.0882,6.2208,6.3261,0.0,0.0,0.0,0.0,0.0,0.0,6.5012,0.0,6.5012,6.5041,6.5041,6.5315,6.5922,6.5951,6.6257,6.6899,6.6928,6.6957,6.6986,6.6986,6.7335,6.7945,6.7945,6.8276,6.8869,6.8869,6.8869,6.8881,6.8881,6.8881,6.8881,6.8881,6.9292,6.9832,6.9832,7.0192,7.0436,6.8654,6.8421,6.8881,6.8881,6.8881,6.8881,6.8881,6.935,6.9832,6.9832,7.025,7.0697,7.0697,7.0697,7.0726,7.0726,7.0755,7.0755,7.0784,7.0813,7.0813,7.0813,7.0813,7.0813,7.0813,7.1324,7.1766,7.1766,7.1766,7.1516,7.0842,7.0726,7.0697,7.0697,7.0697,7.0697,7.0697,7.0697,7.0697,7.0697,7.0163,6.9832,6.9832,6.9234,6.8881,6.8881,6.8881,6.8881,6.8881,6.8881,6.8881,6.8881,6.8881,6.8881,5.1052,5.1347,5.1761,5.2521,5.2692,5.2862,5.3461,5.3589,5.3727,5.4177,5.5285,5.6464,0.0,0.0,0.0,5.9664,6.022,0.0,6.0391,6.1416,0.0,6.2511,0.0,6.3427,6.4118,6.4167,0.0,0.0,6.5012,6.5199,6.5648,6.5677,6.5967,6.6622,6.6651,6.6725,6.6899,6.7393,6.787,6.8318,6.8318,6.8405,6.8579,6.8579,6.8944,6.9542,6.9542,6.9815,7.0233,7.0233,7.0233,7.0233,7.0233,7.032,7.0465,7.0465,7.0552,7.0639,7.0146,7.0088,7.0233,7.0233,7.0233,7.0233,7.0233,7.032,7.0465,7.0465,7.0581,7.0697,7.0697,7.0697,7.0813,7.1342,7.1458,7.1574,7.2003,7.2119,7.2119,7.2119,7.2119,7.2119,7.2119,7.2282,7.2369,7.2369,7.2369,7.2137,7.1516,7.1005,7.0697,7.0697,7.0697,7.0697,7.0697,7.0697,7.0697,7.0697,7.0552,7.0465,7.0465,7.032,7.0233,7.0233,7.0233,7.0233,7.0233,7.0233,7.0233,7.0233,7.0233,7.0233,5.1557,5.1949,5.2356,5.2925,5.3103,5.3266,5.3863,5.3987,5.4253,5.5132,5.6351,0.0,0.0,0.0,0.0,0.0,0.0,0.0,6.0847,6.1746,6.245,0.0,6.3138,0.0,6.4325,6.439,6.4666,0.0,6.5402,6.5531,6.5864,6.617,6.6651,6.7306,6.7335,6.748,6.7725,6.8102,6.8625,6.9234,6.9234,6.9362,6.9635,6.9635,6.9827,7.0192,0.0,7.0395,7.0697,7.0697,7.0697,7.0697,7.0697,7.0871,7.115,7.115,7.1324,7.1539,7.1539,7.1539,7.1452,7.0871,7.0697,7.0697,7.0697,7.0918,7.115,7.115,7.1324,7.1539,7.1539,7.1539,7.1626,7.201,7.2097,7.2195,7.2526,7.2584,7.2584,7.2584,7.2584,7.2584,7.2584,7.2584,7.2584,7.2584,7.2584,7.2468,7.2137,7.176,7.1539,7.1539,7.1539,7.1539,7.1539,7.1539,7.1539,7.1539,7.1295,7.115,7.115,7.0842,7.0697,7.0697,7.0697,7.0697,7.0697,7.0697,7.0697,7.0697,7.0697,7.0697,5.241,5.2763,5.2953,5.3483,5.3646,5.3863,5.4367,5.4557,5.4971,5.6132,0.0,5.8536,5.9254,5.9418,5.9829,6.1028,0.0,6.0527,6.1727,6.2394,6.2957,6.3549,6.3712,6.4005,6.4647,6.4878,6.5248,6.5864,6.6067,6.6154,6.6154,6.6709,6.7335,6.8003,6.8032,6.8305,6.8927,6.8927,6.9246,6.9919,6.9919,7.0192,7.0697,7.0697,7.0755,7.0842,0.0,0.0,7.0959,7.0959,7.0959,7.0959,7.0959,7.1324,7.1806,7.1806,7.2137,7.2584,7.2584,7.2584,7.241,7.1307,7.0959,7.0959,7.0959,7.1353,7.1806,7.1806,7.2195,7.2584,7.2584,7.2584,7.2613,7.27,7.2729,7.2758,7.2816,7.2845,7.2845,7.2845,7.2845,7.2845,7.2845,7.2845,7.2845,7.2845,7.2845,7.2845,7.2845,7.27,7.2584,7.2584,7.2584,7.2584,7.2584,7.2584,7.2584,7.2584,7.2126,7.1806,7.1806,7.1266,7.0959,7.0959,7.0959,7.0959,7.0959,7.0959,7.0959,7.0959,7.0959,7.0959,5.2627,5.3076,5.3483,5.3565,5.3987,5.4367,5.4475,5.4894,0.0,0.0,0.0,5.8636,5.9742,6.0385,6.1025,6.1718,6.1218,6.1021,6.1795,0.0,6.2024,0.0,0.0,0.0,0.0,0.0,0.0,0.0,0.0,0.0,6.7551,6.7654,6.8015,6.8608,6.8637,6.8956,6.9629,6.9629,6.9931,7.0523,7.0523,7.061,7.0697,7.0697,7.1005,7.1516,0.0,0.0,7.2265,7.2265,7.2265,7.2265,7.2265,7.2323,7.2456,7.2456,7.2497,7.2584,7.2584,7.2584,7.2555,7.2352,7.2265,7.2265,7.2265,7.2352,7.2456,7.2456,7.2526,7.2584,7.2584,7.2584,7.2729,7.328,7.3425,7.3571,7.4064,7.4151,7.4151,7.4151,7.4151,7.4151,7.4151,7.4151,7.4151,7.4151,7.4151,7.4151,7.4151,7.3251,7.2584,7.2584,7.2584,7.2584,7.2584,7.2584,7.2584,7.2584,7.2497,7.2456,7.2456,7.2323,7.2265,7.2265,7.2265,7.2265,7.2265,7.2265,7.2265,7.2265,7.2265,7.2265,5.3076,5.3375,5.3592,5.3592,5.4068,5.4584,5.4894,0.0,0.0,0.0,0.0,5.9514,6.0464,6.1162,6.1838,6.2419,6.1599,6.1115,6.1753,6.1505,0.0,0.0,0.0,0.0,0.0,0.0,0.0,0.0,0.0,0.0,6.7887,6.8189,6.8654,6.9292,6.9321,6.9641,7.025,7.0279,7.0599,7.1208,7.1208,7.1382,7.1684,7.1684,7.1858,7.2166,0.0,0.0,0.0,7.2584,7.2584,7.2584,7.2584,7.2584,7.2584,7.2584,7.2816,7.3106,7.3106,7.3309,7.3571,7.3571,7.3135,7.2671,7.3019,7.3106,7.3193,7.3483,7.3571,7.3618,7.3618,7.3636,7.3705,7.4024,7.4082,7.4151,7.4459,7.4499,7.4499,7.4499,7.4499,7.4499,7.4499,7.4518,7.4518,7.4518,7.4499,7.4499,7.4499,7.3966,7.3571,7.3571,7.3571,7.3571,7.3571,7.3309,7.3106,7.3106,7.2787,7.2584,7.2584,7.2584,7.2584,7.2584,7.2584,7.2584,7.2584,7.2584,7.2584,7.2584,7.2584,7.2584,5.3483,5.3592,5.3619,5.3754,5.4258,5.484,5.5464,5.6061,0.0,0.0,0.0,6.0306,6.0967,6.1743,6.2482,0.0,6.2139,6.1448,6.175,6.1478,6.1336,0.0,0.0,0.0,0.0,0.0,0.0,0.0,0.0,0.0,0.0,6.8683,6.9263,6.9774,6.9919,7.0279,7.0901,7.0901,7.1237,7.1894,7.1894,7.2137,7.2584,7.2584,7.2584,7.2584,0.0,0.0,0.0,7.2584,7.2671,7.2816,7.2816,7.2874,7.299,7.3037,7.3356,7.3774,7.3774,7.4093,7.4499,7.4518,7.385,7.3106,7.3629,7.3774,7.389,7.4372,7.4499,7.4518,7.4565,7.4565,7.4594,7.4739,7.4855,7.4924,7.4924,7.4924,7.4924,7.4924,7.4924,7.4924,7.4924,7.4971,7.499,7.4924,7.4924,7.4924,7.4924,7.4924,7.4924,7.4924,7.4692,7.4518,7.4499,7.4082,7.3774,7.3774,7.3309,7.299,7.299,7.299,7.299,7.299,7.299,7.299,7.299,7.299,7.299,7.3037,7.299,7.299,5.3565,5.3592,5.3727,5.4285,5.4867,5.5475,5.6088,0.0,0.0,0.0,0.0,6.032,6.0991,6.2109,6.312,6.372,6.3185,6.2487,6.189,6.2309,6.2253,6.1029,0.0,0.0,0.0,0.0,0.0,0.0,0.0,0.0,0.0,6.935,6.9745,6.9803,7.0337,7.0947,7.1603,7.1603,7.1923,7.2526,7.2526,7.2555,7.2584,7.2584,7.2584,7.2584,0.0,0.0,0.0,7.2584,7.2961,7.3512,7.3512,7.3832,7.4343,7.4391,7.442,7.4412,7.4412,7.4441,7.4518,7.4565,7.4478,7.4343,7.4383,7.4412,7.4412,7.447,7.4499,7.4499,7.4518,7.4518,7.4663,7.5272,7.5871,7.6326,7.6326,7.6326,7.6326,7.6326,7.6326,7.6326,7.6326,7.6326,7.6326,7.6326,7.6326,7.6326,7.6326,7.6326,7.6326,7.6326,7.528,7.4565,7.4518,7.4459,7.4412,7.4412,7.4372,7.4343,7.4343,7.4343,7.4343,7.4343,7.4343,7.4343,7.4343,7.4343,7.4343,7.4409,7.4343,7.4343,5.3592,5.3592,5.3727,5.434,5.4948,5.5557,5.617,0.0,0.0,0.0,5.9333,6.0767,6.096,6.2393,6.3606,6.3863,6.3336,6.2952,6.3056,6.2576,6.2035,6.1461,0.0,0.0,0.0,0.0,0.0,0.0,0.0,0.0,0.0,0.0,7.0169,7.0924,7.1168,7.1586,7.2224,7.2224,7.2369,7.2584,7.2584,7.2584,7.2584,7.2584,7.2584,0.0,0.0,0.0,0.0,7.3193,7.3571,7.4122,7.4122,7.4267,7.4499,7.4518,7.4779,7.508,7.508,7.5359,7.5697,7.5745,7.5745,7.5639,7.5214,7.508,7.5185,7.5581,7.5697,7.5697,7.5697,7.5697,7.5755,7.6046,7.6326,7.65,7.65,7.65,7.65,7.65,7.65,7.65,7.65,7.65,7.65,7.65,7.65,7.65,7.65,7.65,7.65,7.65,7.6035,7.5745,7.5697,7.533,7.508,7.508,7.475,7.4565,7.4565,7.4518,7.4499,7.4499,7.4499,7.4499,7.4499,7.4499,7.4518,7.4518,7.4518,7.4296,5.3592,5.3727,5.3999,5.4638,5.522,5.5801,0.0,0.0,0.0,5.7993,5.9693,6.105,6.0927,6.2535,6.3908,6.3908,6.35,6.3352,6.3826,6.2874,6.2191,6.2358,0.0,0.0,0.0,0.0,0.0,0.0,0.0,0.0,0.0,0.0,7.0261,7.1661,7.1652,7.1953,7.2584,7.2584,7.2584,7.2584,7.2584,7.2584,7.2584,7.2584,0.0,0.0,0.0,0.0,0.0,7.3908,7.4256,7.4789,7.4789,7.4924,7.5098,7.5098,7.5388,7.5795,7.5795,7.6104,7.65,7.65,7.65,7.6413,7.5959,7.5795,7.5882,7.6384,7.65,7.65,7.65,7.65,7.65,7.65,7.65,7.65,7.65,7.65,7.65,7.65,7.65,7.65,7.65,7.65,7.65,7.65,7.65,7.65,7.65,7.65,7.65,7.65,7.65,7.65,7.65,7.6075,7.5795,7.5795,7.5407,7.5164,7.5164,7.5117,7.5098,7.5098,7.5098,7.4982,7.4789,7.4789,7.4673,7.4499,7.4499,7.4267,5.3592,5.4041,5.4638,5.5231,5.5828,5.6441,0.0,0.0,5.738,5.7993,5.9693,6.105,6.0927,6.2535,6.3908,6.3908,6.3891,6.3891,6.3908,6.3303,6.3111,0.0,0.0,0.0,0.0,0.0,0.0,0.0,0.0,0.0,0.0,0.0,7.0029,7.1655,7.1586,7.1848,7.2584,7.2584,7.2584,7.2584,7.2584,7.2584,7.2584,7.2584,0.0,0.0,0.0,0.0,0.0,7.4565,7.4942,7.5504,7.5504,7.5901,7.6471,7.6471,7.6471,7.65,7.65,7.65,7.65,7.65,7.65,7.65,7.65,7.65,7.65,7.65,7.65,7.65,7.65,7.65,7.65,7.65,7.65,7.65,7.65,7.65,7.65,7.65,7.65,7.65,7.65,7.65,7.65,7.65,7.65,7.65,7.65,7.65,7.65,7.65,7.65,7.65,7.65,7.65,7.65,7.65,7.6471,7.6471,7.6471,7.6471,7.6471,7.6471,7.6471,7.6133,7.5504,7.5504,7.5156,7.4499,7.4499,7.4499,5.4718,5.4661,5.4747,5.5762,5.649,5.7012,5.715,0.0,5.8037,5.8602,5.9588,6.0576,6.1369,6.2464,6.3352,6.3826,6.3908,6.3908,6.3908,0.0,0.0,6.3026,6.356,0.0,0.0,0.0,0.0,0.0,0.0,0.0,0.0,0.0,0.0,7.071,7.0689,7.0802,7.104,7.1559,7.183,7.1848,7.2351,7.2529,7.2371,0.0,0.0,0.0,0.0,0.0,0.0,7.3492,7.4203,7.5286,7.5286,7.5789,7.65,7.65,7.65,7.65,7.65,7.65,7.65,7.65,7.65,7.65,7.65,7.65,7.65,7.65,7.65,7.65,7.65,7.65,7.65,7.65,7.65,7.65,7.65,7.65,7.65,7.65,7.65,7.65,7.65,7.65,7.65,7.65,7.65,7.65,7.65,7.65,7.65,7.65,7.6075,7.6017,7.6471,7.65,7.65,7.65,7.65,7.65,7.65,7.6075,7.5824,7.5824,7.5359,7.504,7.4837,7.4837,7.4702,7.447,7.4082,7.389,0.0,5.531,5.5367,5.6124,5.6976,0.0,0.0,0.0,5.8641,5.8951,5.972,6.0546,6.1269,6.2236,6.3051,6.3451,6.3516,6.3614,6.3859,0.0,0.0,6.2605,0.0,0.0,0.0,0.0,0.0,0.0,0.0,0.0,0.0,0.0,0.0,6.9391,6.969,6.9989,7.0304,7.0802,7.1205,7.1486,7.1889,7.2167,0.0,0.0,0.0,0.0,0.0,0.0,0.0,7.3376,7.3929,7.477,7.5077,7.5516,7.6,7.6,7.6,7.5962,7.5659,7.5564,7.5602,7.5906,7.6227,7.65,7.65,7.65,7.65,7.65,7.65,7.65,7.65,7.65,7.65,7.65,7.65,7.65,7.65,7.65,7.65,7.65,7.65,7.6413,7.6162,7.6133,7.6046,7.5784,7.5755,7.5755,7.5755,7.5755,7.5755,7.5755,7.5359,7.5301,7.5745,7.5755,7.5755,7.5755,7.5755,7.5755,7.5755,7.533,7.5109,7.5109,7.4702,7.4383,7.4151,7.389,7.3774,7.3774,7.3396,7.3222,0.0,0.0,0.0,0.0,0.0,0.0,0.0,5.8218,0.0,5.9138,6.0027,6.0848,6.092,6.2018,6.2902,6.2902,6.2952,0.0,0.0,6.266,0.0,0.0,0.0,0.0,0.0,0.0,0.0,0.0,0.0,0.0,0.0,0.0,0.0,0.0,6.8636,6.9372,7.0119,7.0193,7.06,7.139,7.1267,7.1578,7.2258,0.0,0.0,0.0,0.0,0.0,0.0,7.3801,7.3868,7.3976,7.4732,7.5058,7.5116,7.5116,7.5116,7.502,7.4248,7.4035,7.421,7.5039,7.5849,7.65,7.65,7.65,7.65,7.65,7.65,7.65,7.65,7.65,7.65,7.65,7.6471,7.6442,7.6442,7.6384,7.6355,7.6355,7.6355,7.6162,7.5534,7.5428,7.5225,7.4586,7.4499,7.4499,7.4499,7.4499,7.4499,7.4499,7.4441,7.4459,7.4525,7.4518,7.4499,7.4499,7.4499,7.4499,7.4499,7.4459,7.4459,7.4459,7.4383,7.4093,7.3512,7.2903,7.2584,7.2584,7.2584,7.2584,0.0,0.0,0.0,0.0,0.0,0.0,0.0,5.8556,0.0,0.0,0.0,6.0607,6.2125,6.2687,6.2902,0.0,0.0,6.3336,6.2426,0.0,0.0,0.0,0.0,0.0,0.0,0.0,0.0,0.0,0.0,0.0,0.0,0.0,0.0,0.0,6.8083,6.8274,6.8465,6.9071,6.9707,7.034,7.0922,7.1444,0.0,0.0,0.0,0.0,0.0,0.0,0.0,7.2097,7.2449,7.3016,7.3213,7.3703,7.4268,7.4268,7.4268,7.4248,7.4054,7.4403,7.5058,7.5925,7.635,7.65,7.65,7.65,7.65,7.65,7.65,7.65,7.65,7.65,7.65,7.65,7.6104,7.5737,7.5737,7.5378,7.5048,7.4982,7.4982,7.4924,7.4779,7.475,7.4692,7.4499,7.4499,7.4499,7.4499,7.4499,7.4499,7.4499,7.4093,7.3803,7.385,7.4256,7.4499,7.4499,7.4499,7.4499,7.4499,7.4064,7.3803,7.3803,7.3309,7.299,7.2816,7.2671,7.2584,7.2584,7.2584,7.2584,0.0,0.0,0.0,0.0,0.0,0.0,0.0,5.8663,0.0,0.0,0.0,6.0993,6.1795,6.247,0.0,0.0,6.2692,0.0,0.0,0.0,6.2592,0.0,0.0,0.0,0.0,0.0,0.0,0.0,0.0,0.0,0.0,0.0,0.0,0.0,0.0,6.7892,6.7892,6.8624,6.9327,7.002,7.063,7.1247,0.0,0.0,0.0,0.0,0.0,0.0,7.1494,7.1494,7.1776,7.2189,7.254,7.2996,7.339,7.339,7.339,7.339,7.339,7.419,7.5211,7.5335,7.5602,7.5848,7.5579,7.5228,7.5153,7.6206,7.6297,7.6046,7.6046,7.5813,7.5581,7.5581,7.5301,7.5022,7.5022,7.4779,7.4518,7.4518,7.4518,7.443,7.4122,7.4093,7.3977,7.3658,7.3629,7.3629,7.3629,7.3629,7.3629,7.3629,7.3338,7.3135,7.3135,7.3425,7.3629,7.3629,7.3629,7.3629,7.3629,7.3309,7.3135,7.3135,7.2787,7.2584,7.2584,7.2584,7.2584,7.2584,7.2584,7.2584,0.0,0.0,0.0,0.0,0.0,0.0,0.0,0.0,0.0,0.0,0.0,6.1512,6.1046,6.1934,0.0,0.0,0.0,0.0,6.1602,6.2104,6.2728,0.0,0.0,0.0,0.0,0.0,0.0,0.0,0.0,0.0,0.0,0.0,0.0,0.0,0.0,0.0,6.8028,6.8535,6.9183,6.9967,7.0398,7.1011,7.1753,0.0,0.0,0.0,0.0,0.0,7.1494,7.1494,7.1494,7.1575,7.2249,7.2501,7.2501,7.2501,7.2501,7.2521,7.266,7.3561,7.459,7.403,7.4263,7.4668,7.4127,7.351,7.3375,7.5304,7.543,7.5007,7.5007,7.4573,7.4187,7.4298,7.4247,7.4226,7.4336,7.4267,7.4209,7.4209,7.4274,7.41,7.356,7.3454,7.3251,7.27,7.2584,7.2584,7.2584,7.2584,7.2584,7.2584,7.2584,7.2584,7.2584,7.2584,7.2584,7.2584,7.2584,7.2584,7.2584,7.2584,7.2584,7.2584,7.2584,7.2584,7.2584,7.2584,7.2584,7.2584,7.2584,7.2642,5.7269,5.7368,0.0,0.0,0.0,0.0,0.0,0.0,0.0,6.0471,0.0,0.0,0.0,6.1806,6.1749,0.0,0.0,0.0,0.0,0.0,0.0,0.0,0.0,0.0,0.0,0.0,0.0,0.0,0.0,0.0,0.0,0.0,0.0,0.0,0.0,0.0,0.0,6.8752,6.9109,6.9751,7.0312,7.093,7.1539,7.1527,0.0,0.0,0.0,0.0,7.1494,7.1494,7.1494,7.1514,7.1635,7.1695,7.1695,7.1695,7.1695,7.1796,7.2441,7.2545,7.2415,7.3044,7.2967,7.2631,7.2546,7.2442,7.2413,7.2745,7.2792,7.2707,7.2707,7.2632,7.2717,7.342,7.3139,7.2903,7.3589,7.328,7.2874,7.2874,7.2903,7.2892,7.2758,7.2758,7.2729,7.2613,7.2584,7.2584,7.2584,7.2584,7.2584,7.2584,7.2584,7.2584,7.2584,7.2584,7.2584,7.2584,7.2584,7.2584,7.2584,7.2584,7.2584,7.2584,7.2584,7.2584,7.2584,7.2584,7.2584,7.2584,7.2584,7.2903,5.7581,5.7292,5.699,0.0,0.0,0.0,0.0,0.0,0.0,0.0,0.0,0.0,0.0,0.0,6.158,0.0,0.0,0.0,0.0,0.0,0.0,0.0,0.0,0.0,0.0,0.0,0.0,0.0,0.0,0.0,0.0,0.0,0.0,0.0,0.0,0.0,0.0,6.9113,6.9601,7.0198,7.0795,7.1222,7.1494,7.1494,7.1494,0.0,0.0,7.1494,7.1494,7.1494,7.1494,7.1494,7.1494,7.1494,7.1467,7.1141,7.1285,7.1629,7.1221,7.1489,7.1996,7.1938,7.1724,7.1445,7.1102,7.0713,7.0294,6.9963,7.0749,7.1662,7.1662,7.1409,7.1371,7.217,7.1794,7.1503,7.229,7.2223,7.1866,7.1431,7.2028,7.2459,7.2064,7.2363,7.2584,7.2584,7.2584,7.2584,7.2584,7.2584,7.247,7.2046,7.1992,7.1992,7.1992,7.1992,7.2172,7.2566,7.2584,7.2584,7.2584,7.2584,7.2584,7.2584,7.2584,7.2584,7.2584,7.2584,7.2787,7.3135,7.3135,7.3483,5.7803,5.7307,5.6759,0.0,0.0,0.0,0.0,0.0,0.0,0.0,0.0,0.0,0.0,6.1234,0.0,0.0,0.0,0.0,0.0,0.0,0.0,0.0,0.0,0.0,0.0,0.0,0.0,0.0,0.0,0.0,0.0,0.0,0.0,0.0,0.0,0.0,0.0,6.9601,7.0144,7.0605,7.1222,7.1494,7.1494,7.1494,7.1494,7.1494,7.1494,7.1494,7.1494,7.1494,7.1494,7.1494,7.1494,7.1412,7.1222,7.0605,7.0777,7.1148,7.0062,7.0461,7.1278,7.0625,7.0311,7.011,6.9661,6.9083,6.8481,6.8028,6.9109,7.0425,7.0425,7.01,6.9951,7.0737,7.0489,7.0248,7.1059,7.1213,7.1059,7.0415,7.1249,7.1866,7.1333,7.1685,7.2118,7.2298,7.2334,7.2334,7.2334,7.2334,7.2046,7.1314,7.1213,7.1314,7.1468,7.1649,7.1992,7.2548,7.2584,7.2584,7.2584,7.2584,7.2584,7.2584,7.2758,7.2816,7.2816,7.299,7.3309,7.3803,7.3803,7.4122,5.7344,5.7292,5.7235,5.7259,0.0,0.0,0.0,0.0,0.0,0.0,0.0,0.0,0.0,6.0851,6.0841,0.0,0.0,0.0,0.0,0.0,0.0,0.0,0.0,0.0,0.0,0.0,0.0,0.0,0.0,0.0,0.0,0.0,0.0,0.0,0.0,0.0,0.0,0.0,7.0551,7.0605,7.1222,7.1494,7.1494,7.1494,7.1494,7.1494,7.1494,7.1494,7.1494,7.1494,7.1494,7.1494,7.1494,7.1168,7.0578,7.0008,6.9784,6.9843,6.9757,6.9408,6.9036,6.8978,6.8558,6.8096,6.8069,6.8004,6.7946,6.7892,6.8015,6.8138,6.8138,6.8111,6.8274,6.909,6.924,6.9409,7.0211,7.0378,7.0378,7.0304,7.0397,7.0452,7.0397,7.0434,7.0729,7.1478,7.1577,7.1577,7.1577,7.1577,7.1278,7.047,7.0378,7.0692,7.146,7.2118,7.253,7.2584,7.2584,7.2584,7.2584,7.2584,7.2584,7.2584,7.3193,7.3541,7.3541,7.4093,7.4383,7.4459,7.4459,7.4789,5.7203,5.7005,5.6773,5.7112,0.0,0.0,0.0,0.0,0.0,0.0,0.0,0.0,0.0,0.0,0.0,0.0,0.0,0.0,0.0,0.0,0.0,0.0,0.0,0.0,0.0,0.0,0.0,0.0,0.0,0.0,0.0,0.0,0.0,0.0,0.0,0.0,0.0,0.0,7.0795,7.1168,7.1385,7.1494,7.1494,7.1494,7.1494,7.1494,7.1494,7.1494,7.1494,7.1494,7.1494,7.1467,7.1087,7.0578,6.9981,6.9357,6.914,6.9105,6.8706,6.8435,6.8237,6.8237,6.8101,6.7892,6.7892,6.7892,6.7892,6.7892,6.7892,6.7892,6.7892,6.7892,6.8102,6.892,6.8731,6.8579,6.9391,6.9559,6.9409,6.8901,6.9634,7.0137,6.9653,6.997,7.0397,7.071,7.0765,7.0765,7.0765,7.0765,7.0452,6.9653,7.0007,7.023,7.0016,7.1177,7.1931,7.1931,7.2363,7.2584,7.2584,7.299,7.3222,7.3222,7.3832,7.4198,7.4216,7.4401,7.4702,7.5109,7.5109,7.5475,5.6927,5.6802,5.6668,0.0,0.0,0.0,0.0,0.0,0.0,0.0,0.0,0.0,0.0,0.0,0.0,0.0,0.0,0.0,0.0,0.0,0.0,0.0,0.0,0.0,0.0,0.0,0.0,0.0,0.0,0.0,0.0,0.0,0.0,0.0,0.0,0.0,0.0,0.0,7.1087,7.1494,7.1494,7.1494,7.1494,7.1494,7.1494,7.1494,7.1494,7.1494,7.1494,7.1304,7.1114,7.085,7.0272,6.9764,6.933,6.8752,6.8535,6.8454,6.8028,6.7892,6.7892,6.7892,6.7892,6.7892,6.7892,6.7892,6.7892,6.7892,6.7892,6.7892,6.7892,6.7892,6.8045,6.8598,6.8312,6.8045,6.8598,6.8731,6.856,6.8007,6.8806,6.9372,6.8825,6.9184,6.9634,6.9877,6.9933,6.9933,6.9933,6.9933,6.9615,6.8825,6.9447,6.9709,6.9165,7.0331,7.1298,7.1754,7.2273,7.2652,7.2903,7.3367,7.3687,7.389,7.4499,7.4837,7.4884,7.5058,7.5359,7.5824,7.5824,7.6075,5.6487,5.6727,5.7193,0.0,0.0,0.0,0.0,0.0,0.0,0.0,0.0,0.0,0.0,0.0,0.0,0.0,0.0,0.0,0.0,0.0,0.0,0.0,0.0,0.0,0.0,0.0,0.0,0.0,0.0,0.0,0.0,0.0,0.0,0.0,0.0,0.0,0.0,0.0,7.1494,7.1494,7.1494,7.1494,7.1494,7.1494,7.1494,7.1494,7.1494,7.1494,7.144,7.0822,7.0253,6.9628,6.9051,6.8807,6.8725,6.8128,6.7892,6.7892,6.7892,6.7892,6.7892,6.7892,6.7892,6.7892,6.7892,6.7892,6.7892,6.7892,6.7892,6.7892,6.7892,6.7892,6.7892,6.7892,6.7892,6.7892,6.7892,6.7892,6.7892,6.7892,6.7892,6.7892,6.7892,6.7892,6.8179,6.8976,6.909,6.909,6.909,6.909,6.8787,6.7988,6.8636,6.9108,6.909,6.984,7.0891,7.229,7.2392,7.277,7.3581,7.36,7.389,7.4499,7.5185,7.5515,7.5515,7.6162,7.65,7.65,7.65,7.65,5.6476,5.6746,5.7213,5.7211,0.0,0.0,0.0,0.0,0.0,0.0,0.0,0.0,0.0,0.0,0.0,0.0,0.0,0.0,0.0,0.0,0.0,0.0,0.0,0.0,0.0,0.0,0.0,0.0,0.0,0.0,0.0,0.0,0.0,0.0,0.0,0.0,0.0,0.0,0.0,7.1494,7.1494,7.1494,7.1494,7.1494,7.1494,7.1494,7.1494,7.1277,7.0822,7.0225,6.9601,6.9051,6.8861,6.8535,6.8155,6.7973,6.7892,6.7892,6.7892,6.7892,6.7892,6.7892,6.7892,6.7892,6.7892,6.7892,6.7892,6.7892,6.7892,6.7892,6.7892,6.7892,6.7892,6.7892,6.7892,6.7892,6.7892,6.7892,6.7892,6.7892,6.7892,6.7892,6.7892,6.7892,6.7988,6.8217,6.8255,6.8255,6.8255,6.8255,6.816,6.793,6.8636,6.9047,6.8886,7.0152,7.1044,7.1319,7.2462,7.3449,7.422,7.4673,7.5022,7.5196,7.5871,7.591,7.5296,7.6102,7.617,7.5592,7.6208,7.65,5.6404,5.6743,5.719,5.719,5.7841,5.8682,5.9524,0.0,0.0,0.0,0.0,0.0,0.0,0.0,0.0,0.0,0.0,0.0,0.0,0.0,0.0,0.0,0.0,0.0,0.0,0.0,0.0,0.0,0.0,0.0,0.0,0.0,0.0,0.0,0.0,0.0,0.0,0.0,0.0,0.0,7.1494,7.1494,7.1494,7.1494,7.1494,7.1494,7.125,7.068,6.9865,6.9493,6.8997,6.8454,6.8454,6.8237,6.7892,6.7892,6.7892,6.7892,6.7892,6.7892,6.7892,6.7892,6.7892,6.7892,6.7892,6.7892,6.7892,6.7892,6.7892,6.7892,6.7892,6.7892,6.7892,6.7892,6.7892,6.7892,6.7892,6.7892,6.7892,6.7892,6.7892,6.7892,6.7892,6.7892,6.7892,6.7892,6.7892,6.7892,6.7892,6.7892,6.7892,6.7892,6.8569,6.8919,6.8818,6.9906,7.0792,7.1227,7.2534,7.3576,7.4275,7.4766,7.5136,7.5367,7.5458,7.5259,7.4712,7.5259,7.5259,7.4732,7.5278,7.5507,5.6289,5.6739,5.719,5.719,5.8096,0.0,6.0501,6.0817,0.0,0.0,0.0,0.0,0.0,0.0,0.0,0.0,0.0,0.0,0.0,0.0,0.0,0.0,0.0,0.0,0.0,0.0,0.0,0.0,0.0,0.0,0.0,0.0,0.0,0.0,0.0,0.0,0.0,0.0,0.0,0.0,0.0,7.1494,7.1494,7.1494,7.1467,7.1385,7.0714,6.9811,6.8807,6.8725,6.84,6.7892,6.7892,6.7892,6.7892,6.7892,6.7892,6.7892,6.7892,6.7892,6.7892,6.7892,6.7892,6.7892,6.7892,6.7892,6.7892,6.7892,6.7892,6.7892,6.7892,6.7892,6.7892,6.7892,6.7892,6.7892,6.7892,6.7892,6.7892,6.7892,6.7892,6.7892,6.7892,6.7892,6.7892,6.7892,6.7892,6.7892,6.7892,6.7946,6.7973,6.7973,6.8535,6.8888,6.897,6.9544,7.045,7.1686,7.2678,7.3395,7.3851,7.4201,7.4611,7.5096,7.4365,7.3957,7.3879,7.3957,7.3957,7.3879,7.3957,7.3996,5.6289,5.6739,5.719,5.719,5.8096,5.9317,6.0501,6.0817,6.0817,0.0,0.0,0.0,0.0,0.0,0.0,0.0,0.0,0.0,0.0,0.0,0.0,0.0,0.0,0.0,0.0,0.0,0.0,0.0,0.0,0.0,0.0,0.0,0.0,0.0,0.0,0.0,0.0,0.0,0.0,0.0,7.1494,7.1494,7.1494,7.1494,7.125,7.0714,6.9648,6.9051,6.8752,6.8291,6.8,6.7892,6.7892,6.7892,6.7892,6.7892,6.7892,6.7892,6.7892,6.7892,6.7892,6.7892,6.7892,6.7892,6.7892,6.7892,6.7892,6.7892,6.7892,6.7892,6.7892,6.7892,6.7892,6.7892,6.7892,6.7892,6.7892,6.7892,6.7892,6.7892,6.7892,6.7892,6.7892,6.7892,6.7892,6.7892,6.7892,6.7892,6.7892,6.8318,6.8617,6.8617,6.914,6.971,7.0171,7.092,7.1426,7.1551,7.2987,7.3544,7.2996,7.4262,7.4762,7.4268,7.4074,7.3645,7.2976,7.3664,7.3645,7.2996,7.3664,7.3996,5.6564,5.6973,5.7353,5.7923,5.8747,5.9687,6.06,6.0817,6.0817,0.0,0.0,0.0,0.0,0.0,0.0,0.0,0.0,0.0,0.0,0.0,0.0,0.0,0.0,0.0,0.0,0.0,0.0,0.0,0.0,0.0,0.0,0.0,0.0,0.0,0.0,0.0,7.1032,7.0657,7.0839,7.1474,7.0819,7.0704,7.1087,7.1087,7.0598,6.9702,6.9078,6.8644,6.8345,6.8028,6.7892,6.7892,6.7892,6.7892,6.7892,6.7892,6.7892,6.7892,6.7892,6.7892,6.7892,6.7892,6.7892,6.7892,6.7892,6.7892,6.7892,6.7892,6.7892,6.7892,6.7892,6.7892,6.7892,6.7892,6.7892,6.7892,6.7892,6.7892,6.7892,6.7892,6.7892,6.7892,6.7892,6.7892,6.7892,6.7892,6.7892,6.8,6.8291,6.8617,6.8915,6.9194,6.9764,7.0253,7.0578,7.1241,7.1601,7.1487,7.2687,7.2996,7.2169,7.3331,7.382,7.339,7.3004,7.2588,7.2129,7.2588,7.2568,7.2149,7.2588,7.2806,5.6918,5.7271,5.7624,5.872,5.9453,6.0067,6.0654,6.0817,6.0817,0.0,0.0,0.0,0.0,0.0,0.0,0.0,0.0,0.0,0.0,0.0,0.0,0.0,0.0,0.0,0.0,0.0,0.0,0.0,0.0,0.0,0.0,0.0,0.0,0.0,0.0,7.0161,7.1123,6.9995,6.9995,7.115,7.0093,6.9889,7.0443,7.0334,6.9737,6.878,6.8698,6.8372,6.7892,6.7892,6.7892,6.7892,6.7892,6.7892,6.7892,6.7892,6.7892,6.7892,6.7892,6.7892,6.7892,6.7892,6.7892,6.7892,6.7892,6.7892,6.7892,6.7892,6.7892,6.7892,6.7892,6.7892,6.7892,6.7892,6.7892,6.7892,6.7892,6.7892,6.7892,6.7892,6.7892,6.7892,6.7892,6.7892,6.7946,6.8028,6.8055,6.8272,6.8888,6.9051,6.9295,6.9799,7.0388,7.0741,7.0741,7.1222,7.1494,7.1494,7.2129,7.2189,7.1534,7.2149,7.2481,7.2481,7.1829,7.1494,7.1494,7.1494,7.1494,7.1494,7.1494,7.1494,5.7,5.757,5.814,5.8829,5.9453,6.0067,6.0654,0.0,6.0817,0.0,0.0,0.0,0.0,0.0,0.0,0.0,0.0,0.0,0.0,0.0,0.0,0.0,0.0,0.0,0.0,0.0,0.0,0.0,0.0,0.0,0.0,0.0,6.8462,6.9663,6.969,0.0,6.968,6.9495,6.9495,6.968,7.0206,7.0209,6.9799,6.9295,6.8942,6.878,6.8264,6.7973,6.7892,6.7892,6.7892,6.7892,6.7892,6.7892,6.7892,6.7892,6.7892,6.7892,6.7892,6.7892,6.7892,6.7892,6.7892,6.7892,6.7892,6.7892,6.7892,6.7892,6.7892,6.7892,6.7892,6.7892,6.7892,6.7892,6.7892,6.7892,6.7892,6.7892,6.7892,6.7892,6.7892,6.7892,6.7892,6.7892,6.8082,6.859,6.8671,6.8915,6.9493,7.0036,7.0388,7.047,7.1032,7.1385,7.1385,7.144,7.1494,7.1494,7.1595,7.1615,7.1494,7.1595,7.1655,7.1655,7.1554,7.1494,7.1494,7.1494,7.1494,7.1494,7.1494,7.1494,5.7054,5.7895,5.8682,5.8937,5.9714,6.0474,6.0735,6.0817,6.0817,0.0,0.0,0.0,0.0,0.0,0.0,0.0,0.0,0.0,0.0,0.0,0.0,0.0,0.0,0.0,0.0,0.0,0.0,0.0,0.0,0.0,0.0,6.7527,6.8125,6.8639,6.9328,0.0,6.9412,6.9391,6.9233,6.889,6.9723,6.9409,6.8138,6.8233,6.8318,6.8291,6.8,6.7892,6.7892,6.7892,6.7892,6.7892,6.7892,6.7892,6.7892,6.7892,6.7892,6.7892,6.7892,6.7892,6.7892,6.7892,6.7892,6.7892,6.7892,6.7892,6.7892,6.7892,6.7892,6.7892,6.7892,6.7892,6.7892,6.7892,6.7892,6.7892,6.7892,6.7892,6.7892,6.7892,6.7892,6.7892,6.7892,6.8182,6.8481,6.8752,6.9105,6.952,7.0117,7.0443,7.0714,7.1087,7.1331,7.1494,7.1494,7.1494,7.1494,7.1494,7.1494,7.1494,7.1494,7.1494,7.1494,7.1494,7.1494,7.1494,7.1494,7.1494,7.1494,7.1494,7.1494,7.1494,5.7271,5.8194,5.9046,5.9182,6.0012,6.0817,6.0817,0.0,6.0817,0.0,0.0,0.0,0.0,0.0,0.0,0.0,0.0,0.0,0.0,0.0,0.0,0.0,0.0,0.0,0.0,0.0,0.0,0.0,0.0,0.0,6.608,6.69,6.7453,6.7574,6.8645,6.9027,6.8679,6.8482,6.8081,6.7535,6.8311,6.7887,6.6421,6.675,6.692,6.6958,6.7623,6.7892,6.7892,6.7892,6.7892,6.7892,6.7892,6.7892,6.7892,6.7892,6.7892,6.7892,6.7892,6.7892,6.7892,6.7892,6.7892,6.7892,6.7892,6.7892,6.7892,6.7892,6.7892,6.7892,6.7892,6.7892,6.7892,6.7892,6.7892,6.7892,6.7892,6.7892,6.7892,6.7892,6.7892,6.7946,6.8101,6.8508,6.8888,6.9214,6.9628,7.0144,7.0741,7.0822,7.1005,7.144,7.1494,7.1494,7.1494,7.1494,7.1494,7.1494,7.1494,7.1494,7.1494,7.1494,7.1494,7.1494,7.1494,7.1494,7.1494,7.1494,7.1494,7.1494,7.1494,7.1494,5.7885,5.852,5.9127,5.9714,6.0338,6.0817,6.0817,0.0,0.0,0.0,0.0,0.0,0.0,0.0,0.0,0.0,0.0,0.0,0.0,0.0,0.0,0.0,0.0,0.0,0.0,0.0,0.0,0.0,0.0,0.0,6.608,6.6054,6.6364,6.6932,6.7567,6.7494,6.6642,6.5956,6.5335,6.4808,6.5554,6.5611,6.5005,6.446,6.4203,6.4343,6.6815,6.7892,6.7892,6.7892,6.7892,6.7892,6.7892,6.7892,6.7892,6.7892,6.7892,6.7892,6.7892,6.7892,6.7892,6.7892,6.7892,6.7892,6.7892,6.7892,6.7892,6.7892,6.7892,6.7892,6.7892,6.7892,6.7892,6.7892,6.7892,6.7892,6.7892,6.7892,6.7892,6.7892,6.7892,6.8082,6.8644,6.878,6.9187,7.0334,7.0524,7.0768,7.1385,7.144,7.1467,7.1494,7.1494,7.1494,7.1494,7.1494,7.1494,7.1494,7.1494,7.1494,7.1494,7.1494,7.1494,7.1494,7.1494,7.1494,7.1494,7.1494,7.1494,7.1494,7.1494,7.1494,5.7939,5.8547,5.9127,5.9768,6.0338,6.0817,6.0817,6.0817,6.0817,0.0,0.0,0.0,0.0,0.0,0.0,0.0,0.0,0.0,0.0,0.0,0.0,0.0,0.0,0.0,0.0,0.0,0.0,0.0,0.0,0.0,6.4783,6.5542,6.5507,6.4439,6.5734,6.6641,6.7067,6.5631,6.5046,6.5309,6.5226,6.4434,6.3126,6.3716,6.3559,6.2864,6.4643,6.5398,6.5457,6.6328,6.6686,6.6764,6.7584,6.7892,6.7892,6.7892,6.7892,6.7892,6.7892,6.7892,6.7892,6.7892,6.7892,6.7892,6.7892,6.7892,6.7892,6.7892,6.7892,6.7892,6.7892,6.7892,6.7892,6.7892,6.7892,6.7892,6.7892,6.7892,6.7892,6.7892,6.821,6.8562,6.8752,6.9458,7.011,7.0524,7.0951,7.1277,7.1467,7.1494,7.1494,7.1494,7.1494,7.1494,7.1494,7.1494,7.1494,7.1494,7.1494,7.1494,7.1494,7.1494,7.1494,7.1494,7.1494,7.1494,7.1494,7.1494,7.1494,7.1494,7.1494,7.1494,5.8167,5.8693,5.9182,6.0012,6.0501,6.0817,6.0817,6.0817,6.0817,0.0,0.0,0.0,0.0,0.0,0.0,0.0,0.0,0.0,0.0,0.0,0.0,0.0,0.0,0.0,0.0,0.0,0.0,0.0,0.0,0.0,6.3438,6.4223,6.4234,6.329,6.4391,6.5583,6.6716,6.4871,6.409,6.4383,6.3847,6.2821,6.1498,6.2338,6.2256,6.154,6.2808,6.3861,6.4743,6.5641,6.5995,6.6139,6.7411,6.7642,6.7307,6.7738,6.7892,6.7892,6.7892,6.7892,6.7892,6.7892,6.7892,6.7892,6.7892,6.7892,6.7892,6.7892,6.7892,6.7892,6.7892,6.7892,6.7892,6.7892,6.7892,6.7892,6.7892,6.7892,6.7946,6.8155,6.8535,6.8942,6.9322,7.0063,7.066,7.085,7.125,7.1494,7.1494,7.1494,7.1494,7.1494,7.1494,7.1494,7.1494,7.1494,7.1494,7.1494,7.1494,7.1494,7.1494,7.1494,7.1494,7.1494,7.1494,7.1494,7.1494,7.1494,7.1494,7.1494,7.1494,7.1494,0.0,0.0,0.0,0.0,0.0,0.0,6.0817,0.0,6.08,0.0,0.0,0.0,0.0,0.0,0.0,0.0,0.0,0.0,0.0,0.0,0.0,0.0,0.0,0.0,0.0,0.0,0.0,0.0,0.0,6.3392,6.2174,6.2071,6.2548,6.3661,6.3672,6.4193,6.5304,6.3491,6.2333,6.1782,6.1227,6.0697,6.0192,6.0192,6.0192,6.0276,6.1519,6.3519,6.5877,6.5917,6.5917,6.5995,6.7288,6.7036,6.6093,6.7365,6.7834,6.7834,6.7834,6.7834,6.7834,6.7834,6.7834,6.7853,6.7892,6.7892,6.7892,6.7892,6.7892,6.7892,6.7892,6.7892,6.7892,6.7892,6.7892,6.7892,6.7892,6.7892,6.8101,6.8698,6.8807,6.9214,7.0408,7.0605,7.0822,7.1412,7.1494,7.1494,7.1494,7.1494,7.1494,7.1494,7.1494,7.1494,7.1494,7.1494,7.1494,7.1494,7.1494,7.1494,7.1494,7.1494,7.1494,7.1494,7.1494,7.1494,7.1494,7.1494,7.1494,7.1494,7.1494,7.1494,5.8774,0.0,0.0,0.0,0.0,0.0,0.0,0.0,0.0,0.0,0.0,0.0,0.0,0.0,0.0,0.0,0.0,0.0,0.0,0.0,0.0,0.0,0.0,0.0,0.0,0.0,0.0,0.0,0.0,6.2481,6.2133,6.1229,6.1049,6.175,6.2145,6.2657,6.3358,6.2459,6.1948,6.1802,6.0842,6.0337,6.0192,6.0192,6.0192,6.0213,6.0566,6.1664,6.3255,6.4183,6.4022,6.3316,6.4583,6.4862,6.4703,6.6034,6.653,6.653,6.653,6.653,6.653,6.653,6.653,6.6706,6.7623,6.7892,6.7892,6.7892,6.7892,6.7892,6.7892,6.7892,6.7892,6.7892,6.7892,6.7892,6.7892,6.8237,6.859,6.878,6.914,6.971,7.047,7.0978,7.1304,7.1467,7.1494,7.1494,7.1494,7.1494,7.1494,7.1494,7.1494,7.1494,7.1494,7.1494,7.1494,7.1494,7.1494,7.1494,7.1494,7.1494,7.1494,7.1494,7.1494,7.1494,7.1494,7.1494,7.1494,7.1494,7.1494,7.1494,0.0,0.0,0.0,0.0,0.0,0.0,6.0817,6.0817,6.0601,0.0,0.0,0.0,0.0,0.0,0.0,0.0,0.0,0.0,0.0,0.0,0.0,0.0,0.0,0.0,0.0,0.0,0.0,0.0,6.1189,6.1312,6.1312,6.0587,6.0433,6.0983,6.1518,6.1951,6.2263,6.1951,6.1708,6.1465,6.0622,6.0192,6.0192,6.0192,6.0192,6.0234,6.0754,6.1104,6.1416,6.2686,6.2788,6.2236,6.3519,6.368,6.3438,6.5325,6.5641,6.5265,6.5799,6.5641,6.5265,6.5818,6.5995,6.6257,6.7527,6.7892,6.7892,6.7892,6.7892,6.7892,6.7892,6.7892,6.7892,6.7892,6.7892,6.7892,6.7892,6.8372,6.8861,6.9132,6.9656,7.028,7.085,7.1277,7.1494,7.1494,7.1494,7.1494,7.1494,7.1494,7.1494,7.1494,7.1494,7.1494,7.1494,7.1494,7.1494,7.1494,7.1494,7.1494,7.1494,7.1494,7.1494,7.1494,7.1494,7.1494,7.1494,7.1494,7.1494,7.1494,7.1494,7.1494,0.0,0.0,0.0,0.0,0.0,0.0,6.0817,6.0817,6.0755,0.0,0.0,0.0,0.0,0.0,0.0,0.0,0.0,0.0,0.0,0.0,0.0,0.0,0.0,0.0,0.0,0.0,6.1707,5.9746,5.9963,6.0192,6.0192,6.0192,6.0409,6.0911,6.1443,6.171,6.171,6.171,6.1467,6.1007,6.0478,6.0192,6.0192,6.0192,6.0192,6.0255,6.1395,6.125,6.0297,6.1436,6.1886,6.201,6.3134,6.289,6.2195,6.4663,6.4802,6.3962,6.514,6.4783,6.4002,6.5186,6.5562,6.5799,6.7075,6.7584,6.7719,6.7853,6.7892,6.7892,6.7892,6.7892,6.7892,6.7892,6.7892,6.7919,6.7973,6.8481,6.9078,6.9683,7.0225,7.0795,7.1412,7.1494,7.1494,7.1494,7.1494,7.1494,7.1494,7.1494,7.1494,7.1494,7.1494,7.1494,7.1494,7.1494,7.1494,7.1494,7.1494,7.1494,7.1494,7.1494,7.1494,7.1494,7.1494,7.1494,7.1494,7.1494,7.1494,7.1494,7.1494,7.1494,0.0,0.0,0.0,0.0,0.0,0.0,6.0817,6.0817,6.0532,0.0,0.0,0.0,0.0,0.0,0.0,0.0,0.0,0.0,0.0,0.0,0.0,0.0,0.0,0.0,0.0,0.0,5.9389,6.0755,6.0463,6.0192,6.0192,6.0192,6.024,6.0337,6.0866,6.1176,6.1176,6.1176,6.1082,6.1007,6.0478,6.0192,6.0192,6.0192,6.0192,6.0213,6.0441,6.0444,6.0213,6.0486,6.0566,6.0587,6.0837,6.0796,6.0754,6.2297,6.2706,6.2522,6.2763,6.2681,6.2497,6.2788,6.2869,6.3088,6.4383,6.5523,6.6589,6.7623,6.7892,6.7892,6.7892,6.7892,6.7892,6.7892,6.7892,6.8028,6.8535,6.9086,6.971,7.0307,7.0524,7.0795,7.1412,7.1494,7.1494,7.1494,7.1494,7.1494,7.1494,7.1494,7.1494,7.1494,7.1494,7.1494,7.1494,7.1494,7.1494,7.1494,7.1494,7.1494,7.1494,7.1494,7.1494,7.1494,7.1494,7.1494,7.1494,7.1494,7.1494,7.1494,7.1494,7.1494,0.0,0.0,0.0,6.0817,0.0,0.0,0.0,6.0817,6.0635,6.0021,0.0,0.0,0.0,0.0,0.0,0.0,0.0,0.0,0.0,0.0,0.0,0.0,0.0,0.0,0.0,0.0,5.9129,6.0204,5.9992,5.9928,6.0192,6.0192,6.0192,6.0192,6.0719,6.0887,6.0601,6.0863,6.0863,6.0601,6.0312,6.0192,6.0192,6.0192,6.0192,6.0192,6.0192,6.0192,6.0192,6.0192,6.0192,6.0192,6.0192,6.0192,6.036,6.1618,6.1701,6.1229,6.1886,6.168,6.127,6.1886,6.2113,6.2359,6.362,6.4922,6.6276,6.7546,6.7892,6.7758,6.7113,6.6958,6.6784,6.6113,6.5956,6.6114,6.6668,6.7275,6.8057,6.9314,6.9809,7.0327,7.1318,7.1494,7.1494,7.1494,7.1494,7.1494,7.1494,7.1494,7.1494,7.1494,7.1494,7.1494,7.1494,7.1494,7.1494,7.1494,7.1494,7.1494,7.1494,7.1494,7.1494,7.1494,7.1494,7.1494,7.1494,7.1494,7.1494,7.1494,7.1494,7.1494,0.0,0.0,0.0,0.0,0.0,6.0817,0.0,0.0,0.0,6.0817,0.0,0.0,0.0,0.0,0.0,0.0,0.0,0.0,0.0,0.0,0.0,0.0,0.0,0.0,0.0,0.0,5.9731,5.914,5.9278,5.9591,6.0024,6.0144,6.0192,6.0192,6.0601,6.0646,6.0192,6.0625,6.0625,6.0192,6.0192,6.0192,6.0192,6.0192,6.0192,6.0192,6.0192,6.0192,6.0192,6.0192,6.0192,6.0192,6.0192,6.0192,6.0318,6.1353,6.1084,6.036,6.1374,6.1042,6.0381,6.1395,6.1722,6.201,6.3539,6.4743,6.5936,6.7461,6.7719,6.7288,6.6276,6.5799,6.5345,6.4263,6.4002,6.4182,6.4827,6.536,6.6223,6.7953,6.8677,6.9536,7.1211,7.1494,7.1494,7.1494,7.1494,7.1494,7.1494,7.1494,7.1494,7.1494,7.1494,7.1494,7.1494,7.1494,7.1494,7.1494,7.1494,7.1494,7.1494,7.1251,7.0961,7.0717,7.0961,7.1109,7.1109,7.1373,7.1494,7.1494,7.1494,7.1494,0.0,0.0,0.0,0.0,6.0817,0.0,0.0,0.0,6.0817,6.0817,0.0,0.0,0.0,0.0,0.0,0.0,0.0,0.0,0.0,0.0,0.0,0.0,0.0,0.0,0.0,0.0,0.0,5.8165,5.8848,5.9422,5.9494,5.9952,6.0192,6.0192,6.024,6.0264,6.0192,6.0264,6.0264,6.0192,6.0192,6.0192,6.0192,6.0192,6.0192,6.0192,6.0192,6.0192,6.0192,6.0192,6.0192,6.0192,6.0192,6.0192,6.0213,6.036,6.0318,6.0213,6.0381,6.0318,6.0213,6.0381,6.0423,6.0858,6.3276,6.4103,6.4743,6.721,6.7075,6.6198,6.6061,6.5127,6.4183,6.4042,6.4002,6.4284,6.538,6.5636,6.6057,6.7302,6.7581,6.8451,7.1042,7.1494,7.1494,7.1494,7.1494,7.1494,7.1494,7.1494,7.1494,7.1494,7.1494,7.1494,7.1494,7.1494,7.1494,7.1494,7.1494,7.1494,7.1494,7.0302,6.9101,6.7906,6.9013,6.9639,6.9639,7.088,7.1494,7.1494,7.1494,7.1494,0.0,0.0,0.0,0.0,0.0,0.0,0.0,0.0,6.0817,0.0,0.0,0.0,0.0,0.0,0.0,0.0,0.0,0.0,0.0,0.0,0.0,0.0,0.0,0.0,0.0,0.0,0.0,0.0,0.0,5.9796,5.9419,5.9903,6.0192,6.0192,6.0192,6.0192,6.0192,6.0192,6.0192,6.0192,6.0192,6.0192,6.0192,6.0192,6.0192,6.0192,6.0192,6.0192,6.0192,6.0192,6.0192,6.0192,6.0192,6.0192,6.0192,6.0192,6.0192,6.0192,6.0192,6.0192,6.0192,6.0192,6.0192,6.0524,6.2359,6.291,6.3271,6.512,6.5239,6.4663,6.3942,6.3336,6.2706,6.1973,6.2035,6.248,6.327,6.3691,6.4346,6.5954,6.6229,6.6848,6.8784,6.9763,7.0282,7.0282,7.0981,7.1494,7.1494,7.1494,7.1494,7.1494,7.1494,7.1494,7.1494,7.1494,7.1494,7.1494,7.0737,6.9927,6.9137,6.8555,6.799,6.7395,6.7969,6.8241,6.8241,6.8826,6.9116,6.9137,6.9933,6.9845,6.0817,0.0,0.0,0.0,0.0,0.0,0.0,0.0,0.0,0.0,0.0,0.0,0.0,0.0,0.0,0.0,0.0,0.0,0.0,0.0,0.0,0.0,0.0,0.0,0.0,0.0,0.0,0.0,5.9378,0.0,5.922,5.9687,6.0048,6.0192,6.0192,6.0192,6.0192,6.0192,6.0192,6.0192,6.0192,6.0192,6.0192,6.0192,6.0192,6.0192,6.0192,6.0192,6.0192,6.0192,6.0192,6.0192,6.0192,6.0192,6.0192,6.0192,6.0192,6.0192,6.0192,6.0192,6.0192,6.0192,6.0192,6.0444,6.1701,6.2113,6.2379,6.366,6.3761,6.3276,6.2359,6.1845,6.1353,6.0423,6.0622,6.1152,6.1686,6.2215,6.3026,6.4538,6.4833,6.5112,6.6101,6.7716,6.8997,6.935,7.0261,7.1062,7.1453,7.1494,7.1494,7.1494,7.1494,7.1494,7.1494,7.1494,7.1332,7.094,6.9974,6.8618,6.6933,6.6869,6.6678,6.6293,6.6657,6.6869,6.6869,6.7205,6.7205,6.6891,6.822,6.8325,0.0,0.0,0.0,0.0,0.0,0.0,0.0,0.0,6.0817,0.0,0.0,0.0,0.0,0.0,0.0,0.0,0.0,0.0,0.0,0.0,0.0,0.0,0.0,0.0,0.0,0.0,0.0,0.0,5.93,0.0,5.8645,5.9113,5.9663,6.0168,6.0192,6.0192,6.0192,6.0192,6.0192,6.0192,6.0192,6.0192,6.0192,6.0192,6.0192,6.0192,6.0192,6.0192,6.0192,6.0192,6.0192,6.0192,6.0192,6.0192,6.0192,6.0192,6.0192,6.0192,6.0192,6.0192,6.0192,6.0192,6.0192,6.0444,6.1701,6.2113,6.2379,6.366,6.3113,6.2154,6.2113,6.1187,6.0255,6.0213,6.0622,6.1152,6.1686,6.2215,6.2766,6.3272,6.339,6.339,6.341,6.5671,6.788,6.9205,6.9433,6.9974,7.1332,7.1494,7.1494,7.1494,7.1494,7.1494,7.1494,7.1494,7.092,6.9556,6.9412,6.82,6.5566,6.5458,6.4833,6.3454,6.4767,6.5458,6.5458,6.6763,6.6742,6.5501,6.6848,6.7437,0.0,0.0,5.9786,6.0601,0.0,0.0,0.0,0.0,0.0,0.0,0.0,0.0,0.0,0.0,0.0,0.0,0.0,0.0,0.0,0.0,0.0,0.0,0.0,0.0,0.0,0.0,0.0,5.8329,5.9057,5.9309,0.0,5.9113,5.9663,6.0168,6.0192,6.0192,6.0192,6.0192,6.0192,6.0192,6.0192,6.0192,6.0192,6.0192,6.0192,6.0192,6.0192,6.0192,6.0192,6.0192,6.0192,6.0192,6.0192,6.0192,6.0192,6.0192,6.0192,6.0192,6.0192,6.0192,6.0192,6.0192,6.0192,6.0276,6.0712,6.0837,6.0942,6.1353,6.1191,6.0837,6.0837,6.0503,6.0288,6.067,6.113,6.1684,6.2191,6.272,6.3107,6.3253,6.3301,6.3301,6.3301,6.4068,6.548,6.7712,6.8826,6.9912,7.1312,7.1494,7.1494,7.1494,7.1494,7.1103,7.02,6.9308,6.82,6.6827,6.6742,6.5932,6.4092,6.4026,6.3785,6.3324,6.3763,6.4026,6.4026,6.4484,6.4462,6.4026,6.4484,6.4677,6.0817,6.0229,0.0,0.0,0.0,0.0,0.0,0.0,0.0,0.0,0.0,0.0,0.0,0.0,0.0,0.0,0.0,0.0,0.0,0.0,0.0,0.0,0.0,0.0,0.0,0.0,6.0048,5.8348,5.9312,5.9509,0.0,0.0,5.9374,5.9903,6.0096,6.0192,6.0192,6.0192,6.0192,6.0192,6.0192,6.0192,6.0192,6.0192,6.0192,6.0192,6.0192,6.0192,6.0192,6.0192,6.0192,6.0192,6.0192,6.0192,6.0192,6.0192,6.0192,6.0192,6.0192,6.0192,6.0192,6.0192,6.0192,6.0192,6.0192,6.0192,6.024,6.0433,6.0337,6.024,6.0433,6.0337,6.0337,6.0887,6.1419,6.1951,6.248,6.2963,6.3301,6.3301,6.3301,6.3301,6.3301,6.3301,6.4068,6.6358,6.7421,6.8497,6.9845,7.0056,7.0056,7.0056,7.0056,6.966,6.8763,6.7906,6.6848,6.548,6.5393,6.4767,6.3368,6.3301,6.3205,6.3059,6.3205,6.3227,6.3059,6.3227,6.3301,6.3301,6.3301,6.3301]},{"header":{"parameterUnit":"m.s-1","parameterCategory":1,"la1":30.6,"la2":29.2853,"lo1":-89.7004,"lo2":-87.6739,"dx":0.0162,"dy":0.0183,"nx":112,"ny":82,"refTime":"2023-02-13T06:00:00:Z","depth":0,"parameterNumber":3,"parameterNumberName":"V-component_of_WINDS"},"data":[0.0,0.0,0.0,0.0,0.0,0.0,0.0,0.0,0.0,0.0,0.0,0.0,0.0,0.0,0.0,0.0,0.0,0.0,0.0,0.0,0.0,0.0,0.0,0.0,0.0,0.0,0.0,0.0,0.0,0.0,0.0,0.0,0.0,0.0,0.0,0.0,0.0,0.0,0.0,0.0,0.0,0.0,0.0,0.0,0.0,0.0,0.0,0.0,0.0,0.0,0.0,0.0,0.0,0.0,0.0,0.0,0.0,0.0,0.0,0.0,0.0,0.0,0.0,0.0,0.0,0.0,0.0,0.0,0.0,0.0,0.0,0.0,0.0,0.0,0.0,0.0,0.0,0.0,0.0,0.0,0.0,0.0,0.0,0.0,0.0,0.0,0.0,0.0,0.0,0.0,0.0,3.6332,3.637,3.6603,3.7211,3.7167,3.7369,3.7994,0.0,0.0,0.0,0.0,0.0,0.0,0.0,0.0,0.0,0.0,0.0,0.0,0.0,0.0,0.0,0.0,0.0,0.0,0.0,0.0,0.0,0.0,0.0,0.0,0.0,0.0,0.0,0.0,0.0,0.0,0.0,0.0,0.0,0.0,0.0,0.0,0.0,0.0,0.0,0.0,0.0,0.0,0.0,0.0,0.0,0.0,0.0,0.0,0.0,0.0,0.0,0.0,0.0,0.0,0.0,0.0,0.0,0.0,0.0,0.0,0.0,0.0,0.0,0.0,0.0,0.0,0.0,0.0,0.0,0.0,0.0,0.0,0.0,0.0,0.0,0.0,0.0,0.0,0.0,0.0,0.0,0.0,0.0,0.0,0.0,0.0,0.0,0.0,0.0,0.0,0.0,0.0,0.0,0.0,0.0,0.0,0.0,0.0,0.0,0.0,0.0,0.0,0.0,0.0,3.6427,3.8014,3.8049,3.8215,3.8888,3.8393,3.8363,3.9034,0.0,0.0,0.0,0.0,0.0,0.0,0.0,0.0,0.0,0.0,0.0,0.0,0.0,0.0,0.0,0.0,0.0,0.0,0.0,0.0,0.0,0.0,0.0,0.0,0.0,0.0,0.0,0.0,0.0,0.0,0.0,0.0,0.0,0.0,0.0,0.0,0.0,0.0,0.0,0.0,0.0,0.0,0.0,0.0,0.0,0.0,0.0,0.0,0.0,0.0,0.0,0.0,0.0,0.0,0.0,0.0,0.0,0.0,0.0,0.0,0.0,0.0,0.0,0.0,0.0,0.0,0.0,0.0,0.0,0.0,0.0,0.0,0.0,0.0,0.0,0.0,0.0,0.0,0.0,0.0,0.0,0.0,0.0,0.0,0.0,0.0,0.0,0.0,0.0,0.0,0.0,0.0,0.0,0.0,0.0,0.0,0.0,0.0,0.0,0.0,0.0,0.0,0.0,3.7421,3.765,3.8838,3.8905,3.8983,3.9279,3.9027,3.8983,3.9293,3.8872,0.0,0.0,0.0,0.0,0.0,0.0,0.0,0.0,0.0,0.0,0.0,0.0,0.0,0.0,0.0,0.0,0.0,0.0,0.0,0.0,0.0,0.0,0.0,0.0,0.0,0.0,0.0,0.0,0.0,0.0,0.0,0.0,0.0,0.0,0.0,0.0,0.0,0.0,0.0,0.0,0.0,0.0,0.0,0.0,0.0,0.0,0.0,0.0,0.0,0.0,0.0,0.0,0.0,0.0,0.0,0.0,0.0,0.0,0.0,0.0,0.0,0.0,0.0,0.0,0.0,0.0,0.0,0.0,0.0,0.0,0.0,0.0,0.0,0.0,0.0,0.0,0.0,0.0,0.0,0.0,0.0,0.0,0.0,0.0,0.0,0.0,0.0,0.0,0.0,0.0,0.0,0.0,0.0,0.0,0.0,0.0,0.0,0.0,0.0,0.0,0.0,0.0,3.846,3.8745,3.9249,3.9308,3.9308,3.9308,3.9308,3.9308,3.9308,3.9308,0.0,0.0,0.0,0.0,0.0,0.0,0.0,0.0,0.0,0.0,0.0,0.0,0.0,0.0,0.0,0.0,0.0,0.0,0.0,0.0,0.0,0.0,0.0,0.0,0.0,0.0,0.0,0.0,0.0,0.0,0.0,0.0,0.0,0.0,0.0,0.0,0.0,0.0,0.0,0.0,0.0,0.0,0.0,0.0,0.0,0.0,0.0,0.0,0.0,0.0,0.0,0.0,0.0,0.0,0.0,0.0,0.0,0.0,0.0,0.0,0.0,0.0,0.0,0.0,0.0,0.0,0.0,0.0,0.0,0.0,0.0,0.0,0.0,0.0,0.0,0.0,0.0,0.0,0.0,0.0,0.0,0.0,0.0,0.0,0.0,0.0,0.0,0.0,0.0,0.0,0.0,0.0,0.0,0.0,0.0,0.0,0.0,0.0,0.0,0.0,0.0,0.0,3.8507,3.9249,3.9293,3.9308,3.9308,3.9308,3.9308,3.9308,3.9308,3.9308,0.0,0.0,0.0,0.0,0.0,0.0,0.0,0.0,0.0,0.0,0.0,0.0,0.0,0.0,0.0,0.0,0.0,0.0,0.0,0.0,0.0,0.0,0.0,0.0,0.0,0.0,0.0,0.0,0.0,0.0,0.0,0.0,0.0,0.0,0.0,0.0,0.0,0.0,0.0,0.0,0.0,0.0,0.0,0.0,0.0,0.0,0.0,0.0,0.0,0.0,0.0,0.0,0.0,0.0,0.0,0.0,0.0,0.0,0.0,0.0,0.0,0.0,0.0,0.0,0.0,0.0,0.0,0.0,0.0,0.0,0.0,0.0,0.0,0.0,0.0,0.0,0.0,0.0,0.0,0.0,0.0,0.0,0.0,0.0,0.0,0.0,0.0,0.0,0.0,0.0,0.0,0.0,0.0,0.0,0.0,0.0,0.0,0.0,0.0,0.0,0.0,0.0,3.8656,3.8849,0.0,3.9308,3.9308,3.9308,3.9308,3.9308,3.9308,0.0,0.0,0.0,0.0,0.0,0.0,0.0,0.0,0.0,0.0,0.0,0.0,0.0,0.0,0.0,0.0,0.0,0.0,0.0,0.0,0.0,0.0,0.0,0.0,0.0,0.0,0.0,0.0,0.0,0.0,0.0,0.0,0.0,0.0,0.0,0.0,0.0,0.0,0.0,0.0,0.0,0.0,0.0,0.0,0.0,0.0,0.0,0.0,0.0,0.0,0.0,0.0,0.0,0.0,0.0,0.0,0.0,0.0,0.0,0.0,0.0,0.0,0.0,0.0,0.0,0.0,0.0,0.0,0.0,0.0,0.0,0.0,0.0,0.0,0.0,0.0,0.0,0.0,0.0,0.0,0.0,0.0,0.0,0.0,0.0,0.0,0.0,0.0,0.0,0.0,0.0,0.0,0.0,0.0,0.0,0.0,0.0,0.0,0.0,0.0,0.0,0.0,3.8953,3.8775,3.8805,0.0,3.9308,3.9308,3.9308,3.9308,3.9308,3.9308,0.0,0.0,0.0,0.0,0.0,0.0,0.0,0.0,0.0,0.0,0.0,0.0,0.0,0.0,0.0,0.0,0.0,0.0,0.0,0.0,0.0,0.0,0.0,0.0,0.0,0.0,0.0,0.0,0.0,0.0,0.0,0.0,0.0,0.0,0.0,0.0,0.0,0.0,0.0,0.0,0.0,0.0,0.0,0.0,0.0,0.0,0.0,0.0,0.0,0.0,0.0,0.0,0.0,0.0,0.0,0.0,0.0,0.0,0.0,0.0,0.0,0.0,0.0,0.0,0.0,0.0,0.0,0.0,0.0,0.0,0.0,0.0,0.0,0.0,0.0,0.0,0.0,0.0,0.0,0.0,0.0,0.0,0.0,0.0,0.0,0.0,0.0,0.0,0.0,0.0,0.0,0.0,0.0,0.0,0.0,0.0,0.0,0.0,0.0,0.0,0.0,0.0,3.8403,3.8894,3.9308,3.9308,3.9308,3.9308,3.9331,3.9308,3.9308,0.0,0.0,0.0,0.0,0.0,0.0,0.0,0.0,0.0,0.0,0.0,0.0,0.0,0.0,0.0,0.0,0.0,0.0,0.0,0.0,0.0,0.0,0.0,0.0,0.0,0.0,0.0,0.0,0.0,0.0,0.0,0.0,0.0,0.0,0.0,0.0,0.0,0.0,0.0,0.0,0.0,0.0,0.0,0.0,0.0,0.0,0.0,0.0,0.0,0.0,0.0,0.0,0.0,0.0,0.0,0.0,0.0,0.0,0.0,0.0,0.0,0.0,0.0,0.0,0.0,0.0,0.0,0.0,0.0,0.0,0.0,0.0,0.0,0.0,0.0,0.0,0.0,0.0,0.0,0.0,0.0,0.0,0.0,0.0,0.0,0.0,0.0,0.0,0.0,0.0,0.0,0.0,0.0,0.0,0.0,0.0,0.0,0.0,0.0,0.0,0.0,0.0,0.0,0.0,3.919,3.9446,3.982,3.9866,3.9989,4.0326,4.0058,4.0012,4.0326,0.0,0.0,0.0,0.0,0.0,0.0,0.0,0.0,0.0,0.0,0.0,0.0,0.0,0.0,0.0,0.0,0.0,0.0,0.0,0.0,0.0,0.0,0.0,0.0,0.0,0.0,0.0,0.0,0.0,0.0,0.0,0.0,0.0,0.0,0.0,0.0,0.0,0.0,0.0,0.0,0.0,0.0,0.0,0.0,0.0,0.0,0.0,0.0,0.0,0.0,0.0,0.0,0.0,0.0,0.0,0.0,0.0,0.0,0.0,0.0,0.0,0.0,0.0,0.0,0.0,0.0,0.0,0.0,0.0,0.0,0.0,0.0,0.0,0.0,0.0,0.0,0.0,0.0,0.0,0.0,0.0,0.0,0.0,0.0,0.0,0.0,0.0,0.0,0.0,0.0,0.0,0.0,0.0,0.0,0.0,0.0,0.0,0.0,0.0,0.0,0.0,0.0,3.989,3.989,4.002,4.0333,4.0379,4.0479,4.0785,4.0525,4.0502,4.0785,0.0,0.0,0.0,0.0,0.0,0.0,0.0,0.0,0.0,0.0,0.0,0.0,0.0,0.0,0.0,0.0,0.0,0.0,0.0,0.0,0.0,0.0,0.0,0.0,0.0,0.0,0.0,0.0,0.0,0.0,0.0,0.0,0.0,0.0,0.0,0.0,0.0,0.0,0.0,0.0,0.0,0.0,0.0,0.0,0.0,0.0,0.0,0.0,0.0,0.0,0.0,0.0,0.0,0.0,0.0,0.0,0.0,0.0,0.0,0.0,0.0,0.0,0.0,0.0,0.0,0.0,0.0,0.0,0.0,0.0,0.0,0.0,0.0,0.0,0.0,0.0,0.0,0.0,0.0,0.0,0.0,0.0,0.0,0.0,0.0,0.0,0.0,0.0,0.0,0.0,0.0,0.0,0.0,0.0,0.0,0.0,0.0,0.0,0.0,0.0,0.0,0.0,4.0808,4.0808,4.0831,4.0877,4.0877,4.09,4.0946,4.09,4.09,4.0946,0.0,0.0,0.0,0.0,0.0,0.0,0.0,0.0,0.0,0.0,0.0,0.0,0.0,0.0,0.0,0.0,0.0,0.0,0.0,0.0,0.0,0.0,0.0,0.0,0.0,0.0,0.0,0.0,0.0,0.0,0.0,0.0,0.0,0.0,0.0,0.0,0.0,0.0,0.0,0.0,0.0,0.0,0.0,0.0,0.0,0.0,0.0,0.0,0.0,0.0,0.0,0.0,0.0,0.0,0.0,0.0,0.0,0.0,0.0,0.0,3.8151,0.0,0.0,0.0,0.0,0.0,0.0,0.0,0.0,0.0,0.0,0.0,0.0,0.0,0.0,0.0,0.0,0.0,0.0,0.0,0.0,0.0,0.0,0.0,0.0,0.0,0.0,0.0,0.0,0.0,0.0,0.0,0.0,0.0,0.0,0.0,0.0,0.0,0.0,0.0,0.0,0.0,4.0808,4.0808,4.0946,4.139,4.1436,4.1581,4.194,4.165,4.1581,4.1963,0.0,0.0,0.0,0.0,0.0,0.0,0.0,0.0,0.0,0.0,0.0,0.0,0.0,0.0,0.0,0.0,0.0,0.0,0.0,0.0,0.0,0.0,0.0,0.0,0.0,0.0,0.0,0.0,0.0,0.0,0.0,0.0,0.0,0.0,0.0,0.0,0.0,0.0,0.0,0.0,0.0,0.0,0.0,0.0,0.0,0.0,0.0,0.0,0.0,0.0,0.0,0.0,0.0,0.0,0.0,0.0,0.0,0.0,0.0,0.0,0.0,3.8527,0.0,0.0,0.0,0.0,0.0,0.0,0.0,0.0,0.0,0.0,0.0,0.0,0.0,0.0,0.0,0.0,0.0,0.0,0.0,0.0,0.0,0.0,0.0,0.0,0.0,0.0,0.0,0.0,0.0,0.0,0.0,0.0,0.0,0.0,0.0,0.0,0.0,0.0,0.0,0.0,4.1527,4.1749,4.2017,4.2286,4.2515,4.2752,4.3011,4.3263,4.3219,4.2722,4.2667,0.0,0.0,0.0,0.0,0.0,0.0,0.0,0.0,0.0,0.0,0.0,0.0,0.0,0.0,0.0,0.0,0.0,0.0,0.0,0.0,0.0,0.0,0.0,0.0,0.0,0.0,0.0,0.0,0.0,0.0,0.0,0.0,0.0,0.0,0.0,0.0,0.0,0.0,0.0,0.0,0.0,0.0,0.0,0.0,0.0,0.0,0.0,0.0,0.0,0.0,0.0,0.0,0.0,0.0,0.0,4.1998,4.1998,4.2047,4.2074,4.0574,3.9878,3.977,0.0,0.0,0.0,0.0,0.0,0.0,0.0,0.0,0.0,0.0,0.0,0.0,0.0,0.0,0.0,0.0,0.0,0.0,0.0,0.0,0.0,0.0,0.0,0.0,0.0,4.1444,4.1467,0.0,0.0,0.0,0.0,0.0,0.0,0.0,0.0,0.0,0.0,0.0,0.0,4.3101,4.3521,4.3793,4.3793,4.4126,4.4359,4.4359,4.5178,4.5133,4.3865,4.4443,4.4238,0.0,0.0,0.0,0.0,0.0,0.0,0.0,0.0,0.0,0.0,0.0,0.0,0.0,0.0,0.0,0.0,0.0,0.0,0.0,0.0,0.0,0.0,0.0,0.0,0.0,0.0,0.0,0.0,0.0,0.0,0.0,0.0,3.9411,3.9953,0.0,0.0,0.0,0.0,0.0,0.0,0.0,0.0,0.0,0.0,0.0,0.0,0.0,0.0,4.19,4.2774,4.281,4.2012,4.2838,4.2796,4.1998,4.1998,4.2282,4.2764,4.2533,0.0,4.1629,4.1629,0.0,0.0,0.0,0.0,0.0,0.0,0.0,0.0,0.0,0.0,0.0,0.0,0.0,0.0,0.0,0.0,0.0,0.0,0.0,0.0,0.0,0.0,4.3516,4.392,4.4012,4.4134,0.0,4.333,4.2353,4.3246,0.0,0.0,0.0,0.0,0.0,0.0,0.0,0.0,4.6248,4.6448,4.6497,4.6497,4.653,4.6579,4.6579,4.6705,4.6697,4.6497,4.5734,4.5197,4.4997,4.4021,0.0,0.0,0.0,0.0,0.0,0.0,0.0,0.0,0.0,0.0,0.0,0.0,0.0,0.0,0.0,0.0,0.0,0.0,0.0,0.0,0.0,0.0,0.0,0.0,0.0,0.0,0.0,0.0,0.0,3.8857,3.9679,4.0351,4.0155,4.0057,0.0,0.0,0.0,0.0,0.0,0.0,0.0,0.0,0.0,4.2782,4.2796,4.3185,4.4017,4.4769,4.5077,4.4987,4.5748,4.5694,4.4987,4.4987,4.4976,4.4914,4.4914,4.4786,4.4447,4.3436,4.2958,4.29,0.0,0.0,0.0,0.0,0.0,0.0,0.0,0.0,0.0,0.0,0.0,0.0,0.0,0.0,0.0,0.0,0.0,0.0,0.0,0.0,0.0,4.4758,4.5174,4.5622,4.6434,4.6152,4.551,0.0,4.4631,4.4642,4.4726,0.0,0.0,0.0,0.0,0.0,4.6942,4.722,4.7401,4.7401,4.7656,4.7837,4.7837,4.8398,4.8369,4.7458,4.7513,4.7199,4.6349,4.5846,4.5221,0.0,0.0,0.0,0.0,0.0,0.0,0.0,0.0,0.0,0.0,0.0,0.0,0.0,0.0,0.0,0.0,0.0,0.0,0.0,0.0,0.0,0.0,0.0,0.0,0.0,0.0,0.0,0.0,4.0237,4.0698,4.1409,4.1341,4.1392,0.0,0.0,0.0,0.0,0.0,0.0,4.2588,4.3088,4.3677,4.4377,4.4391,4.4904,4.6013,4.6342,4.6696,4.7112,4.7545,4.7519,4.7112,4.7112,4.6955,4.6708,4.6708,4.6801,4.6806,4.5168,4.4596,4.4724,4.4724,0.0,0.0,0.0,4.5075,4.4954,4.415,4.3947,0.0,4.4051,0.0,0.0,4.4154,0.0,0.0,0.0,0.0,4.4485,4.5726,0.0,4.5552,4.6287,4.678,4.728,4.8039,4.8299,4.8017,0.0,4.6226,4.6156,0.0,0.0,0.0,0.0,0.0,4.7934,4.8352,4.8703,4.8987,4.9137,4.9521,4.9739,4.9739,5.0494,5.0419,4.9236,4.9501,4.9185,4.8045,4.7339,4.6649,0.0,0.0,0.0,0.0,0.0,0.0,0.0,0.0,0.0,0.0,0.0,0.0,0.0,0.0,0.0,0.0,0.0,0.0,0.0,0.0,0.0,0.0,0.0,0.0,0.0,0.0,0.0,0.0,0.0,0.0,4.4416,4.3746,0.0,0.0,0.0,0.0,4.1998,4.3354,4.4176,4.4176,4.6008,4.7062,4.7105,4.7105,4.7133,4.7202,4.6734,4.6513,4.6539,4.6566,4.6566,4.6539,4.6539,4.6813,4.7255,4.7255,4.7583,4.8015,4.6846,4.5839,4.5066,4.5066,4.4585,4.388,4.388,4.388,4.388,4.3806,4.4092,4.4474,4.4474,4.4141,4.3778,4.3825,4.3832,0.0,0.0,4.6627,4.7496,4.8012,4.8855,4.9596,4.9657,4.9683,4.9724,4.9769,4.907,4.8646,0.0,4.9653,0.0,0.0,0.0,0.0,4.9159,0.0,5.05,5.2022,5.2237,5.2472,5.3045,5.315,5.315,5.315,5.3198,5.3198,5.314,5.1681,5.0798,5.0724,4.8254,4.712,4.7569,4.5649,0.0,0.0,0.0,0.0,0.0,0.0,0.0,0.0,0.0,0.0,0.0,0.0,0.0,0.0,0.0,0.0,0.0,0.0,0.0,0.0,0.0,0.0,0.0,0.0,0.0,0.0,0.0,0.0,4.385,4.4095,0.0,0.0,4.4498,4.4624,4.5354,4.5911,4.6225,4.6225,4.69,4.7124,4.6787,4.6787,4.6955,4.7307,4.7492,4.7794,4.8187,4.8919,4.9049,4.871,4.9102,4.9154,4.8982,4.8982,4.9087,4.9259,4.8866,4.8298,4.7666,4.7666,4.7681,4.7737,4.7737,4.7968,4.8211,4.75,4.7647,4.8049,4.7666,4.7867,4.8231,4.7835,4.7734,4.7821,4.836,4.8304,4.8294,4.9121,4.9142,4.9085,4.9735,5.02,5.0551,5.0917,5.1018,5.1266,5.2003,5.0706,4.9718,5.0333,5.0933,5.1451,5.1871,5.2104,5.2423,5.3028,5.3086,5.3164,5.3373,5.34,5.34,5.34,5.34,5.34,5.34,5.2851,5.2511,5.2511,5.1581,5.0679,4.9766,4.8394,4.7108,0.0,0.0,0.0,0.0,0.0,0.0,0.0,0.0,0.0,0.0,0.0,0.0,0.0,0.0,0.0,0.0,0.0,0.0,0.0,0.0,0.0,0.0,0.0,0.0,0.0,0.0,4.413,4.413,4.4977,4.574,4.6131,4.6184,4.6497,4.724,4.7307,4.7307,4.7307,4.7673,4.7832,4.7638,4.7638,4.7925,4.8471,4.8669,4.8971,4.9389,5.0148,5.0304,4.9897,5.0315,5.0278,4.9912,4.9912,4.9912,4.9912,4.9912,4.9703,4.9363,4.9363,4.9599,4.9912,4.9912,5.0148,5.038,4.9677,4.9701,4.99,4.9158,4.9414,4.9919,4.953,4.9401,4.9462,4.9806,4.9587,4.9415,5.0267,5.0141,4.9996,5.0882,5.1387,5.1779,5.2119,5.2511,5.2929,5.3321,5.1922,5.1012,5.2034,5.2537,5.3008,5.3583,5.3504,5.353,5.3922,5.3792,5.3739,5.3949,5.3975,5.3975,5.3975,5.3975,5.3975,5.3975,5.3792,5.3661,5.3661,5.3153,5.2501,5.1758,5.0727,4.9331,4.7548,0.0,0.0,0.0,0.0,0.0,0.0,0.0,0.0,0.0,0.0,0.0,0.0,0.0,0.0,0.0,0.0,0.0,0.0,0.0,0.0,0.0,0.0,0.0,4.4825,4.5269,4.5661,4.5661,4.6628,4.7307,4.7333,4.7307,4.7333,4.7345,4.7385,4.7385,4.7385,4.8512,4.9389,4.9886,4.9912,5.0174,5.0775,5.02,4.9912,4.9912,4.9938,4.9949,4.9949,4.9991,5.0017,5.0017,5.0017,5.0017,5.0017,5.0017,5.0017,5.0017,4.9938,4.9912,4.9912,4.9912,4.9912,4.9938,4.9965,4.9949,4.9813,4.884,4.8532,4.8532,4.8558,4.8573,4.8758,4.9733,5.0435,5.0995,5.1518,5.2093,5.2684,5.3269,5.34,5.34,5.3452,5.3452,5.3452,5.3504,5.3504,5.3478,5.3426,5.3452,5.3635,5.4184,5.3818,0.0,5.502,5.4654,5.4497,5.5099,5.5151,5.5151,5.5151,5.5151,5.5151,5.5151,5.4602,5.4262,5.4262,5.2754,5.2364,5.3361,5.2329,5.128,5.0201,0.0,0.0,0.0,0.0,0.0,0.0,0.0,0.0,0.0,0.0,0.0,0.0,0.0,0.0,0.0,0.0,0.0,0.0,0.0,0.0,0.0,0.0,4.6642,4.6081,4.6485,4.6837,4.6837,4.7124,4.7464,4.7911,4.7556,4.7647,4.8538,4.8956,4.9191,4.9191,4.9897,5.02,4.9912,4.9912,4.9991,5.0148,4.9991,4.9912,4.9912,5.0734,5.1126,5.1152,5.2056,5.2433,5.2433,5.2433,5.2433,5.2433,5.2433,5.2433,5.2276,5.0551,4.9912,4.9912,4.9912,5.0174,5.0618,5.0995,5.1126,5.1173,5.1325,5.136,5.1438,5.1879,5.2024,5.2072,5.2369,5.2563,5.272,5.2877,5.3034,5.3191,5.3347,5.34,5.3635,5.4445,5.4628,5.4889,5.5683,5.5883,5.5465,5.421,5.4341,5.4811,5.5343,0.0,0.0,0.0,5.6196,5.6144,5.631,5.631,5.631,5.631,5.631,0.0,0.0,5.617,5.5883,5.5465,5.5013,5.4151,5.2845,5.2146,5.128,0.0,0.0,0.0,0.0,0.0,0.0,0.0,0.0,0.0,0.0,0.0,0.0,0.0,0.0,0.0,0.0,0.0,0.0,0.0,0.0,0.0,0.0,4.7687,4.7571,4.7245,4.7466,4.7583,4.7333,4.7766,4.8277,4.8866,4.8576,4.8785,4.9755,4.986,4.9912,4.9912,5.0226,5.0383,5.0278,5.0472,5.0734,5.0984,5.1246,5.1376,5.1361,5.2056,5.2354,5.238,5.3086,5.34,0.0,5.34,5.34,5.34,5.34,5.34,0.0,0.0,0.0,0.0,0.0,0.0,5.1936,5.225,5.2354,5.2406,5.2746,5.2877,5.2929,5.3295,5.34,5.34,5.34,5.3556,5.3792,5.4053,5.4288,5.4497,5.4759,5.4811,5.502,5.5674,5.583,5.6013,5.6676,0.0,0.0,5.5465,5.5595,5.6013,5.6579,5.6745,0.0,0.0,5.6954,5.6798,5.6798,5.6798,5.6798,5.6798,0.0,0.0,0.0,0.0,5.6624,5.6284,0.0,0.0,0.0,0.0,5.3204,0.0,0.0,0.0,0.0,4.9441,4.8739,0.0,0.0,0.0,0.0,0.0,0.0,0.0,0.0,0.0,0.0,0.0,0.0,0.0,0.0,0.0,0.0,4.8291,4.8317,4.837,4.8396,4.8198,4.7647,4.8538,4.9416,4.9965,4.9938,5.0106,5.067,5.0278,5.0043,0.0,0.0,0.0,0.0,0.0,5.2067,5.2589,5.3138,5.3426,5.3478,5.3556,5.3609,5.3687,5.3739,5.3792,5.3792,5.3792,5.3792,5.3792,5.3792,5.3792,5.3766,5.3504,5.34,5.34,5.34,5.34,0.0,0.0,0.0,0.0,5.3635,5.3687,5.3687,5.3766,5.3792,5.3792,5.3792,5.4131,5.4628,5.5151,5.5647,5.6144,5.6676,5.6798,5.6824,5.6902,5.6902,5.6928,5.6981,5.7007,5.7007,5.7007,5.6954,5.7085,5.7617,5.7312,0.0,5.7721,5.732,5.7007,5.7007,0.0,0.0,5.7007,5.7007,5.7007,5.7007,5.6928,5.6902,5.6902,5.685,5.6798,5.6798,5.6258,5.6013,5.6013,5.45,5.4046,5.4422,5.1716,5.0511,0.0,0.0,0.0,0.0,0.0,0.0,0.0,0.0,0.0,0.0,0.0,0.0,0.0,0.0,0.0,4.8762,4.8919,4.9076,4.952,4.9572,4.9546,4.9401,4.961,4.9991,5.0566,5.02,4.9965,5.0069,5.0409,5.0812,5.1256,5.1727,0.0,5.2877,5.2981,5.3112,5.3217,5.3347,5.3609,5.4053,0.0,0.0,5.5422,5.5935,5.6127,5.6127,5.6127,5.6127,5.6127,5.6127,5.6127,5.5961,5.4105,5.34,5.34,5.34,5.34,5.3452,5.3896,5.4053,5.421,5.5125,5.5412,5.5517,5.5987,5.6127,0.0,5.6127,5.6223,5.631,0.0,5.6562,5.6667,5.6754,5.6798,5.6928,5.7416,5.7538,5.7651,5.8104,5.8165,5.8165,5.8165,5.7808,5.7564,5.7669,5.7965,5.8191,5.834,5.8244,5.8165,5.8165,5.8165,5.8165,5.8165,5.8165,5.8165,5.8165,5.7782,5.7538,5.7538,5.7059,5.6798,5.6798,5.6693,5.6641,5.6641,5.6287,5.62,5.6241,5.3385,5.2334,0.0,0.0,0.0,0.0,0.0,0.0,0.0,0.0,0.0,0.0,0.0,4.8272,0.0,0.0,4.9138,4.946,4.9494,4.9599,4.9845,4.9912,4.9912,4.9912,4.9912,5.0148,5.0749,5.0775,5.088,5.1178,5.1753,5.2239,5.2501,5.2772,5.3217,5.3792,5.4105,5.4393,5.4654,5.4942,5.5229,5.55,5.5804,5.6092,5.6379,5.665,5.6798,5.6798,5.6798,5.6798,5.6798,5.6798,5.6798,5.6693,5.5543,5.5099,5.5099,5.5099,5.5099,5.5151,5.5412,5.5517,5.5578,5.617,5.6353,5.6405,5.6719,5.6798,5.6798,5.6798,5.7007,5.7259,5.7259,5.7451,5.7643,5.7643,5.7643,5.7739,5.8044,5.8096,5.8183,5.8444,5.8505,5.8505,5.8505,5.8287,5.8096,5.8096,5.834,5.8505,5.8505,5.8505,5.8505,5.8505,5.8505,5.8505,5.8505,5.8505,5.8505,5.8505,5.8261,5.8096,5.8096,5.7817,5.7643,5.7643,5.739,5.7259,5.7259,5.6954,5.6798,5.678,5.5305,5.4795,0.0,0.0,0.0,0.0,0.0,0.0,0.0,0.0,4.8709,4.8438,4.8932,4.9433,4.9436,5.0208,5.0663,5.0184,5.0093,5.0089,5.0084,5.0159,5.0263,5.0394,5.0289,5.0461,5.1089,5.1622,5.2145,5.2642,5.3217,5.3609,5.3713,5.3818,5.4131,5.468,5.5177,5.5647,5.6075,5.6562,5.6876,5.6981,5.6981,5.7033,5.712,5.712,5.712,5.712,5.712,5.712,5.712,5.712,5.712,5.712,5.712,5.712,5.7094,5.6859,5.6798,5.6824,5.6928,5.6981,5.6981,5.7111,5.712,5.712,5.712,5.712,5.712,5.712,5.7495,5.7852,5.7852,5.8183,5.8505,5.8505,5.8505,5.8531,5.8653,5.8679,5.8706,5.8792,5.8818,5.8818,5.8818,5.8818,5.8766,5.8531,5.8505,5.8505,5.8505,5.8505,5.8505,5.8505,5.8505,5.8505,5.8505,5.8505,5.8505,5.8505,5.8505,5.8505,5.8505,5.8505,5.8505,5.8505,5.807,5.7852,5.7852,5.7373,5.712,5.712,5.712,5.7016,4.6953,4.794,4.8838,4.8967,4.9515,4.9836,0.0,0.0,5.0286,4.9232,4.9858,5.0611,5.0691,5.0789,5.0872,5.0797,5.0782,5.0759,5.0695,5.11,5.1596,5.2161,5.1727,5.1648,5.225,5.2851,5.3217,5.3295,5.3792,5.4341,5.4889,5.536,5.5892,5.6484,5.6571,5.6641,5.6702,5.6771,5.7059,5.759,5.759,5.7861,5.8296,5.8296,5.8296,5.8296,5.8296,5.8296,5.8296,5.8296,5.8296,5.8296,5.8296,5.8296,5.8191,5.7172,5.6798,5.6876,5.739,5.759,5.7695,5.8157,5.8296,5.8296,5.8296,5.8296,5.8296,5.8296,5.8348,5.84,5.84,5.847,5.8505,5.8505,5.8505,5.8653,5.9168,5.9317,5.9429,5.9916,6.002,6.002,6.002,6.002,5.9655,5.8636,5.8505,5.8505,5.8505,5.8505,5.8505,5.8505,5.8505,5.8505,5.8505,5.8505,5.8505,5.8505,5.8505,5.8505,5.8505,5.8505,5.8505,5.8505,5.8427,5.84,5.84,5.8348,5.8296,5.8296,5.8296,5.7773,4.8178,4.8746,0.0,0.0,5.1154,5.153,5.1252,5.1636,5.1658,5.0408,5.1132,5.1742,5.1035,5.1198,5.1409,0.0,5.1363,5.1455,5.1742,5.2334,5.2797,5.3003,5.34,5.3478,5.306,5.3844,5.4393,5.4393,5.5229,5.583,5.6092,5.6301,5.6693,5.7285,5.7312,5.7451,5.7773,5.7773,5.7921,5.8174,5.8174,5.8287,5.8505,5.8505,5.8505,5.8505,5.8505,5.8505,5.8505,5.8505,5.8505,5.8505,5.8505,5.8505,5.8453,5.7956,5.7773,5.7843,5.8078,5.8174,5.8209,5.8444,5.8505,5.8505,5.8505,5.8505,5.8557,5.8915,5.9011,5.9116,5.9393,5.9498,5.9498,5.9498,5.9498,5.955,5.9803,5.9856,5.9934,6.0151,6.0203,6.0203,6.0203,6.0203,6.0047,5.955,5.9498,5.9498,5.9498,5.9498,5.9498,5.9498,5.9498,5.9498,5.9498,5.9498,5.9359,5.9037,5.9011,5.8862,5.8505,5.8505,5.8505,5.8505,5.8505,5.8505,5.8505,5.8505,5.8505,5.8505,5.8505,5.8244,4.9296,0.0,0.0,5.132,5.2266,5.2827,5.2324,5.2642,5.269,5.1419,5.216,5.2731,5.1839,5.2139,0.0,5.273,5.2596,5.2577,5.2971,5.3419,5.3736,5.3857,5.4733,5.5072,5.4393,5.5072,5.5569,5.5569,5.6484,5.7033,5.7033,5.719,5.7477,5.7904,5.7913,5.8122,5.8505,5.8505,5.8505,5.8505,5.8505,5.8505,5.8505,5.8679,5.8836,5.8975,5.8975,5.8975,5.8975,5.8975,5.8975,5.8975,5.8975,5.8975,5.8975,5.8975,5.8889,5.8758,5.8758,5.8862,5.8975,5.8975,5.8975,5.8975,5.8975,5.8975,5.9054,5.9508,5.9612,5.9717,6.0099,6.0203,6.0203,6.0203,6.0203,6.0256,6.0412,6.0465,6.0491,6.0648,6.0692,6.0692,6.0692,6.0692,6.0752,6.0883,6.0935,6.0752,6.0256,6.0203,6.0203,6.0203,6.0203,6.0203,6.0203,6.0203,6.002,5.9638,5.9612,5.9411,5.8975,5.8975,5.8975,5.8975,5.8975,5.8975,5.8975,5.8975,5.8975,5.8975,5.8975,5.8975,0.0,0.0,5.2313,5.1224,5.231,5.319,5.1386,5.2358,5.3343,5.2122,5.2778,5.3585,5.3613,5.4068,5.4633,5.5283,5.4789,5.4318,5.4346,5.423,5.4383,5.4968,5.5543,5.6092,0.0,5.6745,5.6745,5.6745,5.7312,5.7669,5.7669,5.8157,5.8453,5.8479,5.8479,5.8479,5.8505,5.8505,5.8505,5.8505,5.8505,5.8505,5.8505,5.9116,5.9665,6.0151,6.0151,6.0151,6.0151,6.0151,6.0151,6.0151,6.0151,6.0151,6.0151,6.0151,5.9803,5.9369,5.9369,5.9699,6.0151,6.0151,6.0151,6.0151,6.0151,6.0151,6.0151,6.0177,6.0177,6.0177,6.0203,6.0203,6.0203,6.0203,6.0203,6.036,6.0961,6.1066,6.1267,6.1835,6.1958,6.1958,6.1958,6.1958,6.2122,6.2633,6.2738,6.2111,6.0412,6.0203,6.0203,6.0203,6.0203,6.0203,6.0203,6.0203,6.0203,6.0177,6.0177,6.0177,6.0151,6.0151,6.0151,6.0151,6.0151,6.0151,6.0151,6.0151,6.0151,6.0151,6.0151,6.0151,0.0,0.0,5.1598,5.2003,5.2575,5.2981,5.281,5.3568,5.4045,5.3193,5.4316,5.5186,5.4305,5.4688,5.5168,5.5402,5.4796,5.4635,5.5539,5.552,5.5631,5.6289,5.6791,0.0,0.0,0.0,0.0,5.739,5.7895,5.8235,5.8235,5.84,5.8505,5.8505,5.8505,5.8505,5.8505,5.8889,5.9089,5.9089,5.9464,5.9629,5.9629,5.9856,6.002,6.0203,6.0203,6.0203,6.0203,6.0203,6.0203,6.0203,6.0203,6.0203,6.0203,6.0203,6.0334,6.0483,6.0065,6.0065,6.0203,6.0203,6.0203,6.0203,6.0203,6.0203,6.0282,6.0674,6.0804,6.0883,6.1293,6.139,6.1476,6.185,6.1928,6.2085,6.2679,6.2828,6.2907,6.309,6.3116,6.3116,6.3116,6.3116,6.3194,6.3377,6.3052,6.2581,6.2006,6.1607,6.139,6.139,6.139,6.139,6.139,6.139,6.1215,6.083,6.0804,6.0621,6.023,6.0203,6.0203,6.0203,6.0203,6.0203,6.0203,6.0203,6.0203,6.0203,6.0203,6.0203,0.0,5.1655,5.1739,5.2533,5.3065,5.343,5.3638,5.4313,5.4804,5.4369,5.5221,5.5768,5.4935,5.5289,5.5718,5.5701,5.5464,5.5591,5.6424,5.6394,5.654,5.7172,5.7501,0.0,0.0,0.0,0.0,5.7991,5.8314,5.8505,5.8505,5.8505,5.8583,5.881,5.881,5.8915,5.9106,5.949,5.9691,5.9691,6.0039,6.0308,6.0517,6.0517,6.0621,6.0849,6.0849,6.0849,6.0849,6.0849,6.0849,6.0849,6.0849,6.0961,6.1144,6.1144,6.151,6.1894,6.0883,6.0648,6.0849,6.0849,6.0849,6.0849,6.0849,6.0961,6.1222,6.1614,6.185,6.213,6.2515,6.2593,6.2698,6.3045,6.3123,6.3227,6.3613,6.3691,6.3691,6.3691,6.3691,6.3691,6.3691,6.3874,6.3985,6.3985,6.3653,6.3339,6.3149,6.2809,6.2593,6.2593,6.2593,6.2593,6.2593,6.2593,6.2436,6.2051,6.1823,6.1536,6.1144,6.0953,6.0849,6.0849,6.0849,6.0849,6.0849,6.0849,6.0849,6.0849,6.0849,6.0849,5.1863,5.2282,5.2771,5.2875,5.3746,5.4467,5.393,5.4681,5.5524,5.5552,5.5496,5.5458,0.0,0.0,5.6267,5.6197,5.6697,5.7082,5.7054,5.7003,5.718,0.0,0.0,0.0,0.0,0.0,0.0,5.8505,0.0,5.8505,5.8531,5.8531,5.881,5.9421,5.9447,5.9691,6.0203,6.023,6.0256,6.0282,6.0282,6.0595,6.1144,6.1144,6.1476,6.2044,6.2044,6.2044,6.2089,6.2089,6.2089,6.2089,6.2089,6.2391,6.2842,6.2842,6.3201,6.3456,6.1816,6.1607,6.2089,6.2089,6.2089,6.2089,6.2089,6.2443,6.2842,6.2842,6.3254,6.3691,6.3691,6.3691,6.3717,6.3717,6.3743,6.3743,6.377,6.3796,6.3796,6.3796,6.3796,6.3796,6.3796,6.4221,6.4548,6.4548,6.4548,6.4358,6.3822,6.3717,6.3691,6.3691,6.3691,6.3691,6.3691,6.3691,6.3691,6.3691,6.3175,6.2842,6.2842,6.2339,6.2089,6.2089,6.2089,6.2089,6.2089,6.2089,6.2089,6.2089,6.2089,6.2089,5.2463,5.2939,5.3571,5.4032,5.4356,5.468,5.4969,5.5281,5.5636,5.6071,5.6136,5.6065,0.0,0.0,0.0,5.6126,5.6618,0.0,5.7686,5.8537,0.0,5.9256,0.0,5.9764,5.9368,5.9315,0.0,0.0,5.8505,5.8706,5.9142,5.9168,5.9429,5.9986,6.0013,6.0047,6.0203,6.0648,6.111,6.1547,6.1547,6.1626,6.1782,6.1782,6.2077,6.2581,6.2581,6.2862,6.3273,6.3273,6.3273,6.3273,6.3273,6.3351,6.3482,6.3482,6.356,6.3639,6.3194,6.3142,6.3273,6.3273,6.3273,6.3273,6.3273,6.3351,6.3482,6.3482,6.3587,6.3691,6.3691,6.3691,6.3796,6.4201,6.4306,6.441,6.4868,6.4972,6.4972,6.4972,6.4972,6.4972,6.4972,6.5083,6.5162,6.5162,6.5162,6.4953,6.4358,6.3933,6.3691,6.3691,6.3691,6.3691,6.3691,6.3691,6.3691,6.3691,6.356,6.3482,6.3482,6.3351,6.3273,6.3273,6.3273,6.3273,6.3273,6.3273,6.3273,6.3273,6.3273,6.3273,5.3388,5.3824,5.4246,5.4836,5.499,5.5159,5.5777,5.5874,5.5997,5.6286,5.6289,0.0,0.0,0.0,0.0,0.0,0.0,0.0,5.8791,5.966,6.0111,0.0,6.0014,0.0,5.9202,5.9131,5.9061,0.0,5.8889,5.9037,5.9369,5.9612,6.0013,6.0569,6.0595,6.0726,6.098,6.1319,6.179,6.2339,6.2339,6.2488,6.2769,6.2769,6.2907,6.3201,0.0,6.3384,6.3691,6.3691,6.3691,6.3691,6.3691,6.3848,6.4064,6.4064,6.4221,6.4449,6.4449,6.4449,6.4371,6.3848,6.3691,6.3691,6.3691,6.3855,6.4064,6.4064,6.4221,6.4449,6.4449,6.4449,6.4528,6.4802,6.4881,6.5005,6.5338,6.5391,6.5391,6.5391,6.5391,6.5391,6.5391,6.5391,6.5391,6.5391,6.5391,6.5286,6.4953,6.4613,6.4449,6.4449,6.4449,6.4449,6.4449,6.4449,6.4449,6.4449,6.4195,6.4064,6.4064,6.3822,6.3691,6.3691,6.3691,6.3691,6.3691,6.3691,6.3691,6.3691,6.3691,6.3691,5.4302,5.4667,5.4864,5.5383,5.5552,5.5777,5.6268,5.6464,5.6553,5.6562,0.0,5.6066,5.5649,5.6386,5.7087,5.7127,0.0,6.0067,5.9903,6.045,6.0598,5.9977,5.9804,5.949,5.885,5.877,5.8943,5.9369,5.9552,5.963,5.963,6.0065,6.0595,6.1196,6.1222,6.1502,6.2096,6.2096,6.2384,6.2921,6.2921,6.3201,6.3691,6.3691,6.3743,6.3822,0.0,0.0,6.3926,6.3926,6.3926,6.3926,6.3926,6.4221,6.4619,6.4619,6.4953,6.5391,6.5391,6.5391,6.5234,6.424,6.3926,6.3926,6.3926,6.4247,6.4619,6.4619,6.5005,6.5391,6.5391,6.5391,6.5417,6.5495,6.5521,6.5547,6.56,6.5626,6.5626,6.5626,6.5626,6.5626,6.5626,6.5626,6.5626,6.5626,6.5626,6.5626,6.5626,6.5495,6.5391,6.5391,6.5391,6.5391,6.5391,6.5391,6.5391,6.5391,6.4907,6.4619,6.4619,6.4168,6.3926,6.3926,6.3926,6.3926,6.3926,6.3926,6.3926,6.3926,6.3926,6.3926,5.4527,5.4962,5.5383,5.5468,5.5874,5.6268,5.638,5.6845,0.0,0.0,0.0,5.647,5.7347,5.724,5.7187,5.7647,5.9474,6.0623,6.0001,0.0,6.1552,0.0,0.0,0.0,0.0,0.0,0.0,0.0,0.0,0.0,6.0823,6.0883,6.1241,6.1809,6.1835,6.2122,6.266,6.266,6.2966,6.3534,6.3534,6.3613,6.3691,6.3691,6.3933,6.4358,0.0,0.0,6.5103,6.5103,6.5103,6.5103,6.5103,6.5155,6.524,6.524,6.5312,6.5391,6.5391,6.5391,6.5364,6.5181,6.5103,6.5103,6.5103,6.5181,6.524,6.524,6.5338,6.5391,6.5391,6.5391,6.5521,6.6018,6.6149,6.628,6.6724,6.6802,6.6802,6.6802,6.6802,6.6802,6.6802,6.6802,6.6802,6.6802,6.6802,6.6802,6.6802,6.5992,6.5391,6.5391,6.5391,6.5391,6.5391,6.5391,6.5391,6.5391,6.5312,6.524,6.524,6.5155,6.5103,6.5103,6.5103,6.5103,6.5103,6.5103,6.5103,6.5103,6.5103,6.5103,5.4962,5.5271,5.5496,5.5496,5.5959,5.6493,5.6845,0.0,0.0,0.0,0.0,5.719,5.7441,5.7441,5.7633,5.827,5.9811,6.0916,6.0883,6.1741,0.0,0.0,0.0,0.0,0.0,0.0,0.0,0.0,0.0,0.0,6.1092,6.1398,6.1816,6.2391,6.2417,6.2705,6.3254,6.328,6.3567,6.4116,6.4116,6.4273,6.458,6.458,6.4737,6.4979,0.0,0.0,0.0,6.5391,6.5391,6.5391,6.5391,6.5391,6.5391,6.5391,6.56,6.5861,6.5861,6.6044,6.628,6.628,6.5887,6.5469,6.5783,6.5861,6.594,6.6201,6.628,6.6286,6.6286,6.6266,6.6364,6.6652,6.6704,6.6802,6.7044,6.7116,6.7116,6.7116,6.7116,6.7116,6.7116,6.7096,6.7096,6.7096,6.7116,6.7116,6.7116,6.6599,6.628,6.628,6.628,6.628,6.628,6.6044,6.5861,6.5861,6.5574,6.5391,6.5391,6.5391,6.5391,6.5391,6.5391,6.5391,6.5391,6.5391,6.5391,6.5391,6.5391,6.5391,5.5383,5.5496,5.5524,5.5664,5.6155,5.6788,5.7435,5.8053,0.0,0.0,0.0,5.7888,5.7477,5.7734,5.8202,0.0,6.004,6.108,6.1717,6.2153,6.2348,0.0,0.0,0.0,0.0,0.0,0.0,0.0,0.0,0.0,0.0,6.1842,6.2365,6.279,6.2921,6.328,6.3874,6.3874,6.4142,6.4698,6.4698,6.4953,6.5391,6.5391,6.5391,6.5391,0.0,0.0,0.0,6.5391,6.5469,6.56,6.56,6.5652,6.5757,6.5763,6.605,6.6463,6.6463,6.675,6.7116,6.7096,6.6495,6.5861,6.6332,6.6463,6.6567,6.6965,6.7116,6.7096,6.7102,6.7102,6.7128,6.7258,6.7363,6.7462,6.7462,6.7462,6.7462,6.7462,6.7462,6.7462,6.7462,6.7467,6.7447,6.7462,6.7462,6.7462,6.7462,6.7462,6.7462,6.7462,6.7253,6.7096,6.7116,6.6704,6.6463,6.6463,6.6044,6.5757,6.5757,6.5757,6.5757,6.5757,6.5757,6.5757,6.5757,6.5757,6.5757,6.5763,6.5757,6.5757,5.5468,5.5496,5.5636,5.6183,5.6816,5.7478,5.8081,0.0,0.0,0.0,0.0,5.8155,5.8642,5.8714,5.8893,5.9452,6.019,6.0971,6.1688,6.1264,6.1377,6.2648,0.0,0.0,0.0,0.0,0.0,0.0,0.0,0.0,0.0,6.2443,6.2764,6.2816,6.3332,6.3881,6.4436,6.4436,6.4724,6.5338,6.5338,6.5364,6.5391,6.5391,6.5391,6.5391,0.0,0.0,0.0,6.5391,6.573,6.6227,6.6227,6.6515,6.6939,6.6945,6.6971,6.7038,6.7038,6.7064,6.7096,6.7102,6.7023,6.6939,6.7012,6.7038,6.7038,6.709,6.7116,6.7116,6.7096,6.7096,6.7227,6.7775,6.8278,6.8649,6.8649,6.8649,6.8649,6.8649,6.8649,6.8649,6.8649,6.8649,6.8649,6.8649,6.8649,6.8649,6.8649,6.8649,6.8649,6.8649,6.7708,6.7102,6.7096,6.7044,6.7038,6.7038,6.6965,6.6939,6.6939,6.6939,6.6939,6.6939,6.6939,6.6939,6.6939,6.6939,6.6939,6.6925,6.6939,6.6939,5.5496,5.5496,5.5636,5.624,5.6901,5.7562,5.8165,0.0,0.0,0.0,5.9107,5.8874,5.9906,5.9663,5.9346,5.9586,6.0202,6.066,6.0495,6.0992,6.1597,6.2169,0.0,0.0,0.0,0.0,0.0,0.0,0.0,0.0,0.0,0.0,6.3111,6.379,6.4044,6.4456,6.5031,6.5031,6.5162,6.5391,6.5391,6.5391,6.5391,6.5391,6.5391,0.0,0.0,0.0,0.0,6.594,6.628,6.6776,6.6776,6.6907,6.7116,6.7096,6.7331,6.7639,6.7639,6.7854,6.8121,6.8126,6.8126,6.8068,6.7723,6.7639,6.7697,6.8016,6.8121,6.8121,6.8121,6.8121,6.8173,6.8434,6.8649,6.8805,6.8805,6.8805,6.8805,6.8805,6.8805,6.8805,6.8805,6.8805,6.8805,6.8805,6.8805,6.8805,6.8805,6.8805,6.8805,6.8805,6.8387,6.8126,6.8121,6.7828,6.7639,6.7639,6.7305,6.7102,6.7102,6.7096,6.7116,6.7116,6.7116,6.7116,6.7116,6.7116,6.7096,6.7096,6.7096,6.6933,5.5496,5.5636,5.5917,5.6549,5.7182,5.7815,0.0,0.0,0.0,5.9988,5.9465,5.9311,6.0662,6.0192,5.9595,5.9595,6.0029,6.0185,5.9682,6.0684,6.155,6.1715,0.0,0.0,0.0,0.0,0.0,0.0,0.0,0.0,0.0,0.0,6.4172,6.4489,6.4906,6.5215,6.5391,6.5391,6.5391,6.5391,6.5391,6.5391,6.5391,6.5391,0.0,0.0,0.0,0.0,0.0,6.6547,6.6861,6.7378,6.7378,6.7462,6.7619,6.7619,6.788,6.8246,6.8246,6.8487,6.8805,6.8805,6.8805,6.8727,6.8356,6.8246,6.8324,6.8701,6.8805,6.8805,6.8805,6.8805,6.8805,6.8805,6.8805,6.8805,6.8805,6.8805,6.8805,6.8805,6.8805,6.8805,6.8805,6.8805,6.8805,6.8805,6.8805,6.8805,6.8805,6.8805,6.8805,6.8805,6.8805,6.8805,6.8805,6.846,6.8246,6.8246,6.7859,6.7604,6.7604,6.7598,6.7619,6.7619,6.7619,6.7514,6.7378,6.7378,6.7273,6.7116,6.7116,6.6907,5.5496,5.5931,5.6549,5.7225,5.7843,5.8446,0.0,0.0,5.9386,5.9988,5.9465,5.9311,6.0662,6.0192,5.9595,5.9595,5.9612,5.9612,5.9595,6.0237,6.0945,0.0,0.0,0.0,0.0,0.0,0.0,0.0,0.0,0.0,0.0,0.0,6.6201,6.4554,6.5848,6.6198,6.5391,6.5391,6.5391,6.5391,6.5391,6.5391,6.5391,6.5391,0.0,0.0,0.0,0.0,0.0,6.7102,6.7441,6.7985,6.7985,6.8304,6.8779,6.8779,6.8779,6.8805,6.8805,6.8805,6.8805,6.8805,6.8805,6.8805,6.8805,6.8805,6.8805,6.8805,6.8805,6.8805,6.8805,6.8805,6.8805,6.8805,6.8805,6.8805,6.8805,6.8805,6.8805,6.8805,6.8805,6.8805,6.8805,6.8805,6.8805,6.8805,6.8805,6.8805,6.8805,6.8805,6.8805,6.8805,6.8805,6.8805,6.8805,6.8805,6.8805,6.8805,6.8779,6.8779,6.8779,6.8779,6.8779,6.8779,6.8779,6.8513,6.7985,6.7985,6.7671,6.7116,6.7116,6.7116,5.5379,5.5928,5.6661,5.7744,5.7799,5.7889,5.8955,0.0,5.8963,6.0486,6.0176,6.0017,6.1269,6.0883,6.0185,5.9682,5.9595,5.9595,5.9595,0.0,0.0,6.2206,6.3664,0.0,0.0,0.0,0.0,0.0,0.0,0.0,0.0,0.0,0.0,6.6845,6.7265,6.7372,6.7121,6.6511,6.6218,6.6198,6.5647,6.5917,6.6899,0.0,0.0,0.0,0.0,0.0,0.0,6.9475,6.946,6.9442,6.9442,6.9182,6.8805,6.8805,6.8805,6.8805,6.8805,6.8805,6.8805,6.8805,6.8805,6.8805,6.8805,6.8805,6.8805,6.8805,6.8805,6.8805,6.8805,6.8805,6.8805,6.8805,6.8805,6.8805,6.8805,6.8805,6.8805,6.8805,6.8805,6.8805,6.8805,6.8805,6.8805,6.8805,6.8805,6.8805,6.8805,6.8805,6.8805,6.8805,6.846,6.8408,6.8779,6.8805,6.8805,6.8805,6.8805,6.8805,6.8805,6.846,6.8272,6.8272,6.7854,6.7566,6.7383,6.7383,6.7299,6.709,6.6704,6.6567,0.0,5.5947,5.6712,5.7992,5.7979,0.0,0.0,0.0,5.9026,6.0746,6.0705,6.0711,6.1975,6.1394,6.0556,6.0081,6.0012,5.9908,5.9647,0.0,0.0,6.3291,0.0,0.0,0.0,0.0,0.0,0.0,0.0,0.0,0.0,0.0,0.0,6.8825,6.8522,6.8217,6.7892,6.7372,6.6946,6.6589,6.6672,6.7003,0.0,0.0,0.0,0.0,0.0,0.0,0.0,7.0897,7.0772,7.0568,7.0241,6.9768,6.9299,6.9299,6.9299,6.934,6.9671,6.9774,6.9733,6.9403,6.905,6.8805,6.8805,6.8805,6.8805,6.8805,6.8805,6.8805,6.8805,6.8805,6.8805,6.8805,6.8805,6.8805,6.8805,6.8805,6.8805,6.8805,6.8805,6.8727,6.8539,6.8513,6.8434,6.8199,6.8173,6.8173,6.8173,6.8173,6.8173,6.8173,6.7854,6.7802,6.8126,6.8173,6.8173,6.8173,6.8173,6.8173,6.8173,6.7828,6.7665,6.7665,6.7299,6.7012,6.6802,6.6567,6.6463,6.6463,6.6123,6.5966,0.0,0.0,0.0,0.0,0.0,0.0,0.0,5.9114,0.0,6.0674,6.0951,6.1348,6.2536,6.1614,6.0711,6.0711,6.066,0.0,0.0,6.1074,0.0,0.0,0.0,0.0,0.0,0.0,0.0,0.0,0.0,0.0,0.0,0.0,0.0,0.0,6.9578,6.8844,6.8083,6.8007,6.7584,6.6864,6.8186,6.8483,6.7936,0.0,0.0,0.0,0.0,0.0,0.0,7.1581,7.1567,7.1399,7.0608,7.0261,7.02,7.02,7.02,7.0302,7.1116,7.1339,7.1157,7.0282,6.9465,6.8805,6.8805,6.8805,6.8805,6.8805,6.8805,6.8805,6.8805,6.8805,6.8805,6.8805,6.8779,6.8753,6.8753,6.8701,6.8675,6.8675,6.8675,6.8539,6.8011,6.7953,6.777,6.7195,6.7116,6.7116,6.7116,6.7116,6.7116,6.7116,6.7064,6.7044,6.7029,6.7096,6.7116,6.7116,6.7116,6.7116,6.7116,6.7044,6.7044,6.7044,6.7012,6.675,6.6227,6.5678,6.5391,6.5391,6.5391,6.5391,0.0,0.0,0.0,0.0,0.0,0.0,0.0,5.878,0.0,0.0,0.0,6.164,6.1284,6.0934,6.0711,0.0,0.0,6.0202,6.1145,0.0,0.0,0.0,0.0,0.0,0.0,0.0,0.0,0.0,0.0,0.0,0.0,0.0,0.0,0.0,7.0119,6.9933,6.9746,6.9146,6.895,6.9198,6.8938,6.9522,0.0,0.0,0.0,0.0,0.0,0.0,0.0,7.3406,7.3004,7.2381,7.2182,7.1681,7.1096,7.1096,7.1096,7.1116,7.1318,7.0954,7.0261,6.9382,6.8972,6.8805,6.8805,6.8805,6.8805,6.8805,6.8805,6.8805,6.8805,6.8805,6.8805,6.8805,6.8487,6.8194,6.8194,6.7833,6.7499,6.7514,6.7514,6.7462,6.7331,6.7305,6.7253,6.7116,6.7116,6.7116,6.7116,6.7116,6.7116,6.7116,6.675,6.6489,6.6495,6.6861,6.7116,6.7116,6.7116,6.7116,6.7116,6.6724,6.6489,6.6489,6.6044,6.5757,6.56,6.5469,6.5391,6.5391,6.5391,6.5391,0.0,0.0,0.0,0.0,0.0,0.0,0.0,5.9113,0.0,0.0,0.0,6.1864,6.1728,6.1156,0.0,0.0,6.0872,0.0,0.0,0.0,6.4887,0.0,0.0,0.0,0.0,0.0,0.0,0.0,0.0,0.0,0.0,0.0,0.0,0.0,0.0,7.0304,7.0304,7.0137,7.0049,7.002,7.0515,7.1169,0.0,0.0,0.0,0.0,0.0,0.0,7.3994,7.3994,7.372,7.326,7.2858,7.2401,7.2002,7.2002,7.2002,7.2002,7.2002,7.1177,7.0097,7.0021,6.9733,6.935,6.9066,6.9274,6.9471,6.8956,6.8623,6.8434,6.8434,6.8225,6.8016,6.8016,6.7802,6.7587,6.7587,6.7331,6.7096,6.7096,6.7096,6.7017,6.6776,6.675,6.6646,6.6358,6.6332,6.6332,6.6332,6.6332,6.6332,6.6332,6.607,6.5887,6.5887,6.6149,6.6332,6.6332,6.6332,6.6332,6.6332,6.6044,6.5887,6.5887,6.5574,6.5391,6.5391,6.5391,6.5391,6.5391,6.5391,6.5391,0.0,0.0,0.0,0.0,0.0,0.0,0.0,0.0,0.0,0.0,0.0,6.2119,6.2632,6.1698,0.0,0.0,0.0,0.0,6.3617,6.4381,6.5028,0.0,0.0,0.0,0.0,0.0,0.0,0.0,0.0,0.0,0.0,0.0,0.0,0.0,0.0,0.0,7.0445,7.0932,7.0902,7.0349,7.2226,7.2775,7.2264,0.0,0.0,0.0,0.0,0.0,7.3994,7.3994,7.3994,7.3916,7.3201,7.2897,7.2897,7.2897,7.2897,7.2877,7.2739,7.166,7.0474,7.1062,7.0705,6.9935,6.9427,6.9796,7.0165,6.9192,6.8591,6.8243,6.8243,6.7849,6.7461,6.7339,6.722,6.7127,6.7006,6.6907,6.6855,6.6855,6.684,6.6684,6.6233,6.6175,6.5992,6.5495,6.5391,6.5391,6.5391,6.5391,6.5391,6.5391,6.5391,6.5391,6.5391,6.5391,6.5391,6.5391,6.5391,6.5391,6.5391,6.5391,6.5391,6.5391,6.5391,6.5391,6.5391,6.5391,6.5391,6.5391,6.5391,6.5443,5.4734,5.5309,0.0,0.0,0.0,0.0,0.0,0.0,0.0,5.9457,0.0,0.0,0.0,6.1772,6.1884,0.0,0.0,0.0,0.0,0.0,0.0,0.0,0.0,0.0,0.0,0.0,0.0,0.0,0.0,0.0,0.0,0.0,0.0,0.0,0.0,0.0,0.0,7.1156,7.1409,7.1875,7.2691,7.329,7.3678,7.3907,0.0,0.0,0.0,0.0,7.3994,7.3994,7.3994,7.3974,7.3857,7.3798,7.3798,7.3798,7.3798,7.3701,7.2957,7.219,7.1434,7.0846,7.0195,6.9643,6.9562,6.9614,6.97,6.9524,6.9418,6.9337,6.9337,6.9303,6.9043,6.8353,6.7794,6.7244,6.6551,6.6018,6.5652,6.5652,6.5678,6.5632,6.5547,6.5547,6.5521,6.5417,6.5391,6.5391,6.5391,6.5391,6.5391,6.5391,6.5391,6.5391,6.5391,6.5391,6.5391,6.5391,6.5391,6.5391,6.5391,6.5391,6.5391,6.5391,6.5391,6.5391,6.5391,6.5391,6.5391,6.5391,6.5391,6.5678,5.4463,5.5387,5.631,0.0,0.0,0.0,0.0,0.0,0.0,0.0,0.0,0.0,0.0,0.0,6.2052,0.0,0.0,0.0,0.0,0.0,0.0,0.0,0.0,0.0,0.0,0.0,0.0,0.0,0.0,0.0,0.0,0.0,0.0,0.0,0.0,0.0,0.0,7.1569,7.2074,7.2692,7.3311,7.3713,7.3994,7.3994,7.3994,0.0,0.0,7.3994,7.3994,7.3994,7.3994,7.3994,7.3994,7.3994,7.3966,7.3628,7.3216,7.2771,7.2514,7.1645,7.0634,7.0693,7.0521,7.0247,6.9872,7.0099,7.0409,7.0077,6.9562,6.9128,6.9128,6.8884,6.8473,6.7631,6.7574,6.7484,6.6641,6.6252,6.6178,6.6647,6.6002,6.5529,6.5963,6.5693,6.5391,6.5391,6.5391,6.5391,6.5391,6.5391,6.5575,6.5982,6.6041,6.6041,6.6041,6.6041,6.5845,6.541,6.5391,6.5391,6.5391,6.5391,6.5391,6.5391,6.5391,6.5391,6.5391,6.5391,6.5574,6.5887,6.5887,6.6201,5.4227,5.5371,5.6543,0.0,0.0,0.0,0.0,0.0,0.0,0.0,0.0,0.0,0.0,6.2448,0.0,0.0,0.0,0.0,0.0,0.0,0.0,0.0,0.0,0.0,0.0,0.0,0.0,0.0,0.0,0.0,0.0,0.0,0.0,0.0,0.0,0.0,0.0,7.2074,7.2636,7.3114,7.3713,7.3994,7.3994,7.3994,7.3994,7.3994,7.3994,7.3994,7.3994,7.3994,7.3994,7.3994,7.3994,7.3909,7.3713,7.3114,7.2457,7.1928,7.2117,7.1234,7.0083,7.0741,7.0888,7.0647,7.0157,7.0453,7.0875,7.0445,6.9715,6.9056,6.9056,6.8774,6.8255,6.7384,6.77,6.7949,6.7102,6.6881,6.7102,6.7777,6.6842,6.6178,6.681,6.6374,6.5904,6.5707,6.5667,6.5667,6.5667,6.5667,6.5982,6.683,6.6881,6.683,6.6608,6.6413,6.6041,6.543,6.5391,6.5391,6.5391,6.5391,6.5391,6.5391,6.5547,6.56,6.56,6.5757,6.6044,6.6489,6.6489,6.6776,5.4656,5.5387,5.6061,5.8522,0.0,0.0,0.0,0.0,0.0,0.0,0.0,0.0,0.0,6.2876,6.2831,0.0,0.0,0.0,0.0,0.0,0.0,0.0,0.0,0.0,0.0,0.0,0.0,0.0,0.0,0.0,0.0,0.0,0.0,0.0,0.0,0.0,0.0,0.0,7.3058,7.3114,7.3713,7.3994,7.3994,7.3994,7.3994,7.3994,7.3994,7.3994,7.3994,7.3994,7.3994,7.3994,7.3994,7.3657,7.3086,7.2496,7.2224,7.2167,7.2196,7.1718,7.11,7.1156,7.0801,7.0324,7.0296,7.0305,7.036,7.0304,7.0239,7.0175,7.0175,7.0147,6.9933,6.9127,6.8976,6.8806,6.7988,6.7815,6.7815,6.7892,6.7796,6.7738,6.7796,6.7758,6.745,6.6655,6.6491,6.6491,6.6491,6.6491,6.6869,6.7719,6.7815,6.7488,6.6674,6.5904,6.545,6.5391,6.5391,6.5391,6.5391,6.5391,6.5391,6.5391,6.594,6.6253,6.6253,6.675,6.7012,6.7044,6.7044,6.7378,5.5029,5.6295,5.7521,5.8884,0.0,0.0,0.0,0.0,0.0,0.0,0.0,0.0,0.0,0.0,0.0,0.0,0.0,0.0,0.0,0.0,0.0,0.0,0.0,0.0,0.0,0.0,0.0,0.0,0.0,0.0,0.0,0.0,0.0,0.0,0.0,0.0,0.0,0.0,7.3311,7.3657,7.3881,7.3994,7.3994,7.3994,7.3994,7.3994,7.3994,7.3994,7.3994,7.3994,7.3994,7.3966,7.3572,7.3086,7.2468,7.1821,7.1597,7.1522,7.1147,7.0866,7.0623,7.0623,7.0482,7.0304,7.0304,7.0304,7.0304,7.0304,7.0304,7.0304,7.0304,7.0304,7.01,6.9297,6.9484,6.9634,6.8825,6.8655,6.8806,6.9315,6.8579,6.8064,6.856,6.8236,6.7796,6.7469,6.7411,6.7411,6.7411,6.7411,6.7738,6.856,6.8198,6.7968,6.8133,6.692,6.6166,6.6166,6.5693,6.5391,6.5391,6.5757,6.5966,6.5966,6.6515,6.6808,6.6788,6.6991,6.7299,6.7665,6.7665,6.7958,5.5426,5.6832,5.8171,0.0,0.0,0.0,0.0,0.0,0.0,0.0,0.0,0.0,0.0,0.0,0.0,0.0,0.0,0.0,0.0,0.0,0.0,0.0,0.0,0.0,0.0,0.0,0.0,0.0,0.0,0.0,0.0,0.0,0.0,0.0,0.0,0.0,0.0,0.0,7.3572,7.3994,7.3994,7.3994,7.3994,7.3994,7.3994,7.3994,7.3994,7.3994,7.3994,7.3797,7.36,7.3367,7.273,7.2243,7.1793,7.1156,7.0932,7.0847,7.0445,7.0304,7.0304,7.0304,7.0304,7.0304,7.0304,7.0304,7.0304,7.0304,7.0304,7.0304,7.0304,7.0304,7.0156,6.9615,6.9895,7.0156,6.9615,6.9484,6.9653,7.0193,6.9409,6.8844,6.9391,6.9033,6.8579,6.8331,6.8274,6.8274,6.8274,6.8274,6.8598,6.9391,6.8768,6.8503,6.9052,6.7807,6.6961,6.6875,6.6371,6.5956,6.5678,6.6097,6.6384,6.6567,6.7116,6.7383,6.7389,6.7546,6.7854,6.8272,6.8272,6.846,5.5874,5.6851,5.76,0.0,0.0,0.0,0.0,0.0,0.0,0.0,0.0,0.0,0.0,0.0,0.0,0.0,0.0,0.0,0.0,0.0,0.0,0.0,0.0,0.0,0.0,0.0,0.0,0.0,0.0,0.0,0.0,0.0,0.0,0.0,0.0,0.0,0.0,0.0,7.3994,7.3994,7.3994,7.3994,7.3994,7.3994,7.3994,7.3994,7.3994,7.3994,7.3937,7.3339,7.2749,7.2102,7.1465,7.1213,7.1128,7.051,7.0304,7.0304,7.0304,7.0304,7.0304,7.0304,7.0304,7.0304,7.0304,7.0304,7.0304,7.0304,7.0304,7.0304,7.0304,7.0304,7.0304,7.0304,7.0304,7.0304,7.0304,7.0304,7.0304,7.0304,7.0304,7.0304,7.0304,7.0304,7.0026,6.924,6.9127,6.9127,6.9127,6.9127,6.9428,7.0211,6.9578,6.9108,6.9127,6.837,6.7789,6.7559,6.7507,6.7158,6.6326,6.6306,6.6567,6.7116,6.7697,6.8031,6.8031,6.8539,6.8805,6.8805,6.8805,6.8805,5.6108,5.7493,5.8731,5.9114,0.0,0.0,0.0,0.0,0.0,0.0,0.0,0.0,0.0,0.0,0.0,0.0,0.0,0.0,0.0,0.0,0.0,0.0,0.0,0.0,0.0,0.0,0.0,0.0,0.0,0.0,0.0,0.0,0.0,0.0,0.0,0.0,0.0,0.0,0.0,7.3994,7.3994,7.3994,7.3994,7.3994,7.3994,7.3994,7.3994,7.3769,7.3339,7.2721,7.2074,7.1465,7.1269,7.0932,7.0538,7.0388,7.0304,7.0304,7.0304,7.0304,7.0304,7.0304,7.0304,7.0304,7.0304,7.0304,7.0304,7.0304,7.0304,7.0304,7.0304,7.0304,7.0304,7.0304,7.0304,7.0304,7.0304,7.0304,7.0304,7.0304,7.0304,7.0304,7.0304,7.0304,7.0211,6.9989,6.9951,6.9951,6.9951,6.9951,7.0044,7.0267,6.9578,6.9501,7.0482,6.9278,6.8869,6.9818,6.8801,6.7747,6.6901,6.7273,6.7587,6.7744,6.8278,6.8876,6.9489,6.9013,6.9112,6.9686,6.9071,6.8805,5.6898,5.8153,5.9189,5.9189,5.9864,6.0734,6.1605,0.0,0.0,0.0,0.0,0.0,0.0,0.0,0.0,0.0,0.0,0.0,0.0,0.0,0.0,0.0,0.0,0.0,0.0,0.0,0.0,0.0,0.0,0.0,0.0,0.0,0.0,0.0,0.0,0.0,0.0,0.0,0.0,0.0,7.3994,7.3994,7.3994,7.3994,7.3994,7.3994,7.3741,7.3151,7.2308,7.1962,7.1409,7.0847,7.0847,7.0623,7.0304,7.0304,7.0304,7.0304,7.0304,7.0304,7.0304,7.0304,7.0304,7.0304,7.0304,7.0304,7.0304,7.0304,7.0304,7.0304,7.0304,7.0304,7.0304,7.0304,7.0304,7.0304,7.0304,7.0304,7.0304,7.0304,7.0304,7.0304,7.0304,7.0304,7.0304,7.0304,7.0304,7.0304,7.0304,7.0304,7.0304,7.0304,7.0082,7.0286,7.1147,7.0519,7.0407,7.1188,6.9969,6.91,6.8809,6.8623,6.8624,6.8834,6.9486,7.0103,7.0629,7.0103,7.0103,7.0608,7.0083,6.9836,5.794,5.8755,5.9189,5.9189,6.016,0.0,6.2616,6.2909,0.0,0.0,0.0,0.0,0.0,0.0,0.0,0.0,0.0,0.0,0.0,0.0,0.0,0.0,0.0,0.0,0.0,0.0,0.0,0.0,0.0,0.0,0.0,0.0,0.0,0.0,0.0,0.0,0.0,0.0,0.0,0.0,0.0,7.3994,7.3994,7.3994,7.3966,7.3881,7.3226,7.2252,7.1213,7.1128,7.0791,7.0304,7.0304,7.0304,7.0304,7.0304,7.0304,7.0304,7.0304,7.0304,7.0304,7.0304,7.0304,7.0304,7.0304,7.0304,7.0304,7.0304,7.0304,7.0304,7.0304,7.0304,7.0304,7.0304,7.0304,7.0304,7.0304,7.0304,7.0304,7.0304,7.0304,7.0304,7.0304,7.0304,7.0304,7.0304,7.0304,7.0304,7.0304,7.036,7.0388,7.0388,7.0932,7.1297,7.1381,7.1858,7.2122,7.2,7.111,7.0877,7.1473,7.0146,6.9652,7.022,7.0995,7.1419,7.15,7.1419,7.1419,7.15,7.1419,7.1379,5.794,5.8755,5.9189,5.9189,6.016,6.1425,6.2616,6.2909,6.2909,0.0,0.0,0.0,0.0,0.0,0.0,0.0,0.0,0.0,0.0,0.0,0.0,0.0,0.0,0.0,0.0,0.0,0.0,0.0,0.0,0.0,0.0,0.0,0.0,0.0,0.0,0.0,0.0,0.0,0.0,0.0,7.3994,7.3994,7.3994,7.3994,7.3741,7.3226,7.2083,7.1465,7.1156,7.0679,7.0416,7.0304,7.0304,7.0304,7.0304,7.0304,7.0304,7.0304,7.0304,7.0304,7.0304,7.0304,7.0304,7.0304,7.0304,7.0304,7.0304,7.0304,7.0304,7.0304,7.0304,7.0304,7.0304,7.0304,7.0304,7.0304,7.0304,7.0304,7.0304,7.0304,7.0304,7.0304,7.0304,7.0304,7.0304,7.0304,7.0304,7.0304,7.0304,7.0707,7.1016,7.1016,7.1597,7.2187,7.2664,7.2208,7.2367,7.3449,7.2077,7.1565,7.2401,7.0819,7.0291,7.1096,7.1298,7.1741,7.2421,7.1721,7.1741,7.2401,7.1721,7.1379,5.8382,5.8965,5.9358,5.9948,6.0835,6.1774,6.2684,6.2909,6.2909,0.0,0.0,0.0,0.0,0.0,0.0,0.0,0.0,0.0,0.0,0.0,0.0,0.0,0.0,0.0,0.0,0.0,0.0,0.0,0.0,0.0,0.0,0.0,0.0,0.0,0.0,0.0,7.3516,7.4416,7.4567,7.4013,7.4586,7.4425,7.3572,7.3572,7.3067,7.214,7.1493,7.1044,7.0735,7.0445,7.0304,7.0304,7.0304,7.0304,7.0304,7.0304,7.0304,7.0304,7.0304,7.0304,7.0304,7.0304,7.0304,7.0304,7.0304,7.0304,7.0304,7.0304,7.0304,7.0304,7.0304,7.0304,7.0304,7.0304,7.0304,7.0304,7.0304,7.0304,7.0304,7.0304,7.0304,7.0304,7.0304,7.0304,7.0304,7.0304,7.0304,7.0416,7.0679,7.1016,7.1325,7.1653,7.2243,7.2749,7.3086,7.2932,7.3181,7.3946,7.2767,7.2401,7.328,7.2062,7.156,7.2002,7.2449,7.2866,7.3319,7.2866,7.2885,7.33,7.2866,7.2647,5.8908,5.9274,5.9639,6.0807,6.1565,6.2167,6.274,6.2909,6.2909,0.0,0.0,0.0,0.0,0.0,0.0,0.0,0.0,0.0,0.0,0.0,0.0,0.0,0.0,0.0,0.0,0.0,0.0,0.0,0.0,0.0,0.0,0.0,0.0,0.0,0.0,7.2892,7.4296,7.5307,7.5307,7.4324,7.5001,7.4497,7.2945,7.2833,7.2215,7.1184,7.11,7.0763,7.0304,7.0304,7.0304,7.0304,7.0304,7.0304,7.0304,7.0304,7.0304,7.0304,7.0304,7.0304,7.0304,7.0304,7.0304,7.0304,7.0304,7.0304,7.0304,7.0304,7.0304,7.0304,7.0304,7.0304,7.0304,7.0304,7.0304,7.0304,7.0304,7.0304,7.0304,7.0304,7.0304,7.0304,7.0304,7.0304,7.036,7.0445,7.0473,7.0697,7.1297,7.1465,7.1718,7.2318,7.2889,7.3254,7.3254,7.3713,7.3994,7.3994,7.3319,7.326,7.3955,7.33,7.2917,7.2917,7.3614,7.3994,7.3994,7.3994,7.3994,7.3994,7.3994,7.3994,5.8993,5.9583,6.0173,6.0919,6.1565,6.2167,6.274,0.0,6.2909,0.0,0.0,0.0,0.0,0.0,0.0,0.0,0.0,0.0,0.0,0.0,0.0,0.0,0.0,0.0,0.0,0.0,0.0,0.0,0.0,0.0,0.0,0.0,7.0894,7.2178,7.2206,0.0,7.5545,7.5716,7.5716,7.5545,7.4144,7.3062,7.2318,7.1718,7.1353,7.1184,7.0651,7.0388,7.0304,7.0304,7.0304,7.0304,7.0304,7.0304,7.0304,7.0304,7.0304,7.0304,7.0304,7.0304,7.0304,7.0304,7.0304,7.0304,7.0304,7.0304,7.0304,7.0304,7.0304,7.0304,7.0304,7.0304,7.0304,7.0304,7.0304,7.0304,7.0304,7.0304,7.0304,7.0304,7.0304,7.0304,7.0304,7.0304,7.0501,7.0988,7.1072,7.1325,7.1962,7.2524,7.2889,7.2973,7.3516,7.3881,7.3881,7.3937,7.3994,7.3994,7.3896,7.3877,7.3994,7.3896,7.3838,7.3838,7.3935,7.3994,7.3994,7.3994,7.3994,7.3994,7.3994,7.3994,5.9049,5.992,6.0734,6.1031,6.1802,6.2588,6.2825,6.2909,6.2909,0.0,0.0,0.0,0.0,0.0,0.0,0.0,0.0,0.0,0.0,0.0,0.0,0.0,0.0,0.0,0.0,0.0,0.0,0.0,0.0,0.0,0.0,7.0655,7.1164,7.3045,7.25,0.0,7.5791,7.581,7.5637,7.5263,7.3472,7.2584,7.2551,7.1277,7.0707,7.0679,7.0416,7.0304,7.0304,7.0304,7.0304,7.0304,7.0304,7.0304,7.0304,7.0304,7.0304,7.0304,7.0304,7.0304,7.0304,7.0304,7.0304,7.0304,7.0304,7.0304,7.0304,7.0304,7.0304,7.0304,7.0304,7.0304,7.0304,7.0304,7.0304,7.0304,7.0304,7.0304,7.0304,7.0304,7.0304,7.0304,7.0304,7.0566,7.0875,7.1156,7.1522,7.199,7.2608,7.2945,7.3226,7.3572,7.3825,7.3994,7.3994,7.3994,7.3994,7.3994,7.3994,7.3994,7.3994,7.3994,7.3994,7.3994,7.3994,7.3994,7.3994,7.3994,7.3994,7.3994,7.3994,7.3994,5.9274,6.0229,6.1144,6.1284,6.2111,6.2909,6.2909,0.0,6.2909,0.0,0.0,0.0,0.0,0.0,0.0,0.0,0.0,0.0,0.0,0.0,0.0,0.0,0.0,0.0,0.0,0.0,0.0,0.0,0.0,0.0,7.1956,7.1195,7.1587,7.3502,7.2932,7.3699,7.5983,7.6475,7.6362,7.575,7.3938,7.3159,7.3285,7.1816,7.1177,7.114,7.0563,7.0304,7.0304,7.0304,7.0304,7.0304,7.0304,7.0304,7.0304,7.0304,7.0304,7.0304,7.0304,7.0304,7.0304,7.0304,7.0304,7.0304,7.0304,7.0304,7.0304,7.0304,7.0304,7.0304,7.0304,7.0304,7.0304,7.0304,7.0304,7.0304,7.0304,7.0304,7.0304,7.0304,7.0304,7.036,7.0482,7.0904,7.1297,7.1634,7.2102,7.2636,7.3254,7.3339,7.3488,7.3937,7.3994,7.3994,7.3994,7.3994,7.3994,7.3994,7.3994,7.3994,7.3994,7.3994,7.3994,7.3994,7.3994,7.3994,7.3994,7.3994,7.3994,7.3994,7.3994,7.3994,5.9876,6.0566,6.1228,6.1802,6.2448,6.2909,6.2909,0.0,0.0,0.0,0.0,0.0,0.0,0.0,0.0,0.0,0.0,0.0,0.0,0.0,0.0,0.0,0.0,0.0,0.0,0.0,0.0,0.0,0.0,0.0,7.1956,7.1928,7.2226,7.2924,7.3455,7.4632,7.6537,7.8256,7.8775,7.8096,7.629,7.5104,7.4492,7.3827,7.3533,7.341,7.1221,7.0304,7.0304,7.0304,7.0304,7.0304,7.0304,7.0304,7.0304,7.0304,7.0304,7.0304,7.0304,7.0304,7.0304,7.0304,7.0304,7.0304,7.0304,7.0304,7.0304,7.0304,7.0304,7.0304,7.0304,7.0304,7.0304,7.0304,7.0304,7.0304,7.0304,7.0304,7.0304,7.0304,7.0304,7.0501,7.1044,7.1184,7.1606,7.2833,7.303,7.3283,7.3881,7.3937,7.3966,7.3994,7.3994,7.3994,7.3994,7.3994,7.3994,7.3994,7.3994,7.3994,7.3994,7.3994,7.3994,7.3994,7.3994,7.3994,7.3994,7.3994,7.3994,7.3994,7.3994,7.3994,5.9932,6.0594,6.1228,6.1858,6.2448,6.2909,6.2909,6.2909,6.2909,0.0,0.0,0.0,0.0,0.0,0.0,0.0,0.0,0.0,0.0,0.0,0.0,0.0,0.0,0.0,0.0,0.0,0.0,0.0,0.0,0.0,7.3023,7.2394,7.2952,7.5033,7.4996,7.5655,7.7151,7.8172,7.7949,7.6551,7.549,7.4986,7.5022,7.411,7.409,7.4629,7.3146,7.2472,7.2419,7.1675,7.1395,7.1322,7.06,7.0304,7.0304,7.0304,7.0304,7.0304,7.0304,7.0304,7.0304,7.0304,7.0304,7.0304,7.0304,7.0304,7.0304,7.0304,7.0304,7.0304,7.0304,7.0304,7.0304,7.0304,7.0304,7.0304,7.0304,7.0304,7.0304,7.0304,7.0595,7.096,7.1156,7.1887,7.2561,7.303,7.3432,7.3769,7.3966,7.3994,7.3994,7.3994,7.3994,7.3994,7.3994,7.3994,7.3994,7.3994,7.3994,7.3994,7.3994,7.3994,7.3994,7.3994,7.3994,7.3994,7.3994,7.3994,7.3994,7.3994,7.3994,7.3994,6.0201,6.0778,6.1284,6.2111,6.2616,6.2909,6.2909,6.2909,6.2909,0.0,0.0,0.0,0.0,0.0,0.0,0.0,0.0,0.0,0.0,0.0,0.0,0.0,0.0,0.0,0.0,0.0,0.0,0.0,0.0,0.0,7.4194,7.3515,7.4178,7.6564,7.6357,7.6831,7.8072,7.8652,7.8181,7.6771,7.6048,7.5786,7.5859,7.512,7.5188,7.5826,7.4728,7.3829,7.3058,7.2305,7.1982,7.1902,7.0765,7.0544,7.081,7.0452,7.0304,7.0304,7.0304,7.0304,7.0304,7.0304,7.0304,7.0304,7.0304,7.0304,7.0304,7.0304,7.0304,7.0304,7.0304,7.0304,7.0304,7.0304,7.0304,7.0304,7.0304,7.0304,7.036,7.0538,7.0932,7.1353,7.1746,7.2552,7.317,7.3367,7.3741,7.3994,7.3994,7.3994,7.3994,7.3994,7.3994,7.3994,7.3994,7.3994,7.3994,7.3994,7.3994,7.3994,7.3994,7.3994,7.3994,7.3994,7.3994,7.3994,7.3994,7.3994,7.3994,7.3994,7.3994,7.3994,0.0,0.0,0.0,0.0,0.0,0.0,6.2909,0.0,6.2926,0.0,0.0,0.0,0.0,0.0,0.0,0.0,0.0,0.0,0.0,0.0,0.0,0.0,0.0,0.0,0.0,0.0,0.0,0.0,0.0,7.4182,7.5256,7.5341,7.5961,7.727,7.7413,7.8046,7.9308,7.982,7.9738,7.9078,7.8322,7.7645,7.6999,7.6999,7.6999,7.6933,7.5843,7.4125,7.2089,7.2054,7.2054,7.1982,7.0829,7.1067,7.1892,7.0755,7.036,7.036,7.036,7.036,7.036,7.036,7.036,7.0341,7.0304,7.0304,7.0304,7.0304,7.0304,7.0304,7.0304,7.0304,7.0304,7.0304,7.0304,7.0304,7.0304,7.0304,7.0482,7.11,7.1213,7.1634,7.287,7.3114,7.3339,7.3909,7.3994,7.3994,7.3994,7.3994,7.3994,7.3994,7.3994,7.3994,7.3994,7.3994,7.3994,7.3994,7.3994,7.3994,7.3994,7.3994,7.3994,7.3994,7.3994,7.3994,7.3994,7.3994,7.3994,7.3994,7.3994,7.3994,6.0863,0.0,0.0,0.0,0.0,0.0,0.0,0.0,0.0,0.0,0.0,0.0,0.0,0.0,0.0,0.0,0.0,0.0,0.0,0.0,0.0,0.0,0.0,0.0,0.0,0.0,0.0,0.0,0.0,7.5001,7.529,7.6077,7.6921,7.7761,7.8345,7.9036,7.9876,7.954,7.9246,7.9013,7.783,7.7184,7.6999,7.6999,7.6999,7.6983,7.6656,7.5725,7.4349,7.355,7.369,7.4298,7.3199,7.2952,7.3093,7.1946,7.154,7.154,7.154,7.154,7.154,7.154,7.154,7.1377,7.0563,7.0304,7.0304,7.0304,7.0304,7.0304,7.0304,7.0304,7.0304,7.0304,7.0304,7.0304,7.0304,7.0623,7.0988,7.1184,7.1597,7.2187,7.2973,7.346,7.3797,7.3966,7.3994,7.3994,7.3994,7.3994,7.3994,7.3994,7.3994,7.3994,7.3994,7.3994,7.3994,7.3994,7.3994,7.3994,7.3994,7.3994,7.3994,7.3994,7.3994,7.3994,7.3994,7.3994,7.3994,7.3994,7.3994,7.3994,0.0,0.0,0.0,0.0,0.0,0.0,6.2909,6.2909,6.3063,0.0,0.0,0.0,0.0,0.0,0.0,0.0,0.0,0.0,0.0,0.0,0.0,0.0,0.0,0.0,0.0,0.0,0.0,0.0,7.5858,7.601,7.601,7.6639,7.7307,7.7967,7.8739,7.9293,7.9694,7.9293,7.8938,7.8583,7.7506,7.6999,7.6999,7.6999,7.6999,7.6966,7.6507,7.6177,7.5926,7.483,7.4745,7.5205,7.4125,7.3986,7.4194,7.259,7.2305,7.2644,7.2161,7.2305,7.2644,7.2143,7.1982,7.1794,7.0655,7.0304,7.0304,7.0304,7.0304,7.0304,7.0304,7.0304,7.0304,7.0304,7.0304,7.0304,7.0304,7.0763,7.1269,7.155,7.2131,7.2777,7.3367,7.3769,7.3994,7.3994,7.3994,7.3994,7.3994,7.3994,7.3994,7.3994,7.3994,7.3994,7.3994,7.3994,7.3994,7.3994,7.3994,7.3994,7.3994,7.3994,7.3994,7.3994,7.3994,7.3994,7.3994,7.3994,7.3994,7.3994,7.3994,7.3994,0.0,0.0,0.0,0.0,0.0,0.0,6.2909,6.2909,6.2914,0.0,0.0,0.0,0.0,0.0,0.0,0.0,0.0,0.0,0.0,0.0,0.0,0.0,0.0,0.0,0.0,0.0,7.3662,7.566,7.6534,7.6999,7.6999,7.6999,7.7276,7.7875,7.8599,7.8986,7.8986,7.8986,7.863,7.7998,7.7321,7.6999,7.6999,7.6999,7.6999,7.695,7.5943,7.606,7.6917,7.591,7.5493,7.5391,7.4453,7.4659,7.5239,7.3128,7.3005,7.3742,7.2704,7.3023,7.3707,7.2715,7.2376,7.2161,7.103,7.06,7.047,7.0341,7.0304,7.0304,7.0304,7.0304,7.0304,7.0304,7.0304,7.0332,7.0388,7.0875,7.1493,7.2159,7.2721,7.3311,7.3909,7.3994,7.3994,7.3994,7.3994,7.3994,7.3994,7.3994,7.3994,7.3994,7.3994,7.3994,7.3994,7.3994,7.3994,7.3994,7.3994,7.3994,7.3994,7.3994,7.3994,7.3994,7.3994,7.3994,7.3994,7.3994,7.3994,7.3994,7.3994,7.3994,0.0,0.0,0.0,0.0,0.0,0.0,6.2909,6.2909,6.3129,0.0,0.0,0.0,0.0,0.0,0.0,0.0,0.0,0.0,0.0,0.0,0.0,0.0,0.0,0.0,0.0,0.0,7.3997,7.4651,7.614,7.6999,7.6999,7.6999,7.7061,7.7184,7.7861,7.8213,7.8213,7.8213,7.8138,7.7998,7.7321,7.6999,7.6999,7.6999,7.6999,7.6983,7.6755,7.6802,7.6983,7.6769,7.6656,7.6639,7.644,7.6474,7.6507,7.5154,7.4813,7.4967,7.4715,7.4783,7.4937,7.4745,7.4676,7.444,7.3375,7.2412,7.1486,7.0563,7.0304,7.0304,7.0304,7.0304,7.0304,7.0304,7.0304,7.0445,7.0932,7.154,7.2187,7.2805,7.303,7.3311,7.3909,7.3994,7.3994,7.3994,7.3994,7.3994,7.3994,7.3994,7.3994,7.3994,7.3994,7.3994,7.3994,7.3994,7.3994,7.3994,7.3994,7.3994,7.3994,7.3994,7.3994,7.3994,7.3994,7.3994,7.3994,7.3994,7.3994,7.3994,7.3994,7.3994,0.0,0.0,0.0,6.2909,0.0,0.0,0.0,6.2909,6.303,6.3561,0.0,0.0,0.0,0.0,0.0,0.0,0.0,0.0,0.0,0.0,0.0,0.0,0.0,0.0,0.0,0.0,7.3756,7.5097,7.6014,7.6661,7.6999,7.6999,7.6999,7.6999,7.7629,7.7844,7.7522,7.7813,7.7813,7.7522,7.7153,7.6999,7.6999,7.6999,7.6999,7.6999,7.6999,7.6999,7.6999,7.6999,7.6999,7.6999,7.6999,7.6999,7.6868,7.5712,7.5644,7.6077,7.5493,7.5661,7.6044,7.5493,7.5307,7.5103,7.4038,7.2899,7.1776,7.0636,7.0304,7.0434,7.0994,7.114,7.1304,7.1874,7.2018,7.219,7.2795,7.3458,7.3906,7.3965,7.425,7.4353,7.4054,7.3994,7.3994,7.3994,7.3994,7.3994,7.3994,7.3994,7.3994,7.3994,7.3994,7.3994,7.3994,7.3994,7.3994,7.3994,7.3994,7.3994,7.3994,7.3994,7.3994,7.3994,7.3994,7.3994,7.3994,7.3994,7.3994,7.3994,7.3994,7.3994,0.0,0.0,0.0,0.0,0.0,6.2909,0.0,0.0,0.0,6.2909,0.0,0.0,0.0,0.0,0.0,0.0,0.0,0.0,0.0,0.0,0.0,0.0,0.0,0.0,0.0,0.0,7.3067,7.5441,7.583,7.623,7.6784,7.6938,7.6999,7.6999,7.7522,7.7537,7.6999,7.7553,7.7553,7.6999,7.6999,7.6999,7.6999,7.6999,7.6999,7.6999,7.6999,7.6999,7.6999,7.6999,7.6999,7.6999,7.6999,7.6999,7.6901,7.5977,7.6194,7.6868,7.596,7.6227,7.6851,7.5943,7.5628,7.5391,7.4107,7.3058,7.2036,7.0663,7.047,7.0829,7.1776,7.2161,7.2573,7.348,7.3707,7.3914,7.4698,7.5271,7.5554,7.5428,7.5774,7.5678,7.4266,7.3994,7.3994,7.3994,7.3994,7.3994,7.3994,7.3994,7.3994,7.3994,7.3994,7.3994,7.3994,7.3994,7.3994,7.3994,7.3994,7.3994,7.3994,7.4227,7.4451,7.4683,7.4451,7.4363,7.4363,7.4111,7.3994,7.3994,7.3994,7.3994,0.0,0.0,0.0,0.0,6.2909,0.0,0.0,0.0,6.2909,6.2909,0.0,0.0,0.0,0.0,0.0,0.0,0.0,0.0,0.0,0.0,0.0,0.0,0.0,0.0,0.0,0.0,0.0,7.4072,7.5323,7.6014,7.6107,7.6691,7.6999,7.6999,7.7061,7.7091,7.6999,7.7091,7.7091,7.6999,7.6999,7.6999,7.6999,7.6999,7.6999,7.6999,7.6999,7.6999,7.6999,7.6999,7.6999,7.6999,7.6999,7.6999,7.6983,7.6868,7.6901,7.6983,7.6851,7.6901,7.6983,7.6851,7.6818,7.6424,7.4332,7.362,7.3058,7.0902,7.103,7.1848,7.1974,7.2768,7.355,7.3672,7.3707,7.4032,7.5253,7.5548,7.5906,7.6997,7.7273,7.6608,7.4374,7.3994,7.3994,7.3994,7.3994,7.3994,7.3994,7.3994,7.3994,7.3994,7.3994,7.3994,7.3994,7.3994,7.3994,7.3994,7.3994,7.3994,7.3994,7.502,7.6075,7.7092,7.6102,7.5583,7.5583,7.4528,7.3994,7.3994,7.3994,7.3994,0.0,0.0,0.0,0.0,0.0,0.0,0.0,0.0,6.2909,0.0,0.0,0.0,0.0,0.0,0.0,0.0,0.0,0.0,0.0,0.0,0.0,0.0,0.0,0.0,0.0,0.0,0.0,0.0,0.0,7.4922,7.5967,7.663,7.6999,7.6999,7.6999,7.6999,7.6999,7.6999,7.6999,7.6999,7.6999,7.6999,7.6999,7.6999,7.6999,7.6999,7.6999,7.6999,7.6999,7.6999,7.6999,7.6999,7.6999,7.6999,7.6999,7.6999,7.6999,7.6999,7.6999,7.6999,7.6999,7.6999,7.6999,7.6689,7.5103,7.4642,7.4285,7.2721,7.2615,7.3128,7.376,7.428,7.4813,7.5472,7.5927,7.6471,7.7439,7.7953,7.8275,7.8513,7.8537,7.801,7.6309,7.5469,7.5039,7.5039,7.4432,7.3994,7.3994,7.3994,7.3994,7.3994,7.3994,7.3994,7.3994,7.3994,7.3994,7.3994,7.4664,7.5316,7.5989,7.6515,7.7018,7.7487,7.7036,7.6795,7.6795,7.6271,7.6008,7.5989,7.5364,7.5393,6.2909,0.0,0.0,0.0,0.0,0.0,0.0,0.0,0.0,0.0,0.0,0.0,0.0,0.0,0.0,0.0,0.0,0.0,0.0,0.0,0.0,0.0,0.0,0.0,0.0,0.0,0.0,0.0,7.3203,0.0,7.5627,7.6353,7.6814,7.6999,7.6999,7.6999,7.6999,7.6999,7.6999,7.6999,7.6999,7.6999,7.6999,7.6999,7.6999,7.6999,7.6999,7.6999,7.6999,7.6999,7.6999,7.6999,7.6999,7.6999,7.6999,7.6999,7.6999,7.6999,7.6999,7.6999,7.6999,7.6999,7.6999,7.6802,7.5644,7.5307,7.5086,7.4003,7.3916,7.4332,7.5103,7.5526,7.5977,7.6818,7.7506,7.8183,7.8955,7.9632,8.0038,7.9832,7.9794,7.9516,7.8645,7.7258,7.6169,7.5848,7.5058,7.4354,7.4033,7.3994,7.3994,7.3994,7.3994,7.3994,7.3994,7.3994,7.4149,7.447,7.5326,7.6459,7.7937,7.7992,7.8156,7.8482,7.8174,7.7992,7.7992,7.7652,7.7652,7.7974,7.6813,7.672,0.0,0.0,0.0,0.0,0.0,0.0,0.0,0.0,6.2909,0.0,0.0,0.0,0.0,0.0,0.0,0.0,0.0,0.0,0.0,0.0,0.0,0.0,0.0,0.0,0.0,0.0,0.0,0.0,7.2057,0.0,7.4936,7.5661,7.6322,7.6968,7.6999,7.6999,7.6999,7.6999,7.6999,7.6999,7.6999,7.6999,7.6999,7.6999,7.6999,7.6999,7.6999,7.6999,7.6999,7.6999,7.6999,7.6999,7.6999,7.6999,7.6999,7.6999,7.6999,7.6999,7.6999,7.6999,7.6999,7.6999,7.6999,7.6802,7.5644,7.5307,7.5086,7.4003,7.447,7.5273,7.5307,7.611,7.695,7.6983,7.7506,7.8183,7.8955,7.9632,8.0292,8.0938,8.1044,8.1044,8.0979,7.9004,7.7062,7.598,7.5772,7.5326,7.4149,7.3994,7.3994,7.3994,7.3994,7.3994,7.3994,7.3994,7.449,7.5659,7.5791,7.6832,7.9142,7.9231,7.9794,8.0944,7.9847,7.9231,7.9231,7.8083,7.8101,7.9195,7.801,7.745,0.0,0.0,6.3729,6.3063,0.0,0.0,0.0,0.0,0.0,0.0,0.0,0.0,0.0,0.0,0.0,0.0,0.0,0.0,0.0,0.0,0.0,0.0,0.0,0.0,0.0,0.0,0.0,7.068,7.1801,7.3159,0.0,7.5661,7.6322,7.6968,7.6999,7.6999,7.6999,7.6999,7.6999,7.6999,7.6999,7.6999,7.6999,7.6999,7.6999,7.6999,7.6999,7.6999,7.6999,7.6999,7.6999,7.6999,7.6999,7.6999,7.6999,7.6999,7.6999,7.6999,7.6999,7.6999,7.6999,7.6999,7.6999,7.6933,7.654,7.644,7.6357,7.5977,7.6158,7.644,7.644,7.6705,7.7122,7.7567,7.8199,7.8907,7.9601,8.0278,8.0819,8.1052,8.1113,8.1113,8.1113,8.0409,7.9213,7.721,7.6271,7.5383,7.4169,7.3994,7.3994,7.3994,7.3994,7.4315,7.5116,7.5886,7.6832,7.8029,7.8101,7.8837,8.044,8.0492,8.0684,8.1096,8.0701,8.0492,8.0492,8.0076,8.0094,8.0492,8.0076,7.987,6.2909,6.3364,0.0,0.0,0.0,0.0,0.0,0.0,0.0,0.0,0.0,0.0,0.0,0.0,0.0,0.0,0.0,0.0,0.0,0.0,0.0,0.0,0.0,0.0,0.0,0.0,6.8396,7.0664,7.1236,7.2391,0.0,0.0,7.5953,7.663,7.6876,7.6999,7.6999,7.6999,7.6999,7.6999,7.6999,7.6999,7.6999,7.6999,7.6999,7.6999,7.6999,7.6999,7.6999,7.6999,7.6999,7.6999,7.6999,7.6999,7.6999,7.6999,7.6999,7.6999,7.6999,7.6999,7.6999,7.6999,7.6999,7.6999,7.6999,7.6999,7.7061,7.7307,7.7184,7.7061,7.7307,7.7184,7.7184,7.7844,7.8569,7.9293,7.9971,8.0634,8.1113,8.1113,8.1113,8.1113,8.1113,8.1113,8.0409,7.8428,7.7516,7.6619,7.5393,7.5249,7.5249,7.5249,7.5249,7.5564,7.6328,7.7092,7.801,7.9213,7.9285,7.9847,8.1061,8.1113,8.099,8.0757,8.099,8.0973,8.0757,8.0973,8.1113,8.1113,8.1113,8.1113]}]]